<?xml version="1.0" encoding="UTF-8" standalone="no" ?>
<gpx xmlns="http://www.topografix.com/GPX/1/1" xmlns:xsi="http://www.w3.org/2001/XMLSchema-instance" xsi:schemaLocation="http://www.topografix.com/GPX/1/1 http://www.topografix.com/GPX/1/1/gpx.xsd" version="1.1" creator="VisuGPX - https://www.visugpx.com">
  <metadata>
    <name>1606081000ROBBenjamins</name>
    <desc><![CDATA[Excellente sortie]]></desc>
  </metadata>
  <trk>
    <name><![CDATA[1606081000ROBBenjamins]]></name>
    <trkseg>
      <trkpt lat="43.41581" lon="6.07039">
        <ele>205.39999389648</ele>
        <time>2016-06-08T11:59:27Z</time>
      </trkpt>
      <trkpt lat="43.41581" lon="6.07039">
        <ele>205.39999389648</ele>
        <time>2016-06-08T11:59:28Z</time>
      </trkpt>
      <trkpt lat="43.41581" lon="6.07045">
        <ele>205.80000305176</ele>
        <time>2016-06-08T11:59:41Z</time>
      </trkpt>
      <trkpt lat="43.41583" lon="6.07067">
        <ele>205.80000305176</ele>
        <time>2016-06-08T11:59:48Z</time>
      </trkpt>
      <trkpt lat="43.41586" lon="6.07093">
        <ele>205.60000610352</ele>
        <time>2016-06-08T11:59:55Z</time>
      </trkpt>
      <trkpt lat="43.41586" lon="6.07112">
        <ele>205.60000610352</ele>
        <time>2016-06-08T12:00:00Z</time>
      </trkpt>
      <trkpt lat="43.41585" lon="6.07114">
        <ele>205.60000610352</ele>
        <time>2016-06-08T12:00:01Z</time>
      </trkpt>
      <trkpt lat="43.41579" lon="6.07115">
        <ele>205.60000610352</ele>
        <time>2016-06-08T12:00:04Z</time>
      </trkpt>
      <trkpt lat="43.41578" lon="6.07115">
        <ele>205.60000610352</ele>
        <time>2016-06-08T12:00:05Z</time>
      </trkpt>
      <trkpt lat="43.4156" lon="6.07119">
        <ele>205.39999389648</ele>
        <time>2016-06-08T12:00:13Z</time>
      </trkpt>
      <trkpt lat="43.41558" lon="6.07119">
        <ele>205.19999694824</ele>
        <time>2016-06-08T12:00:14Z</time>
      </trkpt>
      <trkpt lat="43.41558" lon="6.07121">
        <ele>205.19999694824</ele>
        <time>2016-06-08T12:00:16Z</time>
      </trkpt>
      <trkpt lat="43.41559" lon="6.07122">
        <ele>205.19999694824</ele>
        <time>2016-06-08T12:00:17Z</time>
      </trkpt>
      <trkpt lat="43.41559" lon="6.07122">
        <ele>205.19999694824</ele>
        <time>2016-06-08T12:00:21Z</time>
      </trkpt>
      <trkpt lat="43.41558" lon="6.07121">
        <ele>205.39999389648</ele>
        <time>2016-06-08T12:00:32Z</time>
      </trkpt>
      <trkpt lat="43.41558" lon="6.07119">
        <ele>205.19999694824</ele>
        <time>2016-06-08T12:00:42Z</time>
      </trkpt>
      <trkpt lat="43.41558" lon="6.07117">
        <ele>205.39999389648</ele>
        <time>2016-06-08T12:00:43Z</time>
      </trkpt>
      <trkpt lat="43.41554" lon="6.07114">
        <ele>205.60000610352</ele>
        <time>2016-06-08T12:00:46Z</time>
      </trkpt>
      <trkpt lat="43.41552" lon="6.07114">
        <ele>205.60000610352</ele>
        <time>2016-06-08T12:00:47Z</time>
      </trkpt>
      <trkpt lat="43.41547" lon="6.0711">
        <ele>205.60000610352</ele>
        <time>2016-06-08T12:00:50Z</time>
      </trkpt>
      <trkpt lat="43.41547" lon="6.07107">
        <ele>205.60000610352</ele>
        <time>2016-06-08T12:00:51Z</time>
      </trkpt>
      <trkpt lat="43.41542" lon="6.07084">
        <ele>205.39999389648</ele>
        <time>2016-06-08T12:00:57Z</time>
      </trkpt>
      <trkpt lat="43.41539" lon="6.07078">
        <ele>205.39999389648</ele>
        <time>2016-06-08T12:00:59Z</time>
      </trkpt>
      <trkpt lat="43.41531" lon="6.07077">
        <ele>205.60000610352</ele>
        <time>2016-06-08T12:01:01Z</time>
      </trkpt>
      <trkpt lat="43.41523" lon="6.07079">
        <ele>205.19999694824</ele>
        <time>2016-06-08T12:01:03Z</time>
      </trkpt>
      <trkpt lat="43.41507" lon="6.07083">
        <ele>204.80000305176</ele>
        <time>2016-06-08T12:01:07Z</time>
      </trkpt>
      <trkpt lat="43.41492" lon="6.07082">
        <ele>204.39999389648</ele>
        <time>2016-06-08T12:01:11Z</time>
      </trkpt>
      <trkpt lat="43.41486" lon="6.07079">
        <ele>204.39999389648</ele>
        <time>2016-06-08T12:01:13Z</time>
      </trkpt>
      <trkpt lat="43.41474" lon="6.07076">
        <ele>204.19999694824</ele>
        <time>2016-06-08T12:01:18Z</time>
      </trkpt>
      <trkpt lat="43.41468" lon="6.07072">
        <ele>203.80000305176</ele>
        <time>2016-06-08T12:01:25Z</time>
      </trkpt>
      <trkpt lat="43.41468" lon="6.07071">
        <ele>203.60000610352</ele>
        <time>2016-06-08T12:01:31Z</time>
      </trkpt>
      <trkpt lat="43.41467" lon="6.07069">
        <ele>203.39999389648</ele>
        <time>2016-06-08T12:01:37Z</time>
      </trkpt>
      <trkpt lat="43.41467" lon="6.07069">
        <ele>203.19999694824</ele>
        <time>2016-06-08T12:01:44Z</time>
      </trkpt>
      <trkpt lat="43.41468" lon="6.07069">
        <ele>203.19999694824</ele>
        <time>2016-06-08T12:02:00Z</time>
      </trkpt>
      <trkpt lat="43.41468" lon="6.07066">
        <ele>203.39999389648</ele>
        <time>2016-06-08T12:02:13Z</time>
      </trkpt>
      <trkpt lat="43.41472" lon="6.07054">
        <ele>203</ele>
        <time>2016-06-08T12:02:17Z</time>
      </trkpt>
      <trkpt lat="43.41481" lon="6.07036">
        <ele>203.39999389648</ele>
        <time>2016-06-08T12:02:21Z</time>
      </trkpt>
      <trkpt lat="43.41485" lon="6.07025">
        <ele>203.39999389648</ele>
        <time>2016-06-08T12:02:23Z</time>
      </trkpt>
      <trkpt lat="43.41489" lon="6.07015">
        <ele>203.60000610352</ele>
        <time>2016-06-08T12:02:25Z</time>
      </trkpt>
      <trkpt lat="43.41491" lon="6.07009">
        <ele>203.60000610352</ele>
        <time>2016-06-08T12:02:26Z</time>
      </trkpt>
      <trkpt lat="43.41493" lon="6.07004">
        <ele>204</ele>
        <time>2016-06-08T12:02:27Z</time>
      </trkpt>
      <trkpt lat="43.41494" lon="6.06992">
        <ele>204.19999694824</ele>
        <time>2016-06-08T12:02:29Z</time>
      </trkpt>
      <trkpt lat="43.41493" lon="6.06987">
        <ele>204.19999694824</ele>
        <time>2016-06-08T12:02:30Z</time>
      </trkpt>
      <trkpt lat="43.41486" lon="6.06966">
        <ele>204.60000610352</ele>
        <time>2016-06-08T12:02:34Z</time>
      </trkpt>
      <trkpt lat="43.41481" lon="6.06957">
        <ele>204.60000610352</ele>
        <time>2016-06-08T12:02:36Z</time>
      </trkpt>
      <trkpt lat="43.41469" lon="6.06936">
        <ele>205</ele>
        <time>2016-06-08T12:02:41Z</time>
      </trkpt>
      <trkpt lat="43.41461" lon="6.06918">
        <ele>205.39999389648</ele>
        <time>2016-06-08T12:02:47Z</time>
      </trkpt>
      <trkpt lat="43.41462" lon="6.06916">
        <ele>205.39999389648</ele>
        <time>2016-06-08T12:02:48Z</time>
      </trkpt>
      <trkpt lat="43.41466" lon="6.06906">
        <ele>205.60000610352</ele>
        <time>2016-06-08T12:02:51Z</time>
      </trkpt>
      <trkpt lat="43.41468" lon="6.06896">
        <ele>205.60000610352</ele>
        <time>2016-06-08T12:02:53Z</time>
      </trkpt>
      <trkpt lat="43.41468" lon="6.06885">
        <ele>205.80000305176</ele>
        <time>2016-06-08T12:02:55Z</time>
      </trkpt>
      <trkpt lat="43.41464" lon="6.06875">
        <ele>206</ele>
        <time>2016-06-08T12:02:57Z</time>
      </trkpt>
      <trkpt lat="43.41462" lon="6.0687">
        <ele>205.80000305176</ele>
        <time>2016-06-08T12:02:58Z</time>
      </trkpt>
      <trkpt lat="43.41459" lon="6.06865">
        <ele>205.80000305176</ele>
        <time>2016-06-08T12:02:59Z</time>
      </trkpt>
      <trkpt lat="43.41442" lon="6.06856">
        <ele>205.60000610352</ele>
        <time>2016-06-08T12:03:03Z</time>
      </trkpt>
      <trkpt lat="43.41428" lon="6.06857">
        <ele>205.60000610352</ele>
        <time>2016-06-08T12:03:06Z</time>
      </trkpt>
      <trkpt lat="43.41419" lon="6.06858">
        <ele>205.60000610352</ele>
        <time>2016-06-08T12:03:08Z</time>
      </trkpt>
      <trkpt lat="43.41404" lon="6.06845">
        <ele>205.60000610352</ele>
        <time>2016-06-08T12:03:12Z</time>
      </trkpt>
      <trkpt lat="43.41377" lon="6.06826">
        <ele>206.19999694824</ele>
        <time>2016-06-08T12:03:19Z</time>
      </trkpt>
      <trkpt lat="43.41369" lon="6.06822">
        <ele>206.39999389648</ele>
        <time>2016-06-08T12:03:21Z</time>
      </trkpt>
      <trkpt lat="43.41337" lon="6.06807">
        <ele>206</ele>
        <time>2016-06-08T12:03:28Z</time>
      </trkpt>
      <trkpt lat="43.41321" lon="6.06797">
        <ele>205.19999694824</ele>
        <time>2016-06-08T12:03:31Z</time>
      </trkpt>
      <trkpt lat="43.41301" lon="6.0678">
        <ele>204.39999389648</ele>
        <time>2016-06-08T12:03:35Z</time>
      </trkpt>
      <trkpt lat="43.41296" lon="6.06775">
        <ele>204.39999389648</ele>
        <time>2016-06-08T12:03:36Z</time>
      </trkpt>
      <trkpt lat="43.41284" lon="6.06755">
        <ele>204.19999694824</ele>
        <time>2016-06-08T12:03:39Z</time>
      </trkpt>
      <trkpt lat="43.41279" lon="6.0674">
        <ele>204.19999694824</ele>
        <time>2016-06-08T12:03:41Z</time>
      </trkpt>
      <trkpt lat="43.41277" lon="6.06725">
        <ele>204.19999694824</ele>
        <time>2016-06-08T12:03:43Z</time>
      </trkpt>
      <trkpt lat="43.41273" lon="6.06705">
        <ele>204.39999389648</ele>
        <time>2016-06-08T12:03:46Z</time>
      </trkpt>
      <trkpt lat="43.41271" lon="6.06696">
        <ele>204.39999389648</ele>
        <time>2016-06-08T12:03:48Z</time>
      </trkpt>
      <trkpt lat="43.41268" lon="6.06688">
        <ele>204.60000610352</ele>
        <time>2016-06-08T12:03:50Z</time>
      </trkpt>
      <trkpt lat="43.41262" lon="6.06685">
        <ele>204.60000610352</ele>
        <time>2016-06-08T12:03:52Z</time>
      </trkpt>
      <trkpt lat="43.41252" lon="6.06691">
        <ele>204</ele>
        <time>2016-06-08T12:03:55Z</time>
      </trkpt>
      <trkpt lat="43.41248" lon="6.06696">
        <ele>203</ele>
        <time>2016-06-08T12:03:58Z</time>
      </trkpt>
      <trkpt lat="43.41247" lon="6.06697">
        <ele>202.39999389648</ele>
        <time>2016-06-08T12:04:04Z</time>
      </trkpt>
      <trkpt lat="43.41247" lon="6.06697">
        <ele>202.60000610352</ele>
        <time>2016-06-08T12:04:14Z</time>
      </trkpt>
      <trkpt lat="43.41247" lon="6.06697">
        <ele>202.39999389648</ele>
        <time>2016-06-08T12:04:30Z</time>
      </trkpt>
      <trkpt lat="43.41247" lon="6.06697">
        <ele>202.60000610352</ele>
        <time>2016-06-08T12:04:31Z</time>
      </trkpt>
      <trkpt lat="43.41246" lon="6.06702">
        <ele>202.60000610352</ele>
        <time>2016-06-08T12:04:36Z</time>
      </trkpt>
      <trkpt lat="43.41249" lon="6.06709">
        <ele>203</ele>
        <time>2016-06-08T12:04:40Z</time>
      </trkpt>
      <trkpt lat="43.41246" lon="6.06712">
        <ele>203</ele>
        <time>2016-06-08T12:04:43Z</time>
      </trkpt>
      <trkpt lat="43.41244" lon="6.06711">
        <ele>203</ele>
        <time>2016-06-08T12:04:44Z</time>
      </trkpt>
      <trkpt lat="43.41232" lon="6.06712">
        <ele>202.80000305176</ele>
        <time>2016-06-08T12:04:47Z</time>
      </trkpt>
      <trkpt lat="43.41218" lon="6.06714">
        <ele>202.19999694824</ele>
        <time>2016-06-08T12:04:50Z</time>
      </trkpt>
      <trkpt lat="43.41214" lon="6.06714">
        <ele>202</ele>
        <time>2016-06-08T12:04:51Z</time>
      </trkpt>
      <trkpt lat="43.4121" lon="6.06714">
        <ele>201.80000305176</ele>
        <time>2016-06-08T12:04:52Z</time>
      </trkpt>
      <trkpt lat="43.41206" lon="6.06715">
        <ele>201.60000610352</ele>
        <time>2016-06-08T12:04:53Z</time>
      </trkpt>
      <trkpt lat="43.41191" lon="6.06716">
        <ele>201.80000305176</ele>
        <time>2016-06-08T12:04:56Z</time>
      </trkpt>
      <trkpt lat="43.41162" lon="6.06714">
        <ele>201.60000610352</ele>
        <time>2016-06-08T12:05:02Z</time>
      </trkpt>
      <trkpt lat="43.41146" lon="6.06717">
        <ele>201.19999694824</ele>
        <time>2016-06-08T12:05:05Z</time>
      </trkpt>
      <trkpt lat="43.41136" lon="6.0672">
        <ele>201</ele>
        <time>2016-06-08T12:05:07Z</time>
      </trkpt>
      <trkpt lat="43.41132" lon="6.06721">
        <ele>201</ele>
        <time>2016-06-08T12:05:08Z</time>
      </trkpt>
      <trkpt lat="43.41113" lon="6.0673">
        <ele>200.60000610352</ele>
        <time>2016-06-08T12:05:13Z</time>
      </trkpt>
      <trkpt lat="43.41089" lon="6.06746">
        <ele>200.39999389648</ele>
        <time>2016-06-08T12:05:20Z</time>
      </trkpt>
      <trkpt lat="43.41088" lon="6.06748">
        <ele>200</ele>
        <time>2016-06-08T12:05:24Z</time>
      </trkpt>
      <trkpt lat="43.41088" lon="6.06748">
        <ele>200</ele>
        <time>2016-06-08T12:05:25Z</time>
      </trkpt>
      <trkpt lat="43.41087" lon="6.06748">
        <ele>199.80000305176</ele>
        <time>2016-06-08T12:05:42Z</time>
      </trkpt>
      <trkpt lat="43.41087" lon="6.06748">
        <ele>199.60000610352</ele>
        <time>2016-06-08T12:05:54Z</time>
      </trkpt>
      <trkpt lat="43.41084" lon="6.06753">
        <ele>199.60000610352</ele>
        <time>2016-06-08T12:06:03Z</time>
      </trkpt>
      <trkpt lat="43.41081" lon="6.06768">
        <ele>199.60000610352</ele>
        <time>2016-06-08T12:06:08Z</time>
      </trkpt>
      <trkpt lat="43.41077" lon="6.06797">
        <ele>199.80000305176</ele>
        <time>2016-06-08T12:06:14Z</time>
      </trkpt>
      <trkpt lat="43.4107" lon="6.06823">
        <ele>200.19999694824</ele>
        <time>2016-06-08T12:06:19Z</time>
      </trkpt>
      <trkpt lat="43.41066" lon="6.06847">
        <ele>200.39999389648</ele>
        <time>2016-06-08T12:06:22Z</time>
      </trkpt>
      <trkpt lat="43.41066" lon="6.06862">
        <ele>200.39999389648</ele>
        <time>2016-06-08T12:06:24Z</time>
      </trkpt>
      <trkpt lat="43.41064" lon="6.06869">
        <ele>201</ele>
        <time>2016-06-08T12:06:26Z</time>
      </trkpt>
      <trkpt lat="43.41062" lon="6.0687">
        <ele>201.19999694824</ele>
        <time>2016-06-08T12:06:27Z</time>
      </trkpt>
      <trkpt lat="43.41059" lon="6.06871">
        <ele>201.39999389648</ele>
        <time>2016-06-08T12:06:28Z</time>
      </trkpt>
      <trkpt lat="43.41047" lon="6.06875">
        <ele>201.80000305176</ele>
        <time>2016-06-08T12:06:31Z</time>
      </trkpt>
      <trkpt lat="43.41024" lon="6.06886">
        <ele>200.39999389648</ele>
        <time>2016-06-08T12:06:36Z</time>
      </trkpt>
      <trkpt lat="43.41021" lon="6.06887">
        <ele>200.19999694824</ele>
        <time>2016-06-08T12:06:37Z</time>
      </trkpt>
      <trkpt lat="43.41019" lon="6.06887">
        <ele>200</ele>
        <time>2016-06-08T12:06:39Z</time>
      </trkpt>
      <trkpt lat="43.41019" lon="6.06888">
        <ele>199.80000305176</ele>
        <time>2016-06-08T12:06:50Z</time>
      </trkpt>
      <trkpt lat="43.4102" lon="6.06888">
        <ele>199.39999389648</ele>
        <time>2016-06-08T12:07:00Z</time>
      </trkpt>
      <trkpt lat="43.41019" lon="6.06889">
        <ele>199.60000610352</ele>
        <time>2016-06-08T12:07:14Z</time>
      </trkpt>
      <trkpt lat="43.41018" lon="6.06893">
        <ele>200.39999389648</ele>
        <time>2016-06-08T12:07:19Z</time>
      </trkpt>
      <trkpt lat="43.41017" lon="6.06895">
        <ele>200.39999389648</ele>
        <time>2016-06-08T12:07:20Z</time>
      </trkpt>
      <trkpt lat="43.41012" lon="6.06906">
        <ele>200.39999389648</ele>
        <time>2016-06-08T12:07:24Z</time>
      </trkpt>
      <trkpt lat="43.40998" lon="6.06917">
        <ele>200.39999389648</ele>
        <time>2016-06-08T12:07:28Z</time>
      </trkpt>
      <trkpt lat="43.40966" lon="6.06934">
        <ele>200.39999389648</ele>
        <time>2016-06-08T12:07:35Z</time>
      </trkpt>
      <trkpt lat="43.40933" lon="6.06945">
        <ele>200.39999389648</ele>
        <time>2016-06-08T12:07:42Z</time>
      </trkpt>
      <trkpt lat="43.40916" lon="6.06952">
        <ele>200.39999389648</ele>
        <time>2016-06-08T12:07:46Z</time>
      </trkpt>
      <trkpt lat="43.40912" lon="6.06956">
        <ele>200.39999389648</ele>
        <time>2016-06-08T12:07:47Z</time>
      </trkpt>
      <trkpt lat="43.40905" lon="6.06973">
        <ele>200.80000305176</ele>
        <time>2016-06-08T12:07:50Z</time>
      </trkpt>
      <trkpt lat="43.40902" lon="6.06985">
        <ele>200.80000305176</ele>
        <time>2016-06-08T12:07:52Z</time>
      </trkpt>
      <trkpt lat="43.40895" lon="6.06995">
        <ele>201</ele>
        <time>2016-06-08T12:07:54Z</time>
      </trkpt>
      <trkpt lat="43.40887" lon="6.06998">
        <ele>200.80000305176</ele>
        <time>2016-06-08T12:07:56Z</time>
      </trkpt>
      <trkpt lat="43.40877" lon="6.07001">
        <ele>200.80000305176</ele>
        <time>2016-06-08T12:07:58Z</time>
      </trkpt>
      <trkpt lat="43.40851" lon="6.07009">
        <ele>200.60000610352</ele>
        <time>2016-06-08T12:08:04Z</time>
      </trkpt>
      <trkpt lat="43.40847" lon="6.0701">
        <ele>200.80000305176</ele>
        <time>2016-06-08T12:08:07Z</time>
      </trkpt>
      <trkpt lat="43.40844" lon="6.07011">
        <ele>200.60000610352</ele>
        <time>2016-06-08T12:08:13Z</time>
      </trkpt>
      <trkpt lat="43.40842" lon="6.07025">
        <ele>200.60000610352</ele>
        <time>2016-06-08T12:08:17Z</time>
      </trkpt>
      <trkpt lat="43.40844" lon="6.07037">
        <ele>200.60000610352</ele>
        <time>2016-06-08T12:08:19Z</time>
      </trkpt>
      <trkpt lat="43.40847" lon="6.07063">
        <ele>200.80000305176</ele>
        <time>2016-06-08T12:08:23Z</time>
      </trkpt>
      <trkpt lat="43.40845" lon="6.07108">
        <ele>201</ele>
        <time>2016-06-08T12:08:29Z</time>
      </trkpt>
      <trkpt lat="43.40836" lon="6.07151">
        <ele>201</ele>
        <time>2016-06-08T12:08:35Z</time>
      </trkpt>
      <trkpt lat="43.40818" lon="6.07191">
        <ele>201.39999389648</ele>
        <time>2016-06-08T12:08:41Z</time>
      </trkpt>
      <trkpt lat="43.40804" lon="6.07215">
        <ele>201.39999389648</ele>
        <time>2016-06-08T12:08:45Z</time>
      </trkpt>
      <trkpt lat="43.4079" lon="6.0723">
        <ele>201.39999389648</ele>
        <time>2016-06-08T12:08:48Z</time>
      </trkpt>
      <trkpt lat="43.40759" lon="6.07253">
        <ele>201.39999389648</ele>
        <time>2016-06-08T12:08:54Z</time>
      </trkpt>
      <trkpt lat="43.40736" lon="6.07266">
        <ele>201.80000305176</ele>
        <time>2016-06-08T12:08:58Z</time>
      </trkpt>
      <trkpt lat="43.40725" lon="6.07272">
        <ele>202.19999694824</ele>
        <time>2016-06-08T12:09:00Z</time>
      </trkpt>
      <trkpt lat="43.4072" lon="6.07275">
        <ele>202.39999389648</ele>
        <time>2016-06-08T12:09:01Z</time>
      </trkpt>
      <trkpt lat="43.40685" lon="6.07295">
        <ele>203</ele>
        <time>2016-06-08T12:09:08Z</time>
      </trkpt>
      <trkpt lat="43.40649" lon="6.07315">
        <ele>203.80000305176</ele>
        <time>2016-06-08T12:09:16Z</time>
      </trkpt>
      <trkpt lat="43.40645" lon="6.07317">
        <ele>204</ele>
        <time>2016-06-08T12:09:17Z</time>
      </trkpt>
      <trkpt lat="43.40626" lon="6.07322">
        <ele>204.60000610352</ele>
        <time>2016-06-08T12:09:22Z</time>
      </trkpt>
      <trkpt lat="43.40613" lon="6.07308">
        <ele>205.39999389648</ele>
        <time>2016-06-08T12:09:27Z</time>
      </trkpt>
      <trkpt lat="43.40606" lon="6.07298">
        <ele>205.60000610352</ele>
        <time>2016-06-08T12:09:31Z</time>
      </trkpt>
      <trkpt lat="43.40603" lon="6.07296">
        <ele>205.60000610352</ele>
        <time>2016-06-08T12:09:33Z</time>
      </trkpt>
      <trkpt lat="43.406" lon="6.07292">
        <ele>205.60000610352</ele>
        <time>2016-06-08T12:09:37Z</time>
      </trkpt>
      <trkpt lat="43.406" lon="6.07292">
        <ele>205.39999389648</ele>
        <time>2016-06-08T12:09:40Z</time>
      </trkpt>
      <trkpt lat="43.406" lon="6.07292">
        <ele>205.60000610352</ele>
        <time>2016-06-08T12:09:45Z</time>
      </trkpt>
      <trkpt lat="43.406" lon="6.07292">
        <ele>205.80000305176</ele>
        <time>2016-06-08T12:09:53Z</time>
      </trkpt>
      <trkpt lat="43.406" lon="6.07292">
        <ele>205.80000305176</ele>
        <time>2016-06-08T12:09:56Z</time>
      </trkpt>
      <trkpt lat="43.40599" lon="6.07291">
        <ele>205.80000305176</ele>
        <time>2016-06-08T12:09:59Z</time>
      </trkpt>
      <trkpt lat="43.40593" lon="6.07288">
        <ele>206</ele>
        <time>2016-06-08T12:10:02Z</time>
      </trkpt>
      <trkpt lat="43.4059" lon="6.07289">
        <ele>206</ele>
        <time>2016-06-08T12:10:03Z</time>
      </trkpt>
      <trkpt lat="43.40588" lon="6.07291">
        <ele>206</ele>
        <time>2016-06-08T12:10:04Z</time>
      </trkpt>
      <trkpt lat="43.40583" lon="6.07296">
        <ele>206.19999694824</ele>
        <time>2016-06-08T12:10:06Z</time>
      </trkpt>
      <trkpt lat="43.4058" lon="6.07299">
        <ele>206.19999694824</ele>
        <time>2016-06-08T12:10:07Z</time>
      </trkpt>
      <trkpt lat="43.40565" lon="6.073">
        <ele>206.80000305176</ele>
        <time>2016-06-08T12:10:11Z</time>
      </trkpt>
      <trkpt lat="43.40544" lon="6.07296">
        <ele>206.80000305176</ele>
        <time>2016-06-08T12:10:17Z</time>
      </trkpt>
      <trkpt lat="43.40533" lon="6.07293">
        <ele>207.19999694824</ele>
        <time>2016-06-08T12:10:20Z</time>
      </trkpt>
      <trkpt lat="43.40529" lon="6.07292">
        <ele>207.39999389648</ele>
        <time>2016-06-08T12:10:21Z</time>
      </trkpt>
      <trkpt lat="43.40499" lon="6.07278">
        <ele>207.80000305176</ele>
        <time>2016-06-08T12:10:29Z</time>
      </trkpt>
      <trkpt lat="43.4048" lon="6.07276">
        <ele>208.19999694824</ele>
        <time>2016-06-08T12:10:34Z</time>
      </trkpt>
      <trkpt lat="43.40472" lon="6.07276">
        <ele>208.39999389648</ele>
        <time>2016-06-08T12:10:36Z</time>
      </trkpt>
      <trkpt lat="43.40454" lon="6.07277">
        <ele>209</ele>
        <time>2016-06-08T12:10:41Z</time>
      </trkpt>
      <trkpt lat="43.40444" lon="6.07277">
        <ele>209.39999389648</ele>
        <time>2016-06-08T12:10:44Z</time>
      </trkpt>
      <trkpt lat="43.40423" lon="6.07279">
        <ele>210.19999694824</ele>
        <time>2016-06-08T12:10:50Z</time>
      </trkpt>
      <trkpt lat="43.40414" lon="6.07278">
        <ele>210.80000305176</ele>
        <time>2016-06-08T12:10:53Z</time>
      </trkpt>
      <trkpt lat="43.40405" lon="6.07273">
        <ele>211.19999694824</ele>
        <time>2016-06-08T12:10:56Z</time>
      </trkpt>
      <trkpt lat="43.404" lon="6.07267">
        <ele>211.60000610352</ele>
        <time>2016-06-08T12:10:58Z</time>
      </trkpt>
      <trkpt lat="43.40389" lon="6.07252">
        <ele>212</ele>
        <time>2016-06-08T12:11:02Z</time>
      </trkpt>
      <trkpt lat="43.40372" lon="6.07244">
        <ele>212.19999694824</ele>
        <time>2016-06-08T12:11:07Z</time>
      </trkpt>
      <trkpt lat="43.40353" lon="6.0723">
        <ele>212.80000305176</ele>
        <time>2016-06-08T12:11:13Z</time>
      </trkpt>
      <trkpt lat="43.40337" lon="6.07223">
        <ele>213.39999389648</ele>
        <time>2016-06-08T12:11:18Z</time>
      </trkpt>
      <trkpt lat="43.4033" lon="6.0722">
        <ele>213.80000305176</ele>
        <time>2016-06-08T12:11:20Z</time>
      </trkpt>
      <trkpt lat="43.40304" lon="6.07208">
        <ele>214.60000610352</ele>
        <time>2016-06-08T12:11:28Z</time>
      </trkpt>
      <trkpt lat="43.40284" lon="6.07185">
        <ele>215</ele>
        <time>2016-06-08T12:11:35Z</time>
      </trkpt>
      <trkpt lat="43.40272" lon="6.07171">
        <ele>214.80000305176</ele>
        <time>2016-06-08T12:11:39Z</time>
      </trkpt>
      <trkpt lat="43.40264" lon="6.07167">
        <ele>214.80000305176</ele>
        <time>2016-06-08T12:11:41Z</time>
      </trkpt>
      <trkpt lat="43.40252" lon="6.07167">
        <ele>214.80000305176</ele>
        <time>2016-06-08T12:11:44Z</time>
      </trkpt>
      <trkpt lat="43.40244" lon="6.07169">
        <ele>215.19999694824</ele>
        <time>2016-06-08T12:11:46Z</time>
      </trkpt>
      <trkpt lat="43.4023" lon="6.07171">
        <ele>215.80000305176</ele>
        <time>2016-06-08T12:11:50Z</time>
      </trkpt>
      <trkpt lat="43.40216" lon="6.07176">
        <ele>216.60000610352</ele>
        <time>2016-06-08T12:11:54Z</time>
      </trkpt>
      <trkpt lat="43.40213" lon="6.07177">
        <ele>216.80000305176</ele>
        <time>2016-06-08T12:11:55Z</time>
      </trkpt>
      <trkpt lat="43.40204" lon="6.07182">
        <ele>217.39999389648</ele>
        <time>2016-06-08T12:11:58Z</time>
      </trkpt>
      <trkpt lat="43.40201" lon="6.07184">
        <ele>218</ele>
        <time>2016-06-08T12:11:59Z</time>
      </trkpt>
      <trkpt lat="43.40188" lon="6.07191">
        <ele>219</ele>
        <time>2016-06-08T12:12:03Z</time>
      </trkpt>
      <trkpt lat="43.40179" lon="6.07196">
        <ele>220</ele>
        <time>2016-06-08T12:12:06Z</time>
      </trkpt>
      <trkpt lat="43.40169" lon="6.07204">
        <ele>221.19999694824</ele>
        <time>2016-06-08T12:12:10Z</time>
      </trkpt>
      <trkpt lat="43.40162" lon="6.07211">
        <ele>222.19999694824</ele>
        <time>2016-06-08T12:12:13Z</time>
      </trkpt>
      <trkpt lat="43.4016" lon="6.07213">
        <ele>222.19999694824</ele>
        <time>2016-06-08T12:12:14Z</time>
      </trkpt>
      <trkpt lat="43.40147" lon="6.07228">
        <ele>223.60000610352</ele>
        <time>2016-06-08T12:12:20Z</time>
      </trkpt>
      <trkpt lat="43.40146" lon="6.07231">
        <ele>223.60000610352</ele>
        <time>2016-06-08T12:12:21Z</time>
      </trkpt>
      <trkpt lat="43.40144" lon="6.07246">
        <ele>223.80000305176</ele>
        <time>2016-06-08T12:12:26Z</time>
      </trkpt>
      <trkpt lat="43.40144" lon="6.07249">
        <ele>223.80000305176</ele>
        <time>2016-06-08T12:12:27Z</time>
      </trkpt>
      <trkpt lat="43.40145" lon="6.07277">
        <ele>224.19999694824</ele>
        <time>2016-06-08T12:12:34Z</time>
      </trkpt>
      <trkpt lat="43.40144" lon="6.07302">
        <ele>224.19999694824</ele>
        <time>2016-06-08T12:12:40Z</time>
      </trkpt>
      <trkpt lat="43.40144" lon="6.07311">
        <ele>224.19999694824</ele>
        <time>2016-06-08T12:12:42Z</time>
      </trkpt>
      <trkpt lat="43.4014" lon="6.07347">
        <ele>224.60000610352</ele>
        <time>2016-06-08T12:12:50Z</time>
      </trkpt>
      <trkpt lat="43.40136" lon="6.07386">
        <ele>225.39999389648</ele>
        <time>2016-06-08T12:12:59Z</time>
      </trkpt>
      <trkpt lat="43.40139" lon="6.07414">
        <ele>225.80000305176</ele>
        <time>2016-06-08T12:13:05Z</time>
      </trkpt>
      <trkpt lat="43.4014" lon="6.07419">
        <ele>225.60000610352</ele>
        <time>2016-06-08T12:13:06Z</time>
      </trkpt>
      <trkpt lat="43.40144" lon="6.07449">
        <ele>226</ele>
        <time>2016-06-08T12:13:13Z</time>
      </trkpt>
      <trkpt lat="43.40141" lon="6.07483">
        <ele>226.80000305176</ele>
        <time>2016-06-08T12:13:21Z</time>
      </trkpt>
      <trkpt lat="43.40137" lon="6.07501">
        <ele>227.80000305176</ele>
        <time>2016-06-08T12:13:26Z</time>
      </trkpt>
      <trkpt lat="43.40136" lon="6.07504">
        <ele>228</ele>
        <time>2016-06-08T12:13:27Z</time>
      </trkpt>
      <trkpt lat="43.40131" lon="6.0752">
        <ele>229.19999694824</ele>
        <time>2016-06-08T12:13:32Z</time>
      </trkpt>
      <trkpt lat="43.40129" lon="6.07527">
        <ele>229.60000610352</ele>
        <time>2016-06-08T12:13:34Z</time>
      </trkpt>
      <trkpt lat="43.40119" lon="6.07547">
        <ele>230.19999694824</ele>
        <time>2016-06-08T12:13:40Z</time>
      </trkpt>
      <trkpt lat="43.40117" lon="6.07551">
        <ele>230.19999694824</ele>
        <time>2016-06-08T12:13:41Z</time>
      </trkpt>
      <trkpt lat="43.40094" lon="6.07589">
        <ele>231</ele>
        <time>2016-06-08T12:13:54Z</time>
      </trkpt>
      <trkpt lat="43.40093" lon="6.07593">
        <ele>231</ele>
        <time>2016-06-08T12:13:55Z</time>
      </trkpt>
      <trkpt lat="43.40092" lon="6.07596">
        <ele>231</ele>
        <time>2016-06-08T12:13:56Z</time>
      </trkpt>
      <trkpt lat="43.40089" lon="6.07615">
        <ele>231.80000305176</ele>
        <time>2016-06-08T12:14:01Z</time>
      </trkpt>
      <trkpt lat="43.40089" lon="6.07641">
        <ele>232.39999389648</ele>
        <time>2016-06-08T12:14:08Z</time>
      </trkpt>
      <trkpt lat="43.40088" lon="6.07644">
        <ele>232.60000610352</ele>
        <time>2016-06-08T12:14:09Z</time>
      </trkpt>
      <trkpt lat="43.40086" lon="6.07658">
        <ele>233.60000610352</ele>
        <time>2016-06-08T12:14:13Z</time>
      </trkpt>
      <trkpt lat="43.40081" lon="6.07671">
        <ele>234.60000610352</ele>
        <time>2016-06-08T12:14:17Z</time>
      </trkpt>
      <trkpt lat="43.4008" lon="6.07674">
        <ele>235</ele>
        <time>2016-06-08T12:14:18Z</time>
      </trkpt>
      <trkpt lat="43.4007" lon="6.07694">
        <ele>236.80000305176</ele>
        <time>2016-06-08T12:14:25Z</time>
      </trkpt>
      <trkpt lat="43.40065" lon="6.07702">
        <ele>237.19999694824</ele>
        <time>2016-06-08T12:14:28Z</time>
      </trkpt>
      <trkpt lat="43.40037" lon="6.0774">
        <ele>238</ele>
        <time>2016-06-08T12:14:42Z</time>
      </trkpt>
      <trkpt lat="43.40034" lon="6.07747">
        <ele>238</ele>
        <time>2016-06-08T12:14:44Z</time>
      </trkpt>
      <trkpt lat="43.40027" lon="6.07768">
        <ele>238</ele>
        <time>2016-06-08T12:14:50Z</time>
      </trkpt>
      <trkpt lat="43.40023" lon="6.0778">
        <ele>238.19999694824</ele>
        <time>2016-06-08T12:14:53Z</time>
      </trkpt>
      <trkpt lat="43.40012" lon="6.07816">
        <ele>238.39999389648</ele>
        <time>2016-06-08T12:15:02Z</time>
      </trkpt>
      <trkpt lat="43.40006" lon="6.0784">
        <ele>239</ele>
        <time>2016-06-08T12:15:08Z</time>
      </trkpt>
      <trkpt lat="43.40005" lon="6.07844">
        <ele>239</ele>
        <time>2016-06-08T12:15:09Z</time>
      </trkpt>
      <trkpt lat="43.39999" lon="6.07866">
        <ele>239.19999694824</ele>
        <time>2016-06-08T12:15:14Z</time>
      </trkpt>
      <trkpt lat="43.39996" lon="6.07874">
        <ele>239.19999694824</ele>
        <time>2016-06-08T12:15:16Z</time>
      </trkpt>
      <trkpt lat="43.3999" lon="6.07898">
        <ele>239.80000305176</ele>
        <time>2016-06-08T12:15:22Z</time>
      </trkpt>
      <trkpt lat="43.39988" lon="6.07911">
        <ele>240</ele>
        <time>2016-06-08T12:15:25Z</time>
      </trkpt>
      <trkpt lat="43.39984" lon="6.07928">
        <ele>240.80000305176</ele>
        <time>2016-06-08T12:15:29Z</time>
      </trkpt>
      <trkpt lat="43.39982" lon="6.07936">
        <ele>241.19999694824</ele>
        <time>2016-06-08T12:15:31Z</time>
      </trkpt>
      <trkpt lat="43.39979" lon="6.07948">
        <ele>241.80000305176</ele>
        <time>2016-06-08T12:15:34Z</time>
      </trkpt>
      <trkpt lat="43.39977" lon="6.07955">
        <ele>242.19999694824</ele>
        <time>2016-06-08T12:15:36Z</time>
      </trkpt>
      <trkpt lat="43.39976" lon="6.07958">
        <ele>242.39999389648</ele>
        <time>2016-06-08T12:15:37Z</time>
      </trkpt>
      <trkpt lat="43.39972" lon="6.07971">
        <ele>243.19999694824</ele>
        <time>2016-06-08T12:15:42Z</time>
      </trkpt>
      <trkpt lat="43.39971" lon="6.07972">
        <ele>243.39999389648</ele>
        <time>2016-06-08T12:15:43Z</time>
      </trkpt>
      <trkpt lat="43.3997" lon="6.07975">
        <ele>243.80000305176</ele>
        <time>2016-06-08T12:15:48Z</time>
      </trkpt>
      <trkpt lat="43.3997" lon="6.07975">
        <ele>244</ele>
        <time>2016-06-08T12:15:52Z</time>
      </trkpt>
      <trkpt lat="43.3997" lon="6.07975">
        <ele>244</ele>
        <time>2016-06-08T12:15:57Z</time>
      </trkpt>
      <trkpt lat="43.3997" lon="6.07975">
        <ele>244.19999694824</ele>
        <time>2016-06-08T12:16:07Z</time>
      </trkpt>
      <trkpt lat="43.39971" lon="6.07976">
        <ele>244.19999694824</ele>
        <time>2016-06-08T12:16:18Z</time>
      </trkpt>
      <trkpt lat="43.3997" lon="6.07976">
        <ele>244.39999389648</ele>
        <time>2016-06-08T12:16:21Z</time>
      </trkpt>
      <trkpt lat="43.3997" lon="6.07976">
        <ele>244.39999389648</ele>
        <time>2016-06-08T12:16:29Z</time>
      </trkpt>
      <trkpt lat="43.39969" lon="6.07977">
        <ele>244.39999389648</ele>
        <time>2016-06-08T12:16:38Z</time>
      </trkpt>
      <trkpt lat="43.39967" lon="6.07978">
        <ele>244.39999389648</ele>
        <time>2016-06-08T12:16:40Z</time>
      </trkpt>
      <trkpt lat="43.39958" lon="6.07983">
        <ele>244.80000305176</ele>
        <time>2016-06-08T12:16:46Z</time>
      </trkpt>
      <trkpt lat="43.39946" lon="6.07989">
        <ele>245.39999389648</ele>
        <time>2016-06-08T12:16:51Z</time>
      </trkpt>
      <trkpt lat="43.39933" lon="6.07994">
        <ele>245.60000610352</ele>
        <time>2016-06-08T12:16:56Z</time>
      </trkpt>
      <trkpt lat="43.39918" lon="6.08004">
        <ele>245.80000305176</ele>
        <time>2016-06-08T12:17:01Z</time>
      </trkpt>
      <trkpt lat="43.39901" lon="6.08024">
        <ele>245.19999694824</ele>
        <time>2016-06-08T12:17:07Z</time>
      </trkpt>
      <trkpt lat="43.39885" lon="6.08028">
        <ele>245</ele>
        <time>2016-06-08T12:17:12Z</time>
      </trkpt>
      <trkpt lat="43.39867" lon="6.08019">
        <ele>244.60000610352</ele>
        <time>2016-06-08T12:17:17Z</time>
      </trkpt>
      <trkpt lat="43.39862" lon="6.08016">
        <ele>244.39999389648</ele>
        <time>2016-06-08T12:17:18Z</time>
      </trkpt>
      <trkpt lat="43.39841" lon="6.08">
        <ele>244</ele>
        <time>2016-06-08T12:17:24Z</time>
      </trkpt>
      <trkpt lat="43.39818" lon="6.07989">
        <ele>244.60000610352</ele>
        <time>2016-06-08T12:17:31Z</time>
      </trkpt>
      <trkpt lat="43.39794" lon="6.07981">
        <ele>244.39999389648</ele>
        <time>2016-06-08T12:17:38Z</time>
      </trkpt>
      <trkpt lat="43.39781" lon="6.07978">
        <ele>245.19999694824</ele>
        <time>2016-06-08T12:17:42Z</time>
      </trkpt>
      <trkpt lat="43.39776" lon="6.07975">
        <ele>245.60000610352</ele>
        <time>2016-06-08T12:17:44Z</time>
      </trkpt>
      <trkpt lat="43.39768" lon="6.07971">
        <ele>246</ele>
        <time>2016-06-08T12:17:47Z</time>
      </trkpt>
      <trkpt lat="43.39759" lon="6.07968">
        <ele>246.60000610352</ele>
        <time>2016-06-08T12:17:50Z</time>
      </trkpt>
      <trkpt lat="43.39747" lon="6.07963">
        <ele>247</ele>
        <time>2016-06-08T12:17:54Z</time>
      </trkpt>
      <trkpt lat="43.39742" lon="6.0796">
        <ele>247.19999694824</ele>
        <time>2016-06-08T12:17:56Z</time>
      </trkpt>
      <trkpt lat="43.39737" lon="6.07957">
        <ele>247.80000305176</ele>
        <time>2016-06-08T12:17:58Z</time>
      </trkpt>
      <trkpt lat="43.39727" lon="6.07949">
        <ele>248.19999694824</ele>
        <time>2016-06-08T12:18:02Z</time>
      </trkpt>
      <trkpt lat="43.39717" lon="6.07937">
        <ele>248.80000305176</ele>
        <time>2016-06-08T12:18:07Z</time>
      </trkpt>
      <trkpt lat="43.39709" lon="6.07927">
        <ele>250</ele>
        <time>2016-06-08T12:18:12Z</time>
      </trkpt>
      <trkpt lat="43.39703" lon="6.07917">
        <ele>251.19999694824</ele>
        <time>2016-06-08T12:18:17Z</time>
      </trkpt>
      <trkpt lat="43.39696" lon="6.07908">
        <ele>252.39999389648</ele>
        <time>2016-06-08T12:18:22Z</time>
      </trkpt>
      <trkpt lat="43.3969" lon="6.07902">
        <ele>253.60000610352</ele>
        <time>2016-06-08T12:18:26Z</time>
      </trkpt>
      <trkpt lat="43.39682" lon="6.07897">
        <ele>254.39999389648</ele>
        <time>2016-06-08T12:18:31Z</time>
      </trkpt>
      <trkpt lat="43.39669" lon="6.07894">
        <ele>255.60000610352</ele>
        <time>2016-06-08T12:18:38Z</time>
      </trkpt>
      <trkpt lat="43.39661" lon="6.07893">
        <ele>256</ele>
        <time>2016-06-08T12:18:42Z</time>
      </trkpt>
      <trkpt lat="43.39659" lon="6.07893">
        <ele>256</ele>
        <time>2016-06-08T12:18:43Z</time>
      </trkpt>
      <trkpt lat="43.39647" lon="6.07893">
        <ele>256.60000610352</ele>
        <time>2016-06-08T12:18:50Z</time>
      </trkpt>
      <trkpt lat="43.39633" lon="6.07895">
        <ele>256.79998779297</ele>
        <time>2016-06-08T12:18:56Z</time>
      </trkpt>
      <trkpt lat="43.39629" lon="6.07896">
        <ele>257</ele>
        <time>2016-06-08T12:18:58Z</time>
      </trkpt>
      <trkpt lat="43.39619" lon="6.079">
        <ele>257.60000610352</ele>
        <time>2016-06-08T12:19:03Z</time>
      </trkpt>
      <trkpt lat="43.39608" lon="6.07903">
        <ele>258</ele>
        <time>2016-06-08T12:19:08Z</time>
      </trkpt>
      <trkpt lat="43.39602" lon="6.07903">
        <ele>258.20001220703</ele>
        <time>2016-06-08T12:19:11Z</time>
      </trkpt>
      <trkpt lat="43.396" lon="6.07903">
        <ele>258.39999389648</ele>
        <time>2016-06-08T12:19:12Z</time>
      </trkpt>
      <trkpt lat="43.39595" lon="6.07903">
        <ele>259.20001220703</ele>
        <time>2016-06-08T12:19:15Z</time>
      </trkpt>
      <trkpt lat="43.3959" lon="6.07904">
        <ele>260.20001220703</ele>
        <time>2016-06-08T12:19:18Z</time>
      </trkpt>
      <trkpt lat="43.39589" lon="6.07904">
        <ele>260.60000610352</ele>
        <time>2016-06-08T12:19:19Z</time>
      </trkpt>
      <trkpt lat="43.39585" lon="6.07905">
        <ele>261</ele>
        <time>2016-06-08T12:19:22Z</time>
      </trkpt>
      <trkpt lat="43.39583" lon="6.07908">
        <ele>261</ele>
        <time>2016-06-08T12:19:24Z</time>
      </trkpt>
      <trkpt lat="43.39579" lon="6.07917">
        <ele>261.20001220703</ele>
        <time>2016-06-08T12:19:29Z</time>
      </trkpt>
      <trkpt lat="43.39577" lon="6.07921">
        <ele>261.20001220703</ele>
        <time>2016-06-08T12:19:31Z</time>
      </trkpt>
      <trkpt lat="43.39571" lon="6.07932">
        <ele>262.20001220703</ele>
        <time>2016-06-08T12:19:37Z</time>
      </trkpt>
      <trkpt lat="43.39571" lon="6.07932">
        <ele>262.20001220703</ele>
        <time>2016-06-08T12:19:38Z</time>
      </trkpt>
      <trkpt lat="43.39569" lon="6.07932">
        <ele>262.39999389648</ele>
        <time>2016-06-08T12:19:39Z</time>
      </trkpt>
      <trkpt lat="43.39561" lon="6.07933">
        <ele>263.39999389648</ele>
        <time>2016-06-08T12:19:45Z</time>
      </trkpt>
      <trkpt lat="43.39554" lon="6.07937">
        <ele>264.39999389648</ele>
        <time>2016-06-08T12:19:51Z</time>
      </trkpt>
      <trkpt lat="43.39548" lon="6.07941">
        <ele>265.39999389648</ele>
        <time>2016-06-08T12:19:55Z</time>
      </trkpt>
      <trkpt lat="43.39544" lon="6.07943">
        <ele>265.79998779297</ele>
        <time>2016-06-08T12:19:58Z</time>
      </trkpt>
      <trkpt lat="43.39539" lon="6.07946">
        <ele>266.39999389648</ele>
        <time>2016-06-08T12:20:02Z</time>
      </trkpt>
      <trkpt lat="43.39531" lon="6.0795">
        <ele>267</ele>
        <time>2016-06-08T12:20:08Z</time>
      </trkpt>
      <trkpt lat="43.39521" lon="6.07953">
        <ele>268</ele>
        <time>2016-06-08T12:20:14Z</time>
      </trkpt>
      <trkpt lat="43.39508" lon="6.07957">
        <ele>268.79998779297</ele>
        <time>2016-06-08T12:20:21Z</time>
      </trkpt>
      <trkpt lat="43.39506" lon="6.07958">
        <ele>269</ele>
        <time>2016-06-08T12:20:23Z</time>
      </trkpt>
      <trkpt lat="43.395" lon="6.07961">
        <ele>269.60000610352</ele>
        <time>2016-06-08T12:20:28Z</time>
      </trkpt>
      <trkpt lat="43.39489" lon="6.07966">
        <ele>270.20001220703</ele>
        <time>2016-06-08T12:20:34Z</time>
      </trkpt>
      <trkpt lat="43.39477" lon="6.07972">
        <ele>270.60000610352</ele>
        <time>2016-06-08T12:20:42Z</time>
      </trkpt>
      <trkpt lat="43.39465" lon="6.07977">
        <ele>271</ele>
        <time>2016-06-08T12:20:49Z</time>
      </trkpt>
      <trkpt lat="43.39453" lon="6.07981">
        <ele>271.39999389648</ele>
        <time>2016-06-08T12:20:55Z</time>
      </trkpt>
      <trkpt lat="43.39444" lon="6.07984">
        <ele>271.79998779297</ele>
        <time>2016-06-08T12:21:00Z</time>
      </trkpt>
      <trkpt lat="43.39431" lon="6.0799">
        <ele>272.39999389648</ele>
        <time>2016-06-08T12:21:08Z</time>
      </trkpt>
      <trkpt lat="43.39421" lon="6.07994">
        <ele>273.20001220703</ele>
        <time>2016-06-08T12:21:13Z</time>
      </trkpt>
      <trkpt lat="43.39406" lon="6.08001">
        <ele>274.20001220703</ele>
        <time>2016-06-08T12:21:21Z</time>
      </trkpt>
      <trkpt lat="43.39403" lon="6.08003">
        <ele>274.60000610352</ele>
        <time>2016-06-08T12:21:23Z</time>
      </trkpt>
      <trkpt lat="43.39397" lon="6.08006">
        <ele>275.79998779297</ele>
        <time>2016-06-08T12:21:28Z</time>
      </trkpt>
      <trkpt lat="43.39392" lon="6.08008">
        <ele>276.39999389648</ele>
        <time>2016-06-08T12:21:35Z</time>
      </trkpt>
      <trkpt lat="43.39393" lon="6.08008">
        <ele>276.39999389648</ele>
        <time>2016-06-08T12:21:39Z</time>
      </trkpt>
      <trkpt lat="43.39393" lon="6.08008">
        <ele>276.39999389648</ele>
        <time>2016-06-08T12:21:49Z</time>
      </trkpt>
      <trkpt lat="43.39393" lon="6.08009">
        <ele>276.60000610352</ele>
        <time>2016-06-08T12:22:20Z</time>
      </trkpt>
      <trkpt lat="43.39393" lon="6.08009">
        <ele>276.60000610352</ele>
        <time>2016-06-08T12:22:26Z</time>
      </trkpt>
      <trkpt lat="43.39393" lon="6.08009">
        <ele>276.60000610352</ele>
        <time>2016-06-08T12:22:35Z</time>
      </trkpt>
      <trkpt lat="43.39391" lon="6.08011">
        <ele>276.60000610352</ele>
        <time>2016-06-08T12:22:39Z</time>
      </trkpt>
      <trkpt lat="43.39389" lon="6.08016">
        <ele>277</ele>
        <time>2016-06-08T12:22:41Z</time>
      </trkpt>
      <trkpt lat="43.39389" lon="6.08016">
        <ele>277.20001220703</ele>
        <time>2016-06-08T12:22:42Z</time>
      </trkpt>
      <trkpt lat="43.39382" lon="6.08028">
        <ele>277.79998779297</ele>
        <time>2016-06-08T12:22:47Z</time>
      </trkpt>
      <trkpt lat="43.39381" lon="6.08032">
        <ele>278.20001220703</ele>
        <time>2016-06-08T12:22:49Z</time>
      </trkpt>
      <trkpt lat="43.39376" lon="6.08037">
        <ele>278.79998779297</ele>
        <time>2016-06-08T12:22:54Z</time>
      </trkpt>
      <trkpt lat="43.3937" lon="6.08044">
        <ele>279.39999389648</ele>
        <time>2016-06-08T12:22:58Z</time>
      </trkpt>
      <trkpt lat="43.39364" lon="6.08052">
        <ele>279.79998779297</ele>
        <time>2016-06-08T12:23:02Z</time>
      </trkpt>
      <trkpt lat="43.39358" lon="6.0806">
        <ele>280</ele>
        <time>2016-06-08T12:23:05Z</time>
      </trkpt>
      <trkpt lat="43.39353" lon="6.08067">
        <ele>280</ele>
        <time>2016-06-08T12:23:09Z</time>
      </trkpt>
      <trkpt lat="43.39349" lon="6.08074">
        <ele>280.20001220703</ele>
        <time>2016-06-08T12:23:13Z</time>
      </trkpt>
      <trkpt lat="43.39347" lon="6.08078">
        <ele>280.39999389648</ele>
        <time>2016-06-08T12:23:15Z</time>
      </trkpt>
      <trkpt lat="43.39344" lon="6.08083">
        <ele>281</ele>
        <time>2016-06-08T12:23:17Z</time>
      </trkpt>
      <trkpt lat="43.3934" lon="6.08089">
        <ele>282</ele>
        <time>2016-06-08T12:23:21Z</time>
      </trkpt>
      <trkpt lat="43.39335" lon="6.08097">
        <ele>282.79998779297</ele>
        <time>2016-06-08T12:23:25Z</time>
      </trkpt>
      <trkpt lat="43.39333" lon="6.08099">
        <ele>283</ele>
        <time>2016-06-08T12:23:26Z</time>
      </trkpt>
      <trkpt lat="43.39327" lon="6.08107">
        <ele>283.39999389648</ele>
        <time>2016-06-08T12:23:32Z</time>
      </trkpt>
      <trkpt lat="43.39326" lon="6.08108">
        <ele>283.39999389648</ele>
        <time>2016-06-08T12:23:33Z</time>
      </trkpt>
      <trkpt lat="43.39322" lon="6.08118">
        <ele>284</ele>
        <time>2016-06-08T12:23:38Z</time>
      </trkpt>
      <trkpt lat="43.3932" lon="6.08121">
        <ele>284</ele>
        <time>2016-06-08T12:23:39Z</time>
      </trkpt>
      <trkpt lat="43.39316" lon="6.08132">
        <ele>285</ele>
        <time>2016-06-08T12:23:46Z</time>
      </trkpt>
      <trkpt lat="43.39315" lon="6.08133">
        <ele>285.39999389648</ele>
        <time>2016-06-08T12:23:47Z</time>
      </trkpt>
      <trkpt lat="43.39315" lon="6.08134">
        <ele>285.39999389648</ele>
        <time>2016-06-08T12:23:48Z</time>
      </trkpt>
      <trkpt lat="43.3931" lon="6.08148">
        <ele>286.39999389648</ele>
        <time>2016-06-08T12:23:54Z</time>
      </trkpt>
      <trkpt lat="43.39306" lon="6.08161">
        <ele>287.39999389648</ele>
        <time>2016-06-08T12:24:00Z</time>
      </trkpt>
      <trkpt lat="43.39306" lon="6.08164">
        <ele>287.39999389648</ele>
        <time>2016-06-08T12:24:01Z</time>
      </trkpt>
      <trkpt lat="43.39304" lon="6.08168">
        <ele>287.39999389648</ele>
        <time>2016-06-08T12:24:04Z</time>
      </trkpt>
      <trkpt lat="43.393" lon="6.08178">
        <ele>288.60000610352</ele>
        <time>2016-06-08T12:24:09Z</time>
      </trkpt>
      <trkpt lat="43.39291" lon="6.08199">
        <ele>289.39999389648</ele>
        <time>2016-06-08T12:24:20Z</time>
      </trkpt>
      <trkpt lat="43.39291" lon="6.08208">
        <ele>289.79998779297</ele>
        <time>2016-06-08T12:24:23Z</time>
      </trkpt>
      <trkpt lat="43.3929" lon="6.08216">
        <ele>290.20001220703</ele>
        <time>2016-06-08T12:24:27Z</time>
      </trkpt>
      <trkpt lat="43.39286" lon="6.0823">
        <ele>291</ele>
        <time>2016-06-08T12:24:34Z</time>
      </trkpt>
      <trkpt lat="43.39285" lon="6.08234">
        <ele>291</ele>
        <time>2016-06-08T12:24:35Z</time>
      </trkpt>
      <trkpt lat="43.39278" lon="6.0825">
        <ele>291.39999389648</ele>
        <time>2016-06-08T12:24:44Z</time>
      </trkpt>
      <trkpt lat="43.39276" lon="6.08254">
        <ele>292</ele>
        <time>2016-06-08T12:24:46Z</time>
      </trkpt>
      <trkpt lat="43.39273" lon="6.08261">
        <ele>292.39999389648</ele>
        <time>2016-06-08T12:24:49Z</time>
      </trkpt>
      <trkpt lat="43.3927" lon="6.08267">
        <ele>293.20001220703</ele>
        <time>2016-06-08T12:24:53Z</time>
      </trkpt>
      <trkpt lat="43.39266" lon="6.08276">
        <ele>293.60000610352</ele>
        <time>2016-06-08T12:24:59Z</time>
      </trkpt>
      <trkpt lat="43.39264" lon="6.08281">
        <ele>294.39999389648</ele>
        <time>2016-06-08T12:25:04Z</time>
      </trkpt>
      <trkpt lat="43.39262" lon="6.08281">
        <ele>294.60000610352</ele>
        <time>2016-06-08T12:25:06Z</time>
      </trkpt>
      <trkpt lat="43.39263" lon="6.08284">
        <ele>294.79998779297</ele>
        <time>2016-06-08T12:25:16Z</time>
      </trkpt>
      <trkpt lat="43.39263" lon="6.08285">
        <ele>294.39999389648</ele>
        <time>2016-06-08T12:25:19Z</time>
      </trkpt>
      <trkpt lat="43.39263" lon="6.08285">
        <ele>294.39999389648</ele>
        <time>2016-06-08T12:25:26Z</time>
      </trkpt>
      <trkpt lat="43.39262" lon="6.08286">
        <ele>294.39999389648</ele>
        <time>2016-06-08T12:25:27Z</time>
      </trkpt>
      <trkpt lat="43.39262" lon="6.08286">
        <ele>294.39999389648</ele>
        <time>2016-06-08T12:25:28Z</time>
      </trkpt>
      <trkpt lat="43.3926" lon="6.08289">
        <ele>294.60000610352</ele>
        <time>2016-06-08T12:25:31Z</time>
      </trkpt>
      <trkpt lat="43.39259" lon="6.08293">
        <ele>294.79998779297</ele>
        <time>2016-06-08T12:25:33Z</time>
      </trkpt>
      <trkpt lat="43.39258" lon="6.08297">
        <ele>295.39999389648</ele>
        <time>2016-06-08T12:25:36Z</time>
      </trkpt>
      <trkpt lat="43.39254" lon="6.0831">
        <ele>296.20001220703</ele>
        <time>2016-06-08T12:25:41Z</time>
      </trkpt>
      <trkpt lat="43.39254" lon="6.0831">
        <ele>296.60000610352</ele>
        <time>2016-06-08T12:25:42Z</time>
      </trkpt>
      <trkpt lat="43.39254" lon="6.08313">
        <ele>297</ele>
        <time>2016-06-08T12:25:44Z</time>
      </trkpt>
      <trkpt lat="43.39252" lon="6.08322">
        <ele>297.60000610352</ele>
        <time>2016-06-08T12:25:48Z</time>
      </trkpt>
      <trkpt lat="43.39251" lon="6.08327">
        <ele>298</ele>
        <time>2016-06-08T12:25:49Z</time>
      </trkpt>
      <trkpt lat="43.39251" lon="6.08327">
        <ele>298</ele>
        <time>2016-06-08T12:25:50Z</time>
      </trkpt>
      <trkpt lat="43.39246" lon="6.08344">
        <ele>298.79998779297</ele>
        <time>2016-06-08T12:25:57Z</time>
      </trkpt>
      <trkpt lat="43.39242" lon="6.08355">
        <ele>300</ele>
        <time>2016-06-08T12:26:04Z</time>
      </trkpt>
      <trkpt lat="43.39238" lon="6.08367">
        <ele>301</ele>
        <time>2016-06-08T12:26:09Z</time>
      </trkpt>
      <trkpt lat="43.39238" lon="6.08367">
        <ele>301</ele>
        <time>2016-06-08T12:26:10Z</time>
      </trkpt>
      <trkpt lat="43.39233" lon="6.08382">
        <ele>302</ele>
        <time>2016-06-08T12:26:18Z</time>
      </trkpt>
      <trkpt lat="43.39229" lon="6.08398">
        <ele>302.79998779297</ele>
        <time>2016-06-08T12:26:25Z</time>
      </trkpt>
      <trkpt lat="43.39229" lon="6.08398">
        <ele>302.79998779297</ele>
        <time>2016-06-08T12:26:26Z</time>
      </trkpt>
      <trkpt lat="43.39228" lon="6.08401">
        <ele>302.79998779297</ele>
        <time>2016-06-08T12:26:27Z</time>
      </trkpt>
      <trkpt lat="43.39228" lon="6.08405">
        <ele>303</ele>
        <time>2016-06-08T12:26:29Z</time>
      </trkpt>
      <trkpt lat="43.39227" lon="6.08408">
        <ele>303.39999389648</ele>
        <time>2016-06-08T12:26:31Z</time>
      </trkpt>
      <trkpt lat="43.39227" lon="6.08408">
        <ele>303.39999389648</ele>
        <time>2016-06-08T12:26:32Z</time>
      </trkpt>
      <trkpt lat="43.39226" lon="6.08415">
        <ele>304.20001220703</ele>
        <time>2016-06-08T12:26:35Z</time>
      </trkpt>
      <trkpt lat="43.39225" lon="6.08417">
        <ele>304.60000610352</ele>
        <time>2016-06-08T12:26:37Z</time>
      </trkpt>
      <trkpt lat="43.39225" lon="6.0842">
        <ele>305</ele>
        <time>2016-06-08T12:26:39Z</time>
      </trkpt>
      <trkpt lat="43.39224" lon="6.08426">
        <ele>305.60000610352</ele>
        <time>2016-06-08T12:26:44Z</time>
      </trkpt>
      <trkpt lat="43.39222" lon="6.08433">
        <ele>306.20001220703</ele>
        <time>2016-06-08T12:26:48Z</time>
      </trkpt>
      <trkpt lat="43.3922" lon="6.08443">
        <ele>306.60000610352</ele>
        <time>2016-06-08T12:26:53Z</time>
      </trkpt>
      <trkpt lat="43.39219" lon="6.08452">
        <ele>307.39999389648</ele>
        <time>2016-06-08T12:26:59Z</time>
      </trkpt>
      <trkpt lat="43.39219" lon="6.08452">
        <ele>307.60000610352</ele>
        <time>2016-06-08T12:27:00Z</time>
      </trkpt>
      <trkpt lat="43.39215" lon="6.08462">
        <ele>308.79998779297</ele>
        <time>2016-06-08T12:27:06Z</time>
      </trkpt>
      <trkpt lat="43.39214" lon="6.08468">
        <ele>308.79998779297</ele>
        <time>2016-06-08T12:27:09Z</time>
      </trkpt>
      <trkpt lat="43.39212" lon="6.08473">
        <ele>309.60000610352</ele>
        <time>2016-06-08T12:27:13Z</time>
      </trkpt>
      <trkpt lat="43.39212" lon="6.08473">
        <ele>310</ele>
        <time>2016-06-08T12:27:14Z</time>
      </trkpt>
      <trkpt lat="43.39209" lon="6.08482">
        <ele>310.60000610352</ele>
        <time>2016-06-08T12:27:19Z</time>
      </trkpt>
      <trkpt lat="43.39207" lon="6.08486">
        <ele>311</ele>
        <time>2016-06-08T12:27:23Z</time>
      </trkpt>
      <trkpt lat="43.39204" lon="6.08492">
        <ele>311.39999389648</ele>
        <time>2016-06-08T12:27:28Z</time>
      </trkpt>
      <trkpt lat="43.39204" lon="6.08494">
        <ele>311.39999389648</ele>
        <time>2016-06-08T12:27:29Z</time>
      </trkpt>
      <trkpt lat="43.39203" lon="6.08498">
        <ele>311.20001220703</ele>
        <time>2016-06-08T12:27:34Z</time>
      </trkpt>
      <trkpt lat="43.39201" lon="6.08503">
        <ele>311.39999389648</ele>
        <time>2016-06-08T12:27:39Z</time>
      </trkpt>
      <trkpt lat="43.39201" lon="6.08503">
        <ele>311.39999389648</ele>
        <time>2016-06-08T12:27:40Z</time>
      </trkpt>
      <trkpt lat="43.392" lon="6.08503">
        <ele>311.39999389648</ele>
        <time>2016-06-08T12:27:43Z</time>
      </trkpt>
      <trkpt lat="43.392" lon="6.08503">
        <ele>311.60000610352</ele>
        <time>2016-06-08T12:27:49Z</time>
      </trkpt>
      <trkpt lat="43.392" lon="6.08504">
        <ele>311.60000610352</ele>
        <time>2016-06-08T12:27:52Z</time>
      </trkpt>
      <trkpt lat="43.392" lon="6.08503">
        <ele>311.39999389648</ele>
        <time>2016-06-08T12:27:57Z</time>
      </trkpt>
      <trkpt lat="43.392" lon="6.08503">
        <ele>311.39999389648</ele>
        <time>2016-06-08T12:27:59Z</time>
      </trkpt>
      <trkpt lat="43.392" lon="6.08503">
        <ele>311.39999389648</ele>
        <time>2016-06-08T12:28:04Z</time>
      </trkpt>
      <trkpt lat="43.392" lon="6.08503">
        <ele>311.60000610352</ele>
        <time>2016-06-08T12:28:30Z</time>
      </trkpt>
      <trkpt lat="43.392" lon="6.08503">
        <ele>311.79998779297</ele>
        <time>2016-06-08T12:28:40Z</time>
      </trkpt>
      <trkpt lat="43.392" lon="6.08503">
        <ele>311.79998779297</ele>
        <time>2016-06-08T12:28:41Z</time>
      </trkpt>
      <trkpt lat="43.392" lon="6.08503">
        <ele>311.79998779297</ele>
        <time>2016-06-08T12:28:47Z</time>
      </trkpt>
      <trkpt lat="43.392" lon="6.08503">
        <ele>311.79998779297</ele>
        <time>2016-06-08T12:28:57Z</time>
      </trkpt>
      <trkpt lat="43.392" lon="6.08504">
        <ele>311.39999389648</ele>
        <time>2016-06-08T12:29:29Z</time>
      </trkpt>
      <trkpt lat="43.39201" lon="6.08504">
        <ele>311.39999389648</ele>
        <time>2016-06-08T12:29:31Z</time>
      </trkpt>
      <trkpt lat="43.39202" lon="6.08501">
        <ele>311.60000610352</ele>
        <time>2016-06-08T12:29:42Z</time>
      </trkpt>
      <trkpt lat="43.39203" lon="6.08501">
        <ele>311.60000610352</ele>
        <time>2016-06-08T12:29:53Z</time>
      </trkpt>
      <trkpt lat="43.39203" lon="6.08501">
        <ele>311.60000610352</ele>
        <time>2016-06-08T12:29:54Z</time>
      </trkpt>
      <trkpt lat="43.39203" lon="6.08502">
        <ele>311.79998779297</ele>
        <time>2016-06-08T12:30:10Z</time>
      </trkpt>
      <trkpt lat="43.39201" lon="6.08503">
        <ele>312</ele>
        <time>2016-06-08T12:30:18Z</time>
      </trkpt>
      <trkpt lat="43.39201" lon="6.08503">
        <ele>311.79998779297</ele>
        <time>2016-06-08T12:30:22Z</time>
      </trkpt>
      <trkpt lat="43.39201" lon="6.08503">
        <ele>312.20001220703</ele>
        <time>2016-06-08T12:30:52Z</time>
      </trkpt>
      <trkpt lat="43.39201" lon="6.08503">
        <ele>313</ele>
        <time>2016-06-08T12:32:53Z</time>
      </trkpt>
      <trkpt lat="43.39202" lon="6.08503">
        <ele>312.39999389648</ele>
        <time>2016-06-08T12:33:12Z</time>
      </trkpt>
      <trkpt lat="43.39201" lon="6.08505">
        <ele>312.39999389648</ele>
        <time>2016-06-08T12:33:19Z</time>
      </trkpt>
      <trkpt lat="43.39199" lon="6.08508">
        <ele>312.39999389648</ele>
        <time>2016-06-08T12:33:21Z</time>
      </trkpt>
      <trkpt lat="43.39189" lon="6.08517">
        <ele>312.20001220703</ele>
        <time>2016-06-08T12:33:27Z</time>
      </trkpt>
      <trkpt lat="43.39189" lon="6.08517">
        <ele>312.20001220703</ele>
        <time>2016-06-08T12:33:28Z</time>
      </trkpt>
      <trkpt lat="43.3918" lon="6.08539">
        <ele>312</ele>
        <time>2016-06-08T12:33:33Z</time>
      </trkpt>
      <trkpt lat="43.39173" lon="6.08559">
        <ele>312.20001220703</ele>
        <time>2016-06-08T12:33:38Z</time>
      </trkpt>
      <trkpt lat="43.39169" lon="6.0857">
        <ele>311.79998779297</ele>
        <time>2016-06-08T12:33:40Z</time>
      </trkpt>
      <trkpt lat="43.39167" lon="6.08582">
        <ele>311.60000610352</ele>
        <time>2016-06-08T12:33:41Z</time>
      </trkpt>
      <trkpt lat="43.39166" lon="6.08588">
        <ele>311.20001220703</ele>
        <time>2016-06-08T12:33:42Z</time>
      </trkpt>
      <trkpt lat="43.39164" lon="6.08594">
        <ele>311</ele>
        <time>2016-06-08T12:33:44Z</time>
      </trkpt>
      <trkpt lat="43.39157" lon="6.08618">
        <ele>310</ele>
        <time>2016-06-08T12:33:47Z</time>
      </trkpt>
      <trkpt lat="43.39149" lon="6.08642">
        <ele>309.60000610352</ele>
        <time>2016-06-08T12:33:51Z</time>
      </trkpt>
      <trkpt lat="43.39148" lon="6.08654">
        <ele>310</ele>
        <time>2016-06-08T12:33:53Z</time>
      </trkpt>
      <trkpt lat="43.39145" lon="6.08665">
        <ele>310.20001220703</ele>
        <time>2016-06-08T12:33:56Z</time>
      </trkpt>
      <trkpt lat="43.39142" lon="6.08676">
        <ele>310.20001220703</ele>
        <time>2016-06-08T12:33:57Z</time>
      </trkpt>
      <trkpt lat="43.39139" lon="6.08694">
        <ele>309.79998779297</ele>
        <time>2016-06-08T12:34:00Z</time>
      </trkpt>
      <trkpt lat="43.39136" lon="6.0871">
        <ele>310.20001220703</ele>
        <time>2016-06-08T12:34:03Z</time>
      </trkpt>
      <trkpt lat="43.39131" lon="6.08732">
        <ele>311</ele>
        <time>2016-06-08T12:34:08Z</time>
      </trkpt>
      <trkpt lat="43.39124" lon="6.08761">
        <ele>311.39999389648</ele>
        <time>2016-06-08T12:34:13Z</time>
      </trkpt>
      <trkpt lat="43.39122" lon="6.0877">
        <ele>311.60000610352</ele>
        <time>2016-06-08T12:34:16Z</time>
      </trkpt>
      <trkpt lat="43.39118" lon="6.0879">
        <ele>311.60000610352</ele>
        <time>2016-06-08T12:34:20Z</time>
      </trkpt>
      <trkpt lat="43.39116" lon="6.08799">
        <ele>311.60000610352</ele>
        <time>2016-06-08T12:34:21Z</time>
      </trkpt>
      <trkpt lat="43.39111" lon="6.08816">
        <ele>312.60000610352</ele>
        <time>2016-06-08T12:34:24Z</time>
      </trkpt>
      <trkpt lat="43.39108" lon="6.08831">
        <ele>313</ele>
        <time>2016-06-08T12:34:28Z</time>
      </trkpt>
      <trkpt lat="43.39101" lon="6.08861">
        <ele>312.79998779297</ele>
        <time>2016-06-08T12:34:33Z</time>
      </trkpt>
      <trkpt lat="43.39097" lon="6.08876">
        <ele>312.60000610352</ele>
        <time>2016-06-08T12:34:37Z</time>
      </trkpt>
      <trkpt lat="43.39097" lon="6.08876">
        <ele>313</ele>
        <time>2016-06-08T12:34:38Z</time>
      </trkpt>
      <trkpt lat="43.39093" lon="6.089">
        <ele>313.60000610352</ele>
        <time>2016-06-08T12:34:43Z</time>
      </trkpt>
      <trkpt lat="43.39093" lon="6.089">
        <ele>313.60000610352</ele>
        <time>2016-06-08T12:34:44Z</time>
      </trkpt>
      <trkpt lat="43.39088" lon="6.08931">
        <ele>314.39999389648</ele>
        <time>2016-06-08T12:34:51Z</time>
      </trkpt>
      <trkpt lat="43.39083" lon="6.08952">
        <ele>314.39999389648</ele>
        <time>2016-06-08T12:34:57Z</time>
      </trkpt>
      <trkpt lat="43.39083" lon="6.08952">
        <ele>314.60000610352</ele>
        <time>2016-06-08T12:34:58Z</time>
      </trkpt>
      <trkpt lat="43.39077" lon="6.0897">
        <ele>313.79998779297</ele>
        <time>2016-06-08T12:35:04Z</time>
      </trkpt>
      <trkpt lat="43.3907" lon="6.08987">
        <ele>314.39999389648</ele>
        <time>2016-06-08T12:35:09Z</time>
      </trkpt>
      <trkpt lat="43.3906" lon="6.09004">
        <ele>314.79998779297</ele>
        <time>2016-06-08T12:35:16Z</time>
      </trkpt>
      <trkpt lat="43.39049" lon="6.09025">
        <ele>315</ele>
        <time>2016-06-08T12:35:21Z</time>
      </trkpt>
      <trkpt lat="43.39049" lon="6.09025">
        <ele>315.39999389648</ele>
        <time>2016-06-08T12:35:22Z</time>
      </trkpt>
      <trkpt lat="43.3904" lon="6.09044">
        <ele>315.60000610352</ele>
        <time>2016-06-08T12:35:27Z</time>
      </trkpt>
      <trkpt lat="43.39033" lon="6.09062">
        <ele>316</ele>
        <time>2016-06-08T12:35:34Z</time>
      </trkpt>
      <trkpt lat="43.39025" lon="6.09083">
        <ele>316.20001220703</ele>
        <time>2016-06-08T12:35:39Z</time>
      </trkpt>
      <trkpt lat="43.39018" lon="6.09102">
        <ele>317</ele>
        <time>2016-06-08T12:35:46Z</time>
      </trkpt>
      <trkpt lat="43.39013" lon="6.09122">
        <ele>317</ele>
        <time>2016-06-08T12:35:51Z</time>
      </trkpt>
      <trkpt lat="43.3901" lon="6.09138">
        <ele>317</ele>
        <time>2016-06-08T12:35:56Z</time>
      </trkpt>
      <trkpt lat="43.39006" lon="6.09155">
        <ele>317.60000610352</ele>
        <time>2016-06-08T12:36:00Z</time>
      </trkpt>
      <trkpt lat="43.38999" lon="6.09178">
        <ele>318.60000610352</ele>
        <time>2016-06-08T12:36:06Z</time>
      </trkpt>
      <trkpt lat="43.38995" lon="6.09198">
        <ele>318.79998779297</ele>
        <time>2016-06-08T12:36:11Z</time>
      </trkpt>
      <trkpt lat="43.38995" lon="6.09202">
        <ele>319</ele>
        <time>2016-06-08T12:36:12Z</time>
      </trkpt>
      <trkpt lat="43.38991" lon="6.09234">
        <ele>319.20001220703</ele>
        <time>2016-06-08T12:36:19Z</time>
      </trkpt>
      <trkpt lat="43.38985" lon="6.09257">
        <ele>319</ele>
        <time>2016-06-08T12:36:26Z</time>
      </trkpt>
      <trkpt lat="43.38979" lon="6.09276">
        <ele>319.60000610352</ele>
        <time>2016-06-08T12:36:32Z</time>
      </trkpt>
      <trkpt lat="43.38969" lon="6.09291">
        <ele>320</ele>
        <time>2016-06-08T12:36:37Z</time>
      </trkpt>
      <trkpt lat="43.38969" lon="6.09291">
        <ele>320.20001220703</ele>
        <time>2016-06-08T12:36:38Z</time>
      </trkpt>
      <trkpt lat="43.38961" lon="6.09306">
        <ele>321.60000610352</ele>
        <time>2016-06-08T12:36:42Z</time>
      </trkpt>
      <trkpt lat="43.38959" lon="6.09309">
        <ele>322.20001220703</ele>
        <time>2016-06-08T12:36:44Z</time>
      </trkpt>
      <trkpt lat="43.38956" lon="6.09315">
        <ele>322.60000610352</ele>
        <time>2016-06-08T12:36:46Z</time>
      </trkpt>
      <trkpt lat="43.38947" lon="6.09334">
        <ele>322.60000610352</ele>
        <time>2016-06-08T12:36:51Z</time>
      </trkpt>
      <trkpt lat="43.38942" lon="6.0934">
        <ele>322.79998779297</ele>
        <time>2016-06-08T12:36:54Z</time>
      </trkpt>
      <trkpt lat="43.38935" lon="6.09346">
        <ele>322.79998779297</ele>
        <time>2016-06-08T12:36:57Z</time>
      </trkpt>
      <trkpt lat="43.38924" lon="6.09359">
        <ele>323.20001220703</ele>
        <time>2016-06-08T12:37:02Z</time>
      </trkpt>
      <trkpt lat="43.38912" lon="6.09369">
        <ele>323.60000610352</ele>
        <time>2016-06-08T12:37:06Z</time>
      </trkpt>
      <trkpt lat="43.3891" lon="6.0937">
        <ele>324.20001220703</ele>
        <time>2016-06-08T12:37:08Z</time>
      </trkpt>
      <trkpt lat="43.38901" lon="6.09379">
        <ele>324.79998779297</ele>
        <time>2016-06-08T12:37:13Z</time>
      </trkpt>
      <trkpt lat="43.38901" lon="6.09379">
        <ele>324.79998779297</ele>
        <time>2016-06-08T12:37:14Z</time>
      </trkpt>
      <trkpt lat="43.38894" lon="6.09387">
        <ele>325.60000610352</ele>
        <time>2016-06-08T12:37:18Z</time>
      </trkpt>
      <trkpt lat="43.38892" lon="6.09389">
        <ele>326</ele>
        <time>2016-06-08T12:37:20Z</time>
      </trkpt>
      <trkpt lat="43.38889" lon="6.09393">
        <ele>326.20001220703</ele>
        <time>2016-06-08T12:37:21Z</time>
      </trkpt>
      <trkpt lat="43.38885" lon="6.09396">
        <ele>326.79998779297</ele>
        <time>2016-06-08T12:37:24Z</time>
      </trkpt>
      <trkpt lat="43.38884" lon="6.094">
        <ele>327.20001220703</ele>
        <time>2016-06-08T12:37:27Z</time>
      </trkpt>
      <trkpt lat="43.38884" lon="6.094">
        <ele>327.39999389648</ele>
        <time>2016-06-08T12:37:28Z</time>
      </trkpt>
      <trkpt lat="43.38883" lon="6.09409">
        <ele>327.79998779297</ele>
        <time>2016-06-08T12:37:30Z</time>
      </trkpt>
      <trkpt lat="43.38882" lon="6.09412">
        <ele>328.20001220703</ele>
        <time>2016-06-08T12:37:32Z</time>
      </trkpt>
      <trkpt lat="43.3888" lon="6.09414">
        <ele>328.39999389648</ele>
        <time>2016-06-08T12:37:35Z</time>
      </trkpt>
      <trkpt lat="43.3888" lon="6.09414">
        <ele>328.39999389648</ele>
        <time>2016-06-08T12:37:36Z</time>
      </trkpt>
      <trkpt lat="43.3888" lon="6.09416">
        <ele>328.79998779297</ele>
        <time>2016-06-08T12:37:43Z</time>
      </trkpt>
      <trkpt lat="43.38879" lon="6.09416">
        <ele>329</ele>
        <time>2016-06-08T12:37:46Z</time>
      </trkpt>
      <trkpt lat="43.38877" lon="6.09417">
        <ele>329.39999389648</ele>
        <time>2016-06-08T12:37:54Z</time>
      </trkpt>
      <trkpt lat="43.38877" lon="6.09417">
        <ele>329.39999389648</ele>
        <time>2016-06-08T12:37:55Z</time>
      </trkpt>
      <trkpt lat="43.38877" lon="6.09417">
        <ele>329.60000610352</ele>
        <time>2016-06-08T12:38:00Z</time>
      </trkpt>
      <trkpt lat="43.38876" lon="6.09418">
        <ele>330</ele>
        <time>2016-06-08T12:38:05Z</time>
      </trkpt>
      <trkpt lat="43.38875" lon="6.09421">
        <ele>330.20001220703</ele>
        <time>2016-06-08T12:38:10Z</time>
      </trkpt>
      <trkpt lat="43.38874" lon="6.09423">
        <ele>330.20001220703</ele>
        <time>2016-06-08T12:38:13Z</time>
      </trkpt>
      <trkpt lat="43.38874" lon="6.09423">
        <ele>330.20001220703</ele>
        <time>2016-06-08T12:38:15Z</time>
      </trkpt>
      <trkpt lat="43.38874" lon="6.09423">
        <ele>330.79998779297</ele>
        <time>2016-06-08T12:38:22Z</time>
      </trkpt>
      <trkpt lat="43.38873" lon="6.09424">
        <ele>330.79998779297</ele>
        <time>2016-06-08T12:38:23Z</time>
      </trkpt>
      <trkpt lat="43.38873" lon="6.09424">
        <ele>331.20001220703</ele>
        <time>2016-06-08T12:38:26Z</time>
      </trkpt>
      <trkpt lat="43.38873" lon="6.09424">
        <ele>331.20001220703</ele>
        <time>2016-06-08T12:38:28Z</time>
      </trkpt>
      <trkpt lat="43.38873" lon="6.09423">
        <ele>331.20001220703</ele>
        <time>2016-06-08T12:38:32Z</time>
      </trkpt>
      <trkpt lat="43.38872" lon="6.09423">
        <ele>331.20001220703</ele>
        <time>2016-06-08T12:38:34Z</time>
      </trkpt>
      <trkpt lat="43.38872" lon="6.09423">
        <ele>331.20001220703</ele>
        <time>2016-06-08T12:38:38Z</time>
      </trkpt>
      <trkpt lat="43.38872" lon="6.09423">
        <ele>331.20001220703</ele>
        <time>2016-06-08T12:38:51Z</time>
      </trkpt>
      <trkpt lat="43.38872" lon="6.09423">
        <ele>331.79998779297</ele>
        <time>2016-06-08T12:39:17Z</time>
      </trkpt>
      <trkpt lat="43.38872" lon="6.09422">
        <ele>331</ele>
        <time>2016-06-08T12:39:27Z</time>
      </trkpt>
      <trkpt lat="43.38872" lon="6.09422">
        <ele>331</ele>
        <time>2016-06-08T12:39:44Z</time>
      </trkpt>
      <trkpt lat="43.38872" lon="6.09422">
        <ele>331.39999389648</ele>
        <time>2016-06-08T12:40:33Z</time>
      </trkpt>
      <trkpt lat="43.38873" lon="6.09422">
        <ele>331.60000610352</ele>
        <time>2016-06-08T12:41:07Z</time>
      </trkpt>
      <trkpt lat="43.38872" lon="6.09421">
        <ele>331.20001220703</ele>
        <time>2016-06-08T12:42:36Z</time>
      </trkpt>
      <trkpt lat="43.38873" lon="6.09421">
        <ele>331.60000610352</ele>
        <time>2016-06-08T12:42:53Z</time>
      </trkpt>
      <trkpt lat="43.38872" lon="6.09421">
        <ele>331.20001220703</ele>
        <time>2016-06-08T12:43:08Z</time>
      </trkpt>
      <trkpt lat="43.38873" lon="6.0942">
        <ele>331.20001220703</ele>
        <time>2016-06-08T12:43:27Z</time>
      </trkpt>
      <trkpt lat="43.38873" lon="6.09421">
        <ele>331.39999389648</ele>
        <time>2016-06-08T12:43:36Z</time>
      </trkpt>
      <trkpt lat="43.38871" lon="6.09421">
        <ele>331.60000610352</ele>
        <time>2016-06-08T12:43:39Z</time>
      </trkpt>
      <trkpt lat="43.38871" lon="6.09421">
        <ele>331.60000610352</ele>
        <time>2016-06-08T12:43:40Z</time>
      </trkpt>
      <trkpt lat="43.38868" lon="6.09425">
        <ele>331.60000610352</ele>
        <time>2016-06-08T12:43:43Z</time>
      </trkpt>
      <trkpt lat="43.38868" lon="6.09425">
        <ele>331.20001220703</ele>
        <time>2016-06-08T12:43:44Z</time>
      </trkpt>
      <trkpt lat="43.38867" lon="6.09427">
        <ele>331</ele>
        <time>2016-06-08T12:43:45Z</time>
      </trkpt>
      <trkpt lat="43.3887" lon="6.09432">
        <ele>330.79998779297</ele>
        <time>2016-06-08T12:43:51Z</time>
      </trkpt>
      <trkpt lat="43.38872" lon="6.09433">
        <ele>331</ele>
        <time>2016-06-08T12:43:56Z</time>
      </trkpt>
      <trkpt lat="43.38873" lon="6.09433">
        <ele>331</ele>
        <time>2016-06-08T12:44:00Z</time>
      </trkpt>
      <trkpt lat="43.38873" lon="6.09433">
        <ele>331</ele>
        <time>2016-06-08T12:44:01Z</time>
      </trkpt>
      <trkpt lat="43.38873" lon="6.09433">
        <ele>330.79998779297</ele>
        <time>2016-06-08T12:44:04Z</time>
      </trkpt>
      <trkpt lat="43.38873" lon="6.09433">
        <ele>330.60000610352</ele>
        <time>2016-06-08T12:44:10Z</time>
      </trkpt>
      <trkpt lat="43.38872" lon="6.09433">
        <ele>330.39999389648</ele>
        <time>2016-06-08T12:44:11Z</time>
      </trkpt>
      <trkpt lat="43.38872" lon="6.09433">
        <ele>330.20001220703</ele>
        <time>2016-06-08T12:44:16Z</time>
      </trkpt>
      <trkpt lat="43.38872" lon="6.09433">
        <ele>330</ele>
        <time>2016-06-08T12:44:31Z</time>
      </trkpt>
      <trkpt lat="43.38872" lon="6.09433">
        <ele>330.20001220703</ele>
        <time>2016-06-08T12:44:37Z</time>
      </trkpt>
      <trkpt lat="43.38873" lon="6.09433">
        <ele>330.39999389648</ele>
        <time>2016-06-08T12:45:18Z</time>
      </trkpt>
      <trkpt lat="43.38873" lon="6.09433">
        <ele>330.39999389648</ele>
        <time>2016-06-08T12:45:34Z</time>
      </trkpt>
      <trkpt lat="43.38873" lon="6.09434">
        <ele>330.39999389648</ele>
        <time>2016-06-08T12:46:00Z</time>
      </trkpt>
      <trkpt lat="43.38873" lon="6.09434">
        <ele>330.39999389648</ele>
        <time>2016-06-08T12:46:52Z</time>
      </trkpt>
      <trkpt lat="43.38873" lon="6.09435">
        <ele>330.79998779297</ele>
        <time>2016-06-08T12:47:10Z</time>
      </trkpt>
      <trkpt lat="43.38873" lon="6.09435">
        <ele>330.60000610352</ele>
        <time>2016-06-08T12:47:59Z</time>
      </trkpt>
      <trkpt lat="43.38873" lon="6.09435">
        <ele>330</ele>
        <time>2016-06-08T12:49:22Z</time>
      </trkpt>
      <trkpt lat="43.38873" lon="6.09437">
        <ele>330.39999389648</ele>
        <time>2016-06-08T12:51:20Z</time>
      </trkpt>
      <trkpt lat="43.38873" lon="6.09437">
        <ele>330.60000610352</ele>
        <time>2016-06-08T12:51:32Z</time>
      </trkpt>
      <trkpt lat="43.38872" lon="6.09436">
        <ele>331.20001220703</ele>
        <time>2016-06-08T12:51:38Z</time>
      </trkpt>
      <trkpt lat="43.38869" lon="6.09434">
        <ele>331</ele>
        <time>2016-06-08T12:51:46Z</time>
      </trkpt>
      <trkpt lat="43.38862" lon="6.09424">
        <ele>330</ele>
        <time>2016-06-08T12:51:50Z</time>
      </trkpt>
      <trkpt lat="43.38858" lon="6.09419">
        <ele>330</ele>
        <time>2016-06-08T12:51:51Z</time>
      </trkpt>
      <trkpt lat="43.3885" lon="6.09409">
        <ele>329</ele>
        <time>2016-06-08T12:51:56Z</time>
      </trkpt>
      <trkpt lat="43.38844" lon="6.09398">
        <ele>327.39999389648</ele>
        <time>2016-06-08T12:51:59Z</time>
      </trkpt>
      <trkpt lat="43.38841" lon="6.09392">
        <ele>326.39999389648</ele>
        <time>2016-06-08T12:52:01Z</time>
      </trkpt>
      <trkpt lat="43.38841" lon="6.09392">
        <ele>326</ele>
        <time>2016-06-08T12:52:02Z</time>
      </trkpt>
      <trkpt lat="43.38837" lon="6.09393">
        <ele>325.39999389648</ele>
        <time>2016-06-08T12:52:03Z</time>
      </trkpt>
      <trkpt lat="43.38835" lon="6.09399">
        <ele>325.60000610352</ele>
        <time>2016-06-08T12:52:05Z</time>
      </trkpt>
      <trkpt lat="43.38833" lon="6.09405">
        <ele>324.60000610352</ele>
        <time>2016-06-08T12:52:07Z</time>
      </trkpt>
      <trkpt lat="43.3883" lon="6.09416">
        <ele>323.39999389648</ele>
        <time>2016-06-08T12:52:11Z</time>
      </trkpt>
      <trkpt lat="43.38829" lon="6.09418">
        <ele>323.20001220703</ele>
        <time>2016-06-08T12:52:12Z</time>
      </trkpt>
      <trkpt lat="43.38828" lon="6.0942">
        <ele>322.39999389648</ele>
        <time>2016-06-08T12:52:14Z</time>
      </trkpt>
      <trkpt lat="43.38826" lon="6.09423">
        <ele>321.79998779297</ele>
        <time>2016-06-08T12:52:15Z</time>
      </trkpt>
      <trkpt lat="43.38826" lon="6.09423">
        <ele>321.20001220703</ele>
        <time>2016-06-08T12:52:16Z</time>
      </trkpt>
      <trkpt lat="43.38824" lon="6.0943">
        <ele>320.20001220703</ele>
        <time>2016-06-08T12:52:18Z</time>
      </trkpt>
      <trkpt lat="43.38824" lon="6.09434">
        <ele>321</ele>
        <time>2016-06-08T12:52:22Z</time>
      </trkpt>
      <trkpt lat="43.38823" lon="6.09439">
        <ele>321.20001220703</ele>
        <time>2016-06-08T12:52:26Z</time>
      </trkpt>
      <trkpt lat="43.38823" lon="6.09445">
        <ele>321.39999389648</ele>
        <time>2016-06-08T12:52:30Z</time>
      </trkpt>
      <trkpt lat="43.38825" lon="6.09451">
        <ele>321.39999389648</ele>
        <time>2016-06-08T12:52:33Z</time>
      </trkpt>
      <trkpt lat="43.38825" lon="6.09451">
        <ele>321.39999389648</ele>
        <time>2016-06-08T12:52:34Z</time>
      </trkpt>
      <trkpt lat="43.38827" lon="6.09454">
        <ele>321.39999389648</ele>
        <time>2016-06-08T12:52:35Z</time>
      </trkpt>
      <trkpt lat="43.38831" lon="6.09456">
        <ele>321.79998779297</ele>
        <time>2016-06-08T12:52:39Z</time>
      </trkpt>
      <trkpt lat="43.38833" lon="6.09457">
        <ele>322.20001220703</ele>
        <time>2016-06-08T12:52:41Z</time>
      </trkpt>
      <trkpt lat="43.38839" lon="6.09459">
        <ele>323.60000610352</ele>
        <time>2016-06-08T12:52:46Z</time>
      </trkpt>
      <trkpt lat="43.38841" lon="6.0946">
        <ele>324.39999389648</ele>
        <time>2016-06-08T12:52:49Z</time>
      </trkpt>
      <trkpt lat="43.38842" lon="6.0946">
        <ele>324.60000610352</ele>
        <time>2016-06-08T12:52:51Z</time>
      </trkpt>
      <trkpt lat="43.38842" lon="6.0946">
        <ele>324.60000610352</ele>
        <time>2016-06-08T12:52:53Z</time>
      </trkpt>
      <trkpt lat="43.38842" lon="6.09463">
        <ele>324.60000610352</ele>
        <time>2016-06-08T12:53:00Z</time>
      </trkpt>
      <trkpt lat="43.38842" lon="6.09463">
        <ele>325</ele>
        <time>2016-06-08T12:53:09Z</time>
      </trkpt>
      <trkpt lat="43.38842" lon="6.09463">
        <ele>325</ele>
        <time>2016-06-08T12:53:12Z</time>
      </trkpt>
      <trkpt lat="43.38843" lon="6.09463">
        <ele>325.39999389648</ele>
        <time>2016-06-08T12:53:23Z</time>
      </trkpt>
      <trkpt lat="43.38843" lon="6.09463">
        <ele>325.20001220703</ele>
        <time>2016-06-08T12:53:28Z</time>
      </trkpt>
      <trkpt lat="43.38843" lon="6.09463">
        <ele>325.39999389648</ele>
        <time>2016-06-08T12:53:55Z</time>
      </trkpt>
      <trkpt lat="43.38843" lon="6.09463">
        <ele>325.39999389648</ele>
        <time>2016-06-08T12:53:56Z</time>
      </trkpt>
      <trkpt lat="43.38843" lon="6.09464">
        <ele>325.20001220703</ele>
        <time>2016-06-08T12:53:59Z</time>
      </trkpt>
      <trkpt lat="43.38843" lon="6.09464">
        <ele>325.20001220703</ele>
        <time>2016-06-08T12:54:02Z</time>
      </trkpt>
      <trkpt lat="43.38841" lon="6.09463">
        <ele>325.20001220703</ele>
        <time>2016-06-08T12:54:11Z</time>
      </trkpt>
      <trkpt lat="43.38839" lon="6.09463">
        <ele>324.39999389648</ele>
        <time>2016-06-08T12:54:17Z</time>
      </trkpt>
      <trkpt lat="43.38837" lon="6.09461">
        <ele>324</ele>
        <time>2016-06-08T12:54:24Z</time>
      </trkpt>
      <trkpt lat="43.38837" lon="6.0946">
        <ele>323.60000610352</ele>
        <time>2016-06-08T12:54:26Z</time>
      </trkpt>
      <trkpt lat="43.38835" lon="6.09458">
        <ele>323.60000610352</ele>
        <time>2016-06-08T12:54:27Z</time>
      </trkpt>
      <trkpt lat="43.38832" lon="6.09455">
        <ele>322.60000610352</ele>
        <time>2016-06-08T12:54:31Z</time>
      </trkpt>
      <trkpt lat="43.38832" lon="6.09454">
        <ele>322.39999389648</ele>
        <time>2016-06-08T12:54:32Z</time>
      </trkpt>
      <trkpt lat="43.38831" lon="6.09458">
        <ele>322.20001220703</ele>
        <time>2016-06-08T12:54:38Z</time>
      </trkpt>
      <trkpt lat="43.38831" lon="6.09459">
        <ele>322</ele>
        <time>2016-06-08T12:54:40Z</time>
      </trkpt>
      <trkpt lat="43.3883" lon="6.09459">
        <ele>322</ele>
        <time>2016-06-08T12:54:41Z</time>
      </trkpt>
      <trkpt lat="43.38828" lon="6.09458">
        <ele>322</ele>
        <time>2016-06-08T12:54:45Z</time>
      </trkpt>
      <trkpt lat="43.38826" lon="6.09457">
        <ele>321.79998779297</ele>
        <time>2016-06-08T12:54:47Z</time>
      </trkpt>
      <trkpt lat="43.38826" lon="6.09454">
        <ele>321.39999389648</ele>
        <time>2016-06-08T12:54:50Z</time>
      </trkpt>
      <trkpt lat="43.38825" lon="6.09451">
        <ele>321.20001220703</ele>
        <time>2016-06-08T12:54:52Z</time>
      </trkpt>
      <trkpt lat="43.38825" lon="6.0945">
        <ele>321.39999389648</ele>
        <time>2016-06-08T12:55:01Z</time>
      </trkpt>
      <trkpt lat="43.38825" lon="6.0945">
        <ele>321.39999389648</ele>
        <time>2016-06-08T12:55:05Z</time>
      </trkpt>
      <trkpt lat="43.38826" lon="6.09451">
        <ele>321.39999389648</ele>
        <time>2016-06-08T12:55:18Z</time>
      </trkpt>
      <trkpt lat="43.38827" lon="6.09453">
        <ele>321.60000610352</ele>
        <time>2016-06-08T12:55:20Z</time>
      </trkpt>
      <trkpt lat="43.38829" lon="6.09454">
        <ele>321.60000610352</ele>
        <time>2016-06-08T12:55:21Z</time>
      </trkpt>
      <trkpt lat="43.38834" lon="6.09456">
        <ele>322</ele>
        <time>2016-06-08T12:55:24Z</time>
      </trkpt>
      <trkpt lat="43.38836" lon="6.09457">
        <ele>322.20001220703</ele>
        <time>2016-06-08T12:55:25Z</time>
      </trkpt>
      <trkpt lat="43.38838" lon="6.09461">
        <ele>323</ele>
        <time>2016-06-08T12:55:28Z</time>
      </trkpt>
      <trkpt lat="43.3884" lon="6.09463">
        <ele>323.39999389648</ele>
        <time>2016-06-08T12:55:29Z</time>
      </trkpt>
      <trkpt lat="43.38842" lon="6.09463">
        <ele>324</ele>
        <time>2016-06-08T12:55:30Z</time>
      </trkpt>
      <trkpt lat="43.38843" lon="6.09463">
        <ele>325</ele>
        <time>2016-06-08T12:55:32Z</time>
      </trkpt>
      <trkpt lat="43.38845" lon="6.09463">
        <ele>325.39999389648</ele>
        <time>2016-06-08T12:55:33Z</time>
      </trkpt>
      <trkpt lat="43.38845" lon="6.09463">
        <ele>325.60000610352</ele>
        <time>2016-06-08T12:55:34Z</time>
      </trkpt>
      <trkpt lat="43.38844" lon="6.09462">
        <ele>325.79998779297</ele>
        <time>2016-06-08T12:55:37Z</time>
      </trkpt>
      <trkpt lat="43.38844" lon="6.09462">
        <ele>325.60000610352</ele>
        <time>2016-06-08T12:55:41Z</time>
      </trkpt>
      <trkpt lat="43.38845" lon="6.09462">
        <ele>326.20001220703</ele>
        <time>2016-06-08T12:55:48Z</time>
      </trkpt>
      <trkpt lat="43.38847" lon="6.09461">
        <ele>326.39999389648</ele>
        <time>2016-06-08T12:55:56Z</time>
      </trkpt>
      <trkpt lat="43.38847" lon="6.0946">
        <ele>326.60000610352</ele>
        <time>2016-06-08T12:55:57Z</time>
      </trkpt>
      <trkpt lat="43.38851" lon="6.09458">
        <ele>326.79998779297</ele>
        <time>2016-06-08T12:56:05Z</time>
      </trkpt>
      <trkpt lat="43.38852" lon="6.09459">
        <ele>327.39999389648</ele>
        <time>2016-06-08T12:56:09Z</time>
      </trkpt>
      <trkpt lat="43.38853" lon="6.09459">
        <ele>327.79998779297</ele>
        <time>2016-06-08T12:56:13Z</time>
      </trkpt>
      <trkpt lat="43.38853" lon="6.09459">
        <ele>327.79998779297</ele>
        <time>2016-06-08T12:56:14Z</time>
      </trkpt>
      <trkpt lat="43.38855" lon="6.09462">
        <ele>328</ele>
        <time>2016-06-08T12:56:22Z</time>
      </trkpt>
      <trkpt lat="43.3886" lon="6.09467">
        <ele>328.60000610352</ele>
        <time>2016-06-08T12:56:25Z</time>
      </trkpt>
      <trkpt lat="43.38863" lon="6.0947">
        <ele>329.60000610352</ele>
        <time>2016-06-08T12:56:28Z</time>
      </trkpt>
      <trkpt lat="43.38865" lon="6.09472">
        <ele>329.60000610352</ele>
        <time>2016-06-08T12:56:29Z</time>
      </trkpt>
      <trkpt lat="43.38865" lon="6.09472">
        <ele>330</ele>
        <time>2016-06-08T12:56:33Z</time>
      </trkpt>
      <trkpt lat="43.38865" lon="6.09471">
        <ele>330</ele>
        <time>2016-06-08T12:56:53Z</time>
      </trkpt>
      <trkpt lat="43.38865" lon="6.09472">
        <ele>330.20001220703</ele>
        <time>2016-06-08T12:57:01Z</time>
      </trkpt>
      <trkpt lat="43.38865" lon="6.09471">
        <ele>330.20001220703</ele>
        <time>2016-06-08T12:57:04Z</time>
      </trkpt>
      <trkpt lat="43.38865" lon="6.09472">
        <ele>330.20001220703</ele>
        <time>2016-06-08T12:57:10Z</time>
      </trkpt>
      <trkpt lat="43.38865" lon="6.09472">
        <ele>330.20001220703</ele>
        <time>2016-06-08T12:57:13Z</time>
      </trkpt>
      <trkpt lat="43.38865" lon="6.09472">
        <ele>330.20001220703</ele>
        <time>2016-06-08T12:57:16Z</time>
      </trkpt>
      <trkpt lat="43.38865" lon="6.09472">
        <ele>330.39999389648</ele>
        <time>2016-06-08T12:57:25Z</time>
      </trkpt>
      <trkpt lat="43.38865" lon="6.09472">
        <ele>330.39999389648</ele>
        <time>2016-06-08T12:57:29Z</time>
      </trkpt>
      <trkpt lat="43.38865" lon="6.09475">
        <ele>330.39999389648</ele>
        <time>2016-06-08T12:57:41Z</time>
      </trkpt>
      <trkpt lat="43.38866" lon="6.09476">
        <ele>330.39999389648</ele>
        <time>2016-06-08T12:57:42Z</time>
      </trkpt>
      <trkpt lat="43.38866" lon="6.09498">
        <ele>330.39999389648</ele>
        <time>2016-06-08T12:57:51Z</time>
      </trkpt>
      <trkpt lat="43.38869" lon="6.09561">
        <ele>330.60000610352</ele>
        <time>2016-06-08T12:58:06Z</time>
      </trkpt>
      <trkpt lat="43.38873" lon="6.09599">
        <ele>329.79998779297</ele>
        <time>2016-06-08T12:58:12Z</time>
      </trkpt>
      <trkpt lat="43.38875" lon="6.09606">
        <ele>329.39999389648</ele>
        <time>2016-06-08T12:58:13Z</time>
      </trkpt>
      <trkpt lat="43.38881" lon="6.09618">
        <ele>329</ele>
        <time>2016-06-08T12:58:15Z</time>
      </trkpt>
      <trkpt lat="43.38881" lon="6.09618">
        <ele>328.79998779297</ele>
        <time>2016-06-08T12:58:16Z</time>
      </trkpt>
      <trkpt lat="43.38887" lon="6.09628">
        <ele>328.79998779297</ele>
        <time>2016-06-08T12:58:17Z</time>
      </trkpt>
      <trkpt lat="43.3889" lon="6.09638">
        <ele>328.60000610352</ele>
        <time>2016-06-08T12:58:20Z</time>
      </trkpt>
      <trkpt lat="43.38892" lon="6.0968">
        <ele>327.60000610352</ele>
        <time>2016-06-08T12:58:25Z</time>
      </trkpt>
      <trkpt lat="43.38896" lon="6.0973">
        <ele>326.20001220703</ele>
        <time>2016-06-08T12:58:31Z</time>
      </trkpt>
      <trkpt lat="43.38895" lon="6.09749">
        <ele>325.79998779297</ele>
        <time>2016-06-08T12:58:33Z</time>
      </trkpt>
      <trkpt lat="43.38895" lon="6.09758">
        <ele>325</ele>
        <time>2016-06-08T12:58:34Z</time>
      </trkpt>
      <trkpt lat="43.38892" lon="6.09778">
        <ele>323.60000610352</ele>
        <time>2016-06-08T12:58:36Z</time>
      </trkpt>
      <trkpt lat="43.3889" lon="6.09788">
        <ele>322.60000610352</ele>
        <time>2016-06-08T12:58:38Z</time>
      </trkpt>
      <trkpt lat="43.38887" lon="6.09806">
        <ele>322.20001220703</ele>
        <time>2016-06-08T12:58:39Z</time>
      </trkpt>
      <trkpt lat="43.38884" lon="6.09826">
        <ele>321</ele>
        <time>2016-06-08T12:58:41Z</time>
      </trkpt>
      <trkpt lat="43.38883" lon="6.09837">
        <ele>320.60000610352</ele>
        <time>2016-06-08T12:58:42Z</time>
      </trkpt>
      <trkpt lat="43.38877" lon="6.09885">
        <ele>317.20001220703</ele>
        <time>2016-06-08T12:58:46Z</time>
      </trkpt>
      <trkpt lat="43.38875" lon="6.09897">
        <ele>315.79998779297</ele>
        <time>2016-06-08T12:58:47Z</time>
      </trkpt>
      <trkpt lat="43.38872" lon="6.09909">
        <ele>314.79998779297</ele>
        <time>2016-06-08T12:58:48Z</time>
      </trkpt>
      <trkpt lat="43.38869" lon="6.09922">
        <ele>313.39999389648</ele>
        <time>2016-06-08T12:58:49Z</time>
      </trkpt>
      <trkpt lat="43.38869" lon="6.09922">
        <ele>312.39999389648</ele>
        <time>2016-06-08T12:58:50Z</time>
      </trkpt>
      <trkpt lat="43.38861" lon="6.09957">
        <ele>309.39999389648</ele>
        <time>2016-06-08T12:58:52Z</time>
      </trkpt>
      <trkpt lat="43.38859" lon="6.09969">
        <ele>308.60000610352</ele>
        <time>2016-06-08T12:58:53Z</time>
      </trkpt>
      <trkpt lat="43.38857" lon="6.09981">
        <ele>308.20001220703</ele>
        <time>2016-06-08T12:58:54Z</time>
      </trkpt>
      <trkpt lat="43.38856" lon="6.09994">
        <ele>306.60000610352</ele>
        <time>2016-06-08T12:58:56Z</time>
      </trkpt>
      <trkpt lat="43.38852" lon="6.10018">
        <ele>305.60000610352</ele>
        <time>2016-06-08T12:58:58Z</time>
      </trkpt>
      <trkpt lat="43.38843" lon="6.10054">
        <ele>303.20001220703</ele>
        <time>2016-06-08T12:59:00Z</time>
      </trkpt>
      <trkpt lat="43.3884" lon="6.10066">
        <ele>302.79998779297</ele>
        <time>2016-06-08T12:59:01Z</time>
      </trkpt>
      <trkpt lat="43.38834" lon="6.10091">
        <ele>301</ele>
        <time>2016-06-08T12:59:04Z</time>
      </trkpt>
      <trkpt lat="43.38824" lon="6.10131">
        <ele>299.79998779297</ele>
        <time>2016-06-08T12:59:07Z</time>
      </trkpt>
      <trkpt lat="43.38822" lon="6.10142">
        <ele>298.39999389648</ele>
        <time>2016-06-08T12:59:09Z</time>
      </trkpt>
      <trkpt lat="43.38821" lon="6.10147">
        <ele>297.60000610352</ele>
        <time>2016-06-08T12:59:11Z</time>
      </trkpt>
      <trkpt lat="43.38821" lon="6.10149">
        <ele>297.20001220703</ele>
        <time>2016-06-08T12:59:12Z</time>
      </trkpt>
      <trkpt lat="43.38822" lon="6.10149">
        <ele>296.60000610352</ele>
        <time>2016-06-08T12:59:15Z</time>
      </trkpt>
      <trkpt lat="43.38822" lon="6.10149">
        <ele>296.39999389648</ele>
        <time>2016-06-08T12:59:23Z</time>
      </trkpt>
      <trkpt lat="43.38822" lon="6.10149">
        <ele>296.20001220703</ele>
        <time>2016-06-08T12:59:40Z</time>
      </trkpt>
      <trkpt lat="43.38822" lon="6.10149">
        <ele>296.20001220703</ele>
        <time>2016-06-08T12:59:59Z</time>
      </trkpt>
      <trkpt lat="43.38822" lon="6.10149">
        <ele>296.60000610352</ele>
        <time>2016-06-08T13:00:24Z</time>
      </trkpt>
      <trkpt lat="43.38822" lon="6.1015">
        <ele>296.79998779297</ele>
        <time>2016-06-08T13:00:36Z</time>
      </trkpt>
      <trkpt lat="43.38823" lon="6.1015">
        <ele>296.79998779297</ele>
        <time>2016-06-08T13:00:37Z</time>
      </trkpt>
      <trkpt lat="43.38824" lon="6.10156">
        <ele>296.79998779297</ele>
        <time>2016-06-08T13:00:44Z</time>
      </trkpt>
      <trkpt lat="43.38824" lon="6.1018">
        <ele>296.79998779297</ele>
        <time>2016-06-08T13:00:51Z</time>
      </trkpt>
      <trkpt lat="43.3882" lon="6.10194">
        <ele>296.79998779297</ele>
        <time>2016-06-08T13:00:55Z</time>
      </trkpt>
      <trkpt lat="43.38818" lon="6.10198">
        <ele>297.60000610352</ele>
        <time>2016-06-08T13:00:58Z</time>
      </trkpt>
      <trkpt lat="43.38818" lon="6.10199">
        <ele>297.79998779297</ele>
        <time>2016-06-08T13:00:59Z</time>
      </trkpt>
      <trkpt lat="43.38819" lon="6.10202">
        <ele>298</ele>
        <time>2016-06-08T13:01:00Z</time>
      </trkpt>
      <trkpt lat="43.38819" lon="6.10205">
        <ele>298.20001220703</ele>
        <time>2016-06-08T13:01:02Z</time>
      </trkpt>
      <trkpt lat="43.3882" lon="6.10217">
        <ele>298.60000610352</ele>
        <time>2016-06-08T13:01:05Z</time>
      </trkpt>
      <trkpt lat="43.3882" lon="6.10221">
        <ele>298.79998779297</ele>
        <time>2016-06-08T13:01:06Z</time>
      </trkpt>
      <trkpt lat="43.38821" lon="6.10226">
        <ele>299.20001220703</ele>
        <time>2016-06-08T13:01:08Z</time>
      </trkpt>
      <trkpt lat="43.38821" lon="6.10229">
        <ele>299.39999389648</ele>
        <time>2016-06-08T13:01:10Z</time>
      </trkpt>
      <trkpt lat="43.38825" lon="6.10236">
        <ele>299.20001220703</ele>
        <time>2016-06-08T13:01:13Z</time>
      </trkpt>
      <trkpt lat="43.38828" lon="6.10252">
        <ele>298.20001220703</ele>
        <time>2016-06-08T13:01:18Z</time>
      </trkpt>
      <trkpt lat="43.38828" lon="6.10257">
        <ele>298</ele>
        <time>2016-06-08T13:01:19Z</time>
      </trkpt>
      <trkpt lat="43.38829" lon="6.10266">
        <ele>297.39999389648</ele>
        <time>2016-06-08T13:01:21Z</time>
      </trkpt>
      <trkpt lat="43.3883" lon="6.10274">
        <ele>297</ele>
        <time>2016-06-08T13:01:23Z</time>
      </trkpt>
      <trkpt lat="43.3883" lon="6.10287">
        <ele>296.39999389648</ele>
        <time>2016-06-08T13:01:26Z</time>
      </trkpt>
      <trkpt lat="43.38831" lon="6.10302">
        <ele>295.79998779297</ele>
        <time>2016-06-08T13:01:29Z</time>
      </trkpt>
      <trkpt lat="43.38831" lon="6.10312">
        <ele>295.20001220703</ele>
        <time>2016-06-08T13:01:31Z</time>
      </trkpt>
      <trkpt lat="43.38829" lon="6.10344">
        <ele>294.60000610352</ele>
        <time>2016-06-08T13:01:37Z</time>
      </trkpt>
      <trkpt lat="43.3883" lon="6.10373">
        <ele>294.20001220703</ele>
        <time>2016-06-08T13:01:42Z</time>
      </trkpt>
      <trkpt lat="43.3883" lon="6.10397">
        <ele>293.60000610352</ele>
        <time>2016-06-08T13:01:46Z</time>
      </trkpt>
      <trkpt lat="43.3883" lon="6.10403">
        <ele>293.39999389648</ele>
        <time>2016-06-08T13:01:47Z</time>
      </trkpt>
      <trkpt lat="43.38829" lon="6.10415">
        <ele>292.79998779297</ele>
        <time>2016-06-08T13:01:49Z</time>
      </trkpt>
      <trkpt lat="43.38828" lon="6.10425">
        <ele>292.79998779297</ele>
        <time>2016-06-08T13:01:51Z</time>
      </trkpt>
      <trkpt lat="43.38824" lon="6.10441">
        <ele>292.60000610352</ele>
        <time>2016-06-08T13:01:54Z</time>
      </trkpt>
      <trkpt lat="43.38824" lon="6.10458">
        <ele>291.79998779297</ele>
        <time>2016-06-08T13:01:58Z</time>
      </trkpt>
      <trkpt lat="43.38824" lon="6.10468">
        <ele>291.60000610352</ele>
        <time>2016-06-08T13:02:00Z</time>
      </trkpt>
      <trkpt lat="43.3882" lon="6.10494">
        <ele>291</ele>
        <time>2016-06-08T13:02:05Z</time>
      </trkpt>
      <trkpt lat="43.38816" lon="6.10511">
        <ele>290.60000610352</ele>
        <time>2016-06-08T13:02:09Z</time>
      </trkpt>
      <trkpt lat="43.38815" lon="6.10515">
        <ele>290.20001220703</ele>
        <time>2016-06-08T13:02:10Z</time>
      </trkpt>
      <trkpt lat="43.38813" lon="6.10521">
        <ele>289.60000610352</ele>
        <time>2016-06-08T13:02:12Z</time>
      </trkpt>
      <trkpt lat="43.38811" lon="6.10529">
        <ele>289.20001220703</ele>
        <time>2016-06-08T13:02:15Z</time>
      </trkpt>
      <trkpt lat="43.38811" lon="6.10549">
        <ele>288.39999389648</ele>
        <time>2016-06-08T13:02:22Z</time>
      </trkpt>
      <trkpt lat="43.38806" lon="6.1056">
        <ele>288.20001220703</ele>
        <time>2016-06-08T13:02:26Z</time>
      </trkpt>
      <trkpt lat="43.38805" lon="6.10563">
        <ele>288.39999389648</ele>
        <time>2016-06-08T13:02:27Z</time>
      </trkpt>
      <trkpt lat="43.38803" lon="6.10582">
        <ele>288.39999389648</ele>
        <time>2016-06-08T13:02:31Z</time>
      </trkpt>
      <trkpt lat="43.38802" lon="6.10588">
        <ele>288.39999389648</ele>
        <time>2016-06-08T13:02:32Z</time>
      </trkpt>
      <trkpt lat="43.38797" lon="6.10612">
        <ele>287.20001220703</ele>
        <time>2016-06-08T13:02:36Z</time>
      </trkpt>
      <trkpt lat="43.38796" lon="6.10618">
        <ele>287</ele>
        <time>2016-06-08T13:02:37Z</time>
      </trkpt>
      <trkpt lat="43.38794" lon="6.10633">
        <ele>286.20001220703</ele>
        <time>2016-06-08T13:02:41Z</time>
      </trkpt>
      <trkpt lat="43.38792" lon="6.10646">
        <ele>285</ele>
        <time>2016-06-08T13:02:46Z</time>
      </trkpt>
      <trkpt lat="43.38792" lon="6.1065">
        <ele>285.20001220703</ele>
        <time>2016-06-08T13:02:47Z</time>
      </trkpt>
      <trkpt lat="43.3879" lon="6.10657">
        <ele>284.60000610352</ele>
        <time>2016-06-08T13:02:49Z</time>
      </trkpt>
      <trkpt lat="43.38786" lon="6.10669">
        <ele>284.20001220703</ele>
        <time>2016-06-08T13:02:52Z</time>
      </trkpt>
      <trkpt lat="43.38781" lon="6.10692">
        <ele>284</ele>
        <time>2016-06-08T13:02:57Z</time>
      </trkpt>
      <trkpt lat="43.38777" lon="6.10714">
        <ele>283.60000610352</ele>
        <time>2016-06-08T13:03:02Z</time>
      </trkpt>
      <trkpt lat="43.38772" lon="6.1074">
        <ele>282.60000610352</ele>
        <time>2016-06-08T13:03:08Z</time>
      </trkpt>
      <trkpt lat="43.38773" lon="6.10743">
        <ele>282.60000610352</ele>
        <time>2016-06-08T13:03:09Z</time>
      </trkpt>
      <trkpt lat="43.38775" lon="6.10752">
        <ele>282.20001220703</ele>
        <time>2016-06-08T13:03:13Z</time>
      </trkpt>
      <trkpt lat="43.38778" lon="6.10755">
        <ele>282.20001220703</ele>
        <time>2016-06-08T13:03:14Z</time>
      </trkpt>
      <trkpt lat="43.3879" lon="6.10756">
        <ele>282.20001220703</ele>
        <time>2016-06-08T13:03:17Z</time>
      </trkpt>
      <trkpt lat="43.38799" lon="6.10756">
        <ele>281.79998779297</ele>
        <time>2016-06-08T13:03:19Z</time>
      </trkpt>
      <trkpt lat="43.38804" lon="6.10756">
        <ele>281.60000610352</ele>
        <time>2016-06-08T13:03:20Z</time>
      </trkpt>
      <trkpt lat="43.38815" lon="6.10755">
        <ele>281</ele>
        <time>2016-06-08T13:03:22Z</time>
      </trkpt>
      <trkpt lat="43.38825" lon="6.10754">
        <ele>280.39999389648</ele>
        <time>2016-06-08T13:03:24Z</time>
      </trkpt>
      <trkpt lat="43.3883" lon="6.10755">
        <ele>280</ele>
        <time>2016-06-08T13:03:26Z</time>
      </trkpt>
      <trkpt lat="43.38832" lon="6.10756">
        <ele>279.20001220703</ele>
        <time>2016-06-08T13:03:32Z</time>
      </trkpt>
      <trkpt lat="43.38833" lon="6.10757">
        <ele>279.20001220703</ele>
        <time>2016-06-08T13:03:41Z</time>
      </trkpt>
      <trkpt lat="43.38834" lon="6.10757">
        <ele>279.39999389648</ele>
        <time>2016-06-08T13:03:45Z</time>
      </trkpt>
      <trkpt lat="43.38837" lon="6.10757">
        <ele>279.20001220703</ele>
        <time>2016-06-08T13:03:47Z</time>
      </trkpt>
      <trkpt lat="43.38847" lon="6.10756">
        <ele>279.20001220703</ele>
        <time>2016-06-08T13:03:51Z</time>
      </trkpt>
      <trkpt lat="43.3885" lon="6.10756">
        <ele>279.39999389648</ele>
        <time>2016-06-08T13:03:52Z</time>
      </trkpt>
      <trkpt lat="43.3887" lon="6.10755">
        <ele>279.20001220703</ele>
        <time>2016-06-08T13:03:57Z</time>
      </trkpt>
      <trkpt lat="43.38903" lon="6.10763">
        <ele>278.79998779297</ele>
        <time>2016-06-08T13:04:04Z</time>
      </trkpt>
      <trkpt lat="43.38908" lon="6.10766">
        <ele>278.39999389648</ele>
        <time>2016-06-08T13:04:05Z</time>
      </trkpt>
      <trkpt lat="43.38914" lon="6.10776">
        <ele>278.20001220703</ele>
        <time>2016-06-08T13:04:07Z</time>
      </trkpt>
      <trkpt lat="43.38921" lon="6.10801">
        <ele>278.20001220703</ele>
        <time>2016-06-08T13:04:11Z</time>
      </trkpt>
      <trkpt lat="43.38923" lon="6.10805">
        <ele>278.20001220703</ele>
        <time>2016-06-08T13:04:12Z</time>
      </trkpt>
      <trkpt lat="43.38925" lon="6.1081">
        <ele>278</ele>
        <time>2016-06-08T13:04:14Z</time>
      </trkpt>
      <trkpt lat="43.38927" lon="6.10812">
        <ele>277.79998779297</ele>
        <time>2016-06-08T13:04:16Z</time>
      </trkpt>
      <trkpt lat="43.38928" lon="6.10813">
        <ele>277.39999389648</ele>
        <time>2016-06-08T13:04:26Z</time>
      </trkpt>
      <trkpt lat="43.38928" lon="6.10813">
        <ele>277.39999389648</ele>
        <time>2016-06-08T13:04:48Z</time>
      </trkpt>
      <trkpt lat="43.38928" lon="6.10813">
        <ele>278.20001220703</ele>
        <time>2016-06-08T13:06:21Z</time>
      </trkpt>
      <trkpt lat="43.3893" lon="6.10816">
        <ele>278.20001220703</ele>
        <time>2016-06-08T13:07:30Z</time>
      </trkpt>
      <trkpt lat="43.38943" lon="6.10824">
        <ele>278.20001220703</ele>
        <time>2016-06-08T13:07:35Z</time>
      </trkpt>
      <trkpt lat="43.38968" lon="6.10836">
        <ele>277.79998779297</ele>
        <time>2016-06-08T13:07:42Z</time>
      </trkpt>
      <trkpt lat="43.38978" lon="6.1084">
        <ele>277.39999389648</ele>
        <time>2016-06-08T13:07:44Z</time>
      </trkpt>
      <trkpt lat="43.38992" lon="6.10844">
        <ele>277.60000610352</ele>
        <time>2016-06-08T13:07:47Z</time>
      </trkpt>
      <trkpt lat="43.39022" lon="6.10831">
        <ele>277.60000610352</ele>
        <time>2016-06-08T13:07:53Z</time>
      </trkpt>
      <trkpt lat="43.39033" lon="6.10826">
        <ele>277</ele>
        <time>2016-06-08T13:07:55Z</time>
      </trkpt>
      <trkpt lat="43.39038" lon="6.10824">
        <ele>276.79998779297</ele>
        <time>2016-06-08T13:07:56Z</time>
      </trkpt>
      <trkpt lat="43.39062" lon="6.10818">
        <ele>276.39999389648</ele>
        <time>2016-06-08T13:08:01Z</time>
      </trkpt>
      <trkpt lat="43.39079" lon="6.10806">
        <ele>276.20001220703</ele>
        <time>2016-06-08T13:08:05Z</time>
      </trkpt>
      <trkpt lat="43.3909" lon="6.1079">
        <ele>276.39999389648</ele>
        <time>2016-06-08T13:08:08Z</time>
      </trkpt>
      <trkpt lat="43.39094" lon="6.10786">
        <ele>276.39999389648</ele>
        <time>2016-06-08T13:08:09Z</time>
      </trkpt>
      <trkpt lat="43.39109" lon="6.10775">
        <ele>276.39999389648</ele>
        <time>2016-06-08T13:08:12Z</time>
      </trkpt>
      <trkpt lat="43.3912" lon="6.10768">
        <ele>276.20001220703</ele>
        <time>2016-06-08T13:08:14Z</time>
      </trkpt>
      <trkpt lat="43.39127" lon="6.10765">
        <ele>275.79998779297</ele>
        <time>2016-06-08T13:08:15Z</time>
      </trkpt>
      <trkpt lat="43.39149" lon="6.1075">
        <ele>274.60000610352</ele>
        <time>2016-06-08T13:08:19Z</time>
      </trkpt>
      <trkpt lat="43.39154" lon="6.10745">
        <ele>274.39999389648</ele>
        <time>2016-06-08T13:08:20Z</time>
      </trkpt>
      <trkpt lat="43.3917" lon="6.10717">
        <ele>273.39999389648</ele>
        <time>2016-06-08T13:08:24Z</time>
      </trkpt>
      <trkpt lat="43.39176" lon="6.10697">
        <ele>272.60000610352</ele>
        <time>2016-06-08T13:08:27Z</time>
      </trkpt>
      <trkpt lat="43.39178" lon="6.10694">
        <ele>272.39999389648</ele>
        <time>2016-06-08T13:08:28Z</time>
      </trkpt>
      <trkpt lat="43.39179" lon="6.10692">
        <ele>272.39999389648</ele>
        <time>2016-06-08T13:08:29Z</time>
      </trkpt>
      <trkpt lat="43.3918" lon="6.10691">
        <ele>272.39999389648</ele>
        <time>2016-06-08T13:08:30Z</time>
      </trkpt>
      <trkpt lat="43.39181" lon="6.1069">
        <ele>271.79998779297</ele>
        <time>2016-06-08T13:08:40Z</time>
      </trkpt>
      <trkpt lat="43.3919" lon="6.10696">
        <ele>272</ele>
        <time>2016-06-08T13:08:47Z</time>
      </trkpt>
      <trkpt lat="43.39191" lon="6.10698">
        <ele>272</ele>
        <time>2016-06-08T13:08:48Z</time>
      </trkpt>
      <trkpt lat="43.39201" lon="6.10708">
        <ele>272.60000610352</ele>
        <time>2016-06-08T13:08:55Z</time>
      </trkpt>
      <trkpt lat="43.39207" lon="6.1072">
        <ele>273.20001220703</ele>
        <time>2016-06-08T13:09:01Z</time>
      </trkpt>
      <trkpt lat="43.3921" lon="6.10724">
        <ele>273.60000610352</ele>
        <time>2016-06-08T13:09:03Z</time>
      </trkpt>
      <trkpt lat="43.39216" lon="6.10731">
        <ele>274.20001220703</ele>
        <time>2016-06-08T13:09:07Z</time>
      </trkpt>
      <trkpt lat="43.39223" lon="6.10737">
        <ele>275</ele>
        <time>2016-06-08T13:09:11Z</time>
      </trkpt>
      <trkpt lat="43.39228" lon="6.10743">
        <ele>275.79998779297</ele>
        <time>2016-06-08T13:09:14Z</time>
      </trkpt>
      <trkpt lat="43.39231" lon="6.10751">
        <ele>276.39999389648</ele>
        <time>2016-06-08T13:09:17Z</time>
      </trkpt>
      <trkpt lat="43.39236" lon="6.1077">
        <ele>277.79998779297</ele>
        <time>2016-06-08T13:09:24Z</time>
      </trkpt>
      <trkpt lat="43.39236" lon="6.10773">
        <ele>278.20001220703</ele>
        <time>2016-06-08T13:09:25Z</time>
      </trkpt>
      <trkpt lat="43.39243" lon="6.10793">
        <ele>279.39999389648</ele>
        <time>2016-06-08T13:09:32Z</time>
      </trkpt>
      <trkpt lat="43.39246" lon="6.10805">
        <ele>280.20001220703</ele>
        <time>2016-06-08T13:09:36Z</time>
      </trkpt>
      <trkpt lat="43.39247" lon="6.10808">
        <ele>280.39999389648</ele>
        <time>2016-06-08T13:09:37Z</time>
      </trkpt>
      <trkpt lat="43.39248" lon="6.10829">
        <ele>281.39999389648</ele>
        <time>2016-06-08T13:09:43Z</time>
      </trkpt>
      <trkpt lat="43.39248" lon="6.10841">
        <ele>281.60000610352</ele>
        <time>2016-06-08T13:09:46Z</time>
      </trkpt>
      <trkpt lat="43.39251" lon="6.1086">
        <ele>281.79998779297</ele>
        <time>2016-06-08T13:09:51Z</time>
      </trkpt>
      <trkpt lat="43.39253" lon="6.10896">
        <ele>282.39999389648</ele>
        <time>2016-06-08T13:10:00Z</time>
      </trkpt>
      <trkpt lat="43.39253" lon="6.10908">
        <ele>282.60000610352</ele>
        <time>2016-06-08T13:10:03Z</time>
      </trkpt>
      <trkpt lat="43.39254" lon="6.10943">
        <ele>283.79998779297</ele>
        <time>2016-06-08T13:10:13Z</time>
      </trkpt>
      <trkpt lat="43.39257" lon="6.10967">
        <ele>285</ele>
        <time>2016-06-08T13:10:20Z</time>
      </trkpt>
      <trkpt lat="43.39257" lon="6.10982">
        <ele>285.60000610352</ele>
        <time>2016-06-08T13:10:25Z</time>
      </trkpt>
      <trkpt lat="43.39257" lon="6.10989">
        <ele>286.20001220703</ele>
        <time>2016-06-08T13:10:27Z</time>
      </trkpt>
      <trkpt lat="43.39258" lon="6.10998">
        <ele>286.60000610352</ele>
        <time>2016-06-08T13:10:30Z</time>
      </trkpt>
      <trkpt lat="43.39259" lon="6.11009">
        <ele>287.79998779297</ele>
        <time>2016-06-08T13:10:34Z</time>
      </trkpt>
      <trkpt lat="43.39259" lon="6.11015">
        <ele>288.39999389648</ele>
        <time>2016-06-08T13:10:36Z</time>
      </trkpt>
      <trkpt lat="43.39259" lon="6.11026">
        <ele>288.79998779297</ele>
        <time>2016-06-08T13:10:40Z</time>
      </trkpt>
      <trkpt lat="43.3926" lon="6.11037">
        <ele>289.60000610352</ele>
        <time>2016-06-08T13:10:44Z</time>
      </trkpt>
      <trkpt lat="43.39261" lon="6.1105">
        <ele>290</ele>
        <time>2016-06-08T13:10:49Z</time>
      </trkpt>
      <trkpt lat="43.3926" lon="6.1107">
        <ele>291.20001220703</ele>
        <time>2016-06-08T13:10:56Z</time>
      </trkpt>
      <trkpt lat="43.39261" lon="6.11076">
        <ele>291.39999389648</ele>
        <time>2016-06-08T13:10:58Z</time>
      </trkpt>
      <trkpt lat="43.3926" lon="6.111">
        <ele>291.79998779297</ele>
        <time>2016-06-08T13:11:06Z</time>
      </trkpt>
      <trkpt lat="43.39259" lon="6.1112">
        <ele>292</ele>
        <time>2016-06-08T13:11:12Z</time>
      </trkpt>
      <trkpt lat="43.39259" lon="6.1113">
        <ele>292.20001220703</ele>
        <time>2016-06-08T13:11:15Z</time>
      </trkpt>
      <trkpt lat="43.39257" lon="6.11147">
        <ele>292.39999389648</ele>
        <time>2016-06-08T13:11:20Z</time>
      </trkpt>
      <trkpt lat="43.39256" lon="6.11154">
        <ele>292.39999389648</ele>
        <time>2016-06-08T13:11:22Z</time>
      </trkpt>
      <trkpt lat="43.39253" lon="6.11171">
        <ele>292.79998779297</ele>
        <time>2016-06-08T13:11:28Z</time>
      </trkpt>
      <trkpt lat="43.39252" lon="6.11175">
        <ele>293</ele>
        <time>2016-06-08T13:11:30Z</time>
      </trkpt>
      <trkpt lat="43.39251" lon="6.11182">
        <ele>293.20001220703</ele>
        <time>2016-06-08T13:11:33Z</time>
      </trkpt>
      <trkpt lat="43.39251" lon="6.11192">
        <ele>293.39999389648</ele>
        <time>2016-06-08T13:11:37Z</time>
      </trkpt>
      <trkpt lat="43.39252" lon="6.11194">
        <ele>293.39999389648</ele>
        <time>2016-06-08T13:11:39Z</time>
      </trkpt>
      <trkpt lat="43.39254" lon="6.11195">
        <ele>293.79998779297</ele>
        <time>2016-06-08T13:11:44Z</time>
      </trkpt>
      <trkpt lat="43.39254" lon="6.11195">
        <ele>293.39999389648</ele>
        <time>2016-06-08T13:11:53Z</time>
      </trkpt>
      <trkpt lat="43.39254" lon="6.11195">
        <ele>293.60000610352</ele>
        <time>2016-06-08T13:11:58Z</time>
      </trkpt>
      <trkpt lat="43.39254" lon="6.11195">
        <ele>293.39999389648</ele>
        <time>2016-06-08T13:12:02Z</time>
      </trkpt>
      <trkpt lat="43.39254" lon="6.11197">
        <ele>293.60000610352</ele>
        <time>2016-06-08T13:12:08Z</time>
      </trkpt>
      <trkpt lat="43.39254" lon="6.11199">
        <ele>293.60000610352</ele>
        <time>2016-06-08T13:12:09Z</time>
      </trkpt>
      <trkpt lat="43.39257" lon="6.11208">
        <ele>293.39999389648</ele>
        <time>2016-06-08T13:12:13Z</time>
      </trkpt>
      <trkpt lat="43.39264" lon="6.11212">
        <ele>293.79998779297</ele>
        <time>2016-06-08T13:12:17Z</time>
      </trkpt>
      <trkpt lat="43.39265" lon="6.11213">
        <ele>293.79998779297</ele>
        <time>2016-06-08T13:12:18Z</time>
      </trkpt>
      <trkpt lat="43.39268" lon="6.11214">
        <ele>294</ele>
        <time>2016-06-08T13:12:19Z</time>
      </trkpt>
      <trkpt lat="43.39278" lon="6.11213">
        <ele>294</ele>
        <time>2016-06-08T13:12:23Z</time>
      </trkpt>
      <trkpt lat="43.39283" lon="6.11214">
        <ele>294</ele>
        <time>2016-06-08T13:12:25Z</time>
      </trkpt>
      <trkpt lat="43.39299" lon="6.11217">
        <ele>294.39999389648</ele>
        <time>2016-06-08T13:12:31Z</time>
      </trkpt>
      <trkpt lat="43.39318" lon="6.11218">
        <ele>294.39999389648</ele>
        <time>2016-06-08T13:12:38Z</time>
      </trkpt>
      <trkpt lat="43.39334" lon="6.11217">
        <ele>294.60000610352</ele>
        <time>2016-06-08T13:12:45Z</time>
      </trkpt>
      <trkpt lat="43.39346" lon="6.11215">
        <ele>294.79998779297</ele>
        <time>2016-06-08T13:12:50Z</time>
      </trkpt>
      <trkpt lat="43.39349" lon="6.11215">
        <ele>295</ele>
        <time>2016-06-08T13:12:51Z</time>
      </trkpt>
      <trkpt lat="43.3937" lon="6.11211">
        <ele>295.60000610352</ele>
        <time>2016-06-08T13:13:00Z</time>
      </trkpt>
      <trkpt lat="43.39377" lon="6.11209">
        <ele>296</ele>
        <time>2016-06-08T13:13:03Z</time>
      </trkpt>
      <trkpt lat="43.39384" lon="6.11208">
        <ele>296.20001220703</ele>
        <time>2016-06-08T13:13:06Z</time>
      </trkpt>
      <trkpt lat="43.39396" lon="6.11207">
        <ele>296.60000610352</ele>
        <time>2016-06-08T13:13:11Z</time>
      </trkpt>
      <trkpt lat="43.39401" lon="6.11209">
        <ele>296.79998779297</ele>
        <time>2016-06-08T13:13:13Z</time>
      </trkpt>
      <trkpt lat="43.39408" lon="6.11212">
        <ele>297.39999389648</ele>
        <time>2016-06-08T13:13:16Z</time>
      </trkpt>
      <trkpt lat="43.39413" lon="6.11215">
        <ele>298</ele>
        <time>2016-06-08T13:13:18Z</time>
      </trkpt>
      <trkpt lat="43.39428" lon="6.11231">
        <ele>299.20001220703</ele>
        <time>2016-06-08T13:13:26Z</time>
      </trkpt>
      <trkpt lat="43.3944" lon="6.11236">
        <ele>299.79998779297</ele>
        <time>2016-06-08T13:13:32Z</time>
      </trkpt>
      <trkpt lat="43.3945" lon="6.11239">
        <ele>300.79998779297</ele>
        <time>2016-06-08T13:13:38Z</time>
      </trkpt>
      <trkpt lat="43.39452" lon="6.1124">
        <ele>301</ele>
        <time>2016-06-08T13:13:39Z</time>
      </trkpt>
      <trkpt lat="43.39464" lon="6.11243">
        <ele>301.60000610352</ele>
        <time>2016-06-08T13:13:46Z</time>
      </trkpt>
      <trkpt lat="43.39469" lon="6.11242">
        <ele>302.20001220703</ele>
        <time>2016-06-08T13:13:49Z</time>
      </trkpt>
      <trkpt lat="43.39478" lon="6.11242">
        <ele>303.20001220703</ele>
        <time>2016-06-08T13:13:55Z</time>
      </trkpt>
      <trkpt lat="43.39487" lon="6.1124">
        <ele>304.20001220703</ele>
        <time>2016-06-08T13:14:02Z</time>
      </trkpt>
      <trkpt lat="43.39489" lon="6.11239">
        <ele>304</ele>
        <time>2016-06-08T13:14:03Z</time>
      </trkpt>
      <trkpt lat="43.39497" lon="6.11236">
        <ele>305</ele>
        <time>2016-06-08T13:14:09Z</time>
      </trkpt>
      <trkpt lat="43.39499" lon="6.11236">
        <ele>305.20001220703</ele>
        <time>2016-06-08T13:14:10Z</time>
      </trkpt>
      <trkpt lat="43.39505" lon="6.11236">
        <ele>306.20001220703</ele>
        <time>2016-06-08T13:14:15Z</time>
      </trkpt>
      <trkpt lat="43.39507" lon="6.11236">
        <ele>306.20001220703</ele>
        <time>2016-06-08T13:14:16Z</time>
      </trkpt>
      <trkpt lat="43.3952" lon="6.11239">
        <ele>306.60000610352</ele>
        <time>2016-06-08T13:14:24Z</time>
      </trkpt>
      <trkpt lat="43.39524" lon="6.11247">
        <ele>307.60000610352</ele>
        <time>2016-06-08T13:14:29Z</time>
      </trkpt>
      <trkpt lat="43.39525" lon="6.11255">
        <ele>307.79998779297</ele>
        <time>2016-06-08T13:14:34Z</time>
      </trkpt>
      <trkpt lat="43.39525" lon="6.11258">
        <ele>307.79998779297</ele>
        <time>2016-06-08T13:14:36Z</time>
      </trkpt>
      <trkpt lat="43.39524" lon="6.11264">
        <ele>307.79998779297</ele>
        <time>2016-06-08T13:14:39Z</time>
      </trkpt>
      <trkpt lat="43.39523" lon="6.11271">
        <ele>307.60000610352</ele>
        <time>2016-06-08T13:14:42Z</time>
      </trkpt>
      <trkpt lat="43.39523" lon="6.11273">
        <ele>307.39999389648</ele>
        <time>2016-06-08T13:14:43Z</time>
      </trkpt>
      <trkpt lat="43.39522" lon="6.11287">
        <ele>307.20001220703</ele>
        <time>2016-06-08T13:14:49Z</time>
      </trkpt>
      <trkpt lat="43.39522" lon="6.11287">
        <ele>306.79998779297</ele>
        <time>2016-06-08T13:14:55Z</time>
      </trkpt>
      <trkpt lat="43.39522" lon="6.11287">
        <ele>307.20001220703</ele>
        <time>2016-06-08T13:15:02Z</time>
      </trkpt>
      <trkpt lat="43.39522" lon="6.11287">
        <ele>307.39999389648</ele>
        <time>2016-06-08T13:15:10Z</time>
      </trkpt>
      <trkpt lat="43.39522" lon="6.11288">
        <ele>307</ele>
        <time>2016-06-08T13:15:14Z</time>
      </trkpt>
      <trkpt lat="43.39521" lon="6.1129">
        <ele>307</ele>
        <time>2016-06-08T13:15:15Z</time>
      </trkpt>
      <trkpt lat="43.3952" lon="6.11299">
        <ele>307</ele>
        <time>2016-06-08T13:15:18Z</time>
      </trkpt>
      <trkpt lat="43.39518" lon="6.11313">
        <ele>306.79998779297</ele>
        <time>2016-06-08T13:15:22Z</time>
      </trkpt>
      <trkpt lat="43.39515" lon="6.11338">
        <ele>306.79998779297</ele>
        <time>2016-06-08T13:15:29Z</time>
      </trkpt>
      <trkpt lat="43.39511" lon="6.11365">
        <ele>306.79998779297</ele>
        <time>2016-06-08T13:15:37Z</time>
      </trkpt>
      <trkpt lat="43.39508" lon="6.11393">
        <ele>307</ele>
        <time>2016-06-08T13:15:45Z</time>
      </trkpt>
      <trkpt lat="43.39503" lon="6.11432">
        <ele>306.79998779297</ele>
        <time>2016-06-08T13:15:53Z</time>
      </trkpt>
      <trkpt lat="43.39501" lon="6.11464">
        <ele>305.39999389648</ele>
        <time>2016-06-08T13:15:58Z</time>
      </trkpt>
      <trkpt lat="43.39501" lon="6.11471">
        <ele>305.20001220703</ele>
        <time>2016-06-08T13:15:59Z</time>
      </trkpt>
      <trkpt lat="43.39501" lon="6.11486">
        <ele>305</ele>
        <time>2016-06-08T13:16:01Z</time>
      </trkpt>
      <trkpt lat="43.39505" lon="6.11499">
        <ele>304.20001220703</ele>
        <time>2016-06-08T13:16:03Z</time>
      </trkpt>
      <trkpt lat="43.39508" lon="6.11504">
        <ele>303.79998779297</ele>
        <time>2016-06-08T13:16:04Z</time>
      </trkpt>
      <trkpt lat="43.39515" lon="6.11511">
        <ele>303.20001220703</ele>
        <time>2016-06-08T13:16:06Z</time>
      </trkpt>
      <trkpt lat="43.39522" lon="6.11515">
        <ele>303.20001220703</ele>
        <time>2016-06-08T13:16:08Z</time>
      </trkpt>
      <trkpt lat="43.3954" lon="6.11524">
        <ele>303.79998779297</ele>
        <time>2016-06-08T13:16:14Z</time>
      </trkpt>
      <trkpt lat="43.39548" lon="6.1153">
        <ele>304</ele>
        <time>2016-06-08T13:16:17Z</time>
      </trkpt>
      <trkpt lat="43.39555" lon="6.11531">
        <ele>303.60000610352</ele>
        <time>2016-06-08T13:16:19Z</time>
      </trkpt>
      <trkpt lat="43.3957" lon="6.11526">
        <ele>303.60000610352</ele>
        <time>2016-06-08T13:16:25Z</time>
      </trkpt>
      <trkpt lat="43.3958" lon="6.11519">
        <ele>304.20001220703</ele>
        <time>2016-06-08T13:16:30Z</time>
      </trkpt>
      <trkpt lat="43.39585" lon="6.11514">
        <ele>304.39999389648</ele>
        <time>2016-06-08T13:16:33Z</time>
      </trkpt>
      <trkpt lat="43.39593" lon="6.11509">
        <ele>305</ele>
        <time>2016-06-08T13:16:38Z</time>
      </trkpt>
      <trkpt lat="43.39594" lon="6.11507">
        <ele>305</ele>
        <time>2016-06-08T13:16:39Z</time>
      </trkpt>
      <trkpt lat="43.39601" lon="6.11497">
        <ele>305</ele>
        <time>2016-06-08T13:16:47Z</time>
      </trkpt>
      <trkpt lat="43.39602" lon="6.11497">
        <ele>305.20001220703</ele>
        <time>2016-06-08T13:16:56Z</time>
      </trkpt>
      <trkpt lat="43.39603" lon="6.11494">
        <ele>305.20001220703</ele>
        <time>2016-06-08T13:16:59Z</time>
      </trkpt>
      <trkpt lat="43.39604" lon="6.1149">
        <ele>305.39999389648</ele>
        <time>2016-06-08T13:17:01Z</time>
      </trkpt>
      <trkpt lat="43.39609" lon="6.1148">
        <ele>305.79998779297</ele>
        <time>2016-06-08T13:17:05Z</time>
      </trkpt>
      <trkpt lat="43.39613" lon="6.11471">
        <ele>306.20001220703</ele>
        <time>2016-06-08T13:17:08Z</time>
      </trkpt>
      <trkpt lat="43.39618" lon="6.11458">
        <ele>306.60000610352</ele>
        <time>2016-06-08T13:17:11Z</time>
      </trkpt>
      <trkpt lat="43.39621" lon="6.11449">
        <ele>306.79998779297</ele>
        <time>2016-06-08T13:17:13Z</time>
      </trkpt>
      <trkpt lat="43.39626" lon="6.11432">
        <ele>307.60000610352</ele>
        <time>2016-06-08T13:17:17Z</time>
      </trkpt>
      <trkpt lat="43.39634" lon="6.1141">
        <ele>307.79998779297</ele>
        <time>2016-06-08T13:17:22Z</time>
      </trkpt>
      <trkpt lat="43.39636" lon="6.11405">
        <ele>308</ele>
        <time>2016-06-08T13:17:23Z</time>
      </trkpt>
      <trkpt lat="43.39639" lon="6.11396">
        <ele>308.79998779297</ele>
        <time>2016-06-08T13:17:25Z</time>
      </trkpt>
      <trkpt lat="43.39642" lon="6.11383">
        <ele>309.20001220703</ele>
        <time>2016-06-08T13:17:28Z</time>
      </trkpt>
      <trkpt lat="43.39642" lon="6.11375">
        <ele>309.20001220703</ele>
        <time>2016-06-08T13:17:30Z</time>
      </trkpt>
      <trkpt lat="43.39644" lon="6.11362">
        <ele>310.20001220703</ele>
        <time>2016-06-08T13:17:33Z</time>
      </trkpt>
      <trkpt lat="43.39647" lon="6.11346">
        <ele>311.20001220703</ele>
        <time>2016-06-08T13:17:37Z</time>
      </trkpt>
      <trkpt lat="43.39652" lon="6.11315">
        <ele>312.20001220703</ele>
        <time>2016-06-08T13:17:46Z</time>
      </trkpt>
      <trkpt lat="43.39651" lon="6.11295">
        <ele>311.39999389648</ele>
        <time>2016-06-08T13:17:51Z</time>
      </trkpt>
      <trkpt lat="43.39652" lon="6.11291">
        <ele>311.20001220703</ele>
        <time>2016-06-08T13:17:52Z</time>
      </trkpt>
      <trkpt lat="43.39655" lon="6.11278">
        <ele>311.20001220703</ele>
        <time>2016-06-08T13:17:55Z</time>
      </trkpt>
      <trkpt lat="43.39657" lon="6.11262">
        <ele>311</ele>
        <time>2016-06-08T13:17:58Z</time>
      </trkpt>
      <trkpt lat="43.39658" lon="6.11245">
        <ele>310</ele>
        <time>2016-06-08T13:18:01Z</time>
      </trkpt>
      <trkpt lat="43.39659" lon="6.11233">
        <ele>310</ele>
        <time>2016-06-08T13:18:04Z</time>
      </trkpt>
      <trkpt lat="43.39659" lon="6.1123">
        <ele>309.79998779297</ele>
        <time>2016-06-08T13:18:08Z</time>
      </trkpt>
      <trkpt lat="43.39659" lon="6.1123">
        <ele>309.79998779297</ele>
        <time>2016-06-08T13:18:11Z</time>
      </trkpt>
      <trkpt lat="43.39659" lon="6.1123">
        <ele>309.79998779297</ele>
        <time>2016-06-08T13:18:14Z</time>
      </trkpt>
      <trkpt lat="43.39659" lon="6.1123">
        <ele>309.79998779297</ele>
        <time>2016-06-08T13:18:17Z</time>
      </trkpt>
      <trkpt lat="43.39658" lon="6.1123">
        <ele>309.79998779297</ele>
        <time>2016-06-08T13:18:20Z</time>
      </trkpt>
      <trkpt lat="43.39659" lon="6.11229">
        <ele>309.79998779297</ele>
        <time>2016-06-08T13:18:24Z</time>
      </trkpt>
      <trkpt lat="43.39659" lon="6.11229">
        <ele>309.79998779297</ele>
        <time>2016-06-08T13:18:34Z</time>
      </trkpt>
      <trkpt lat="43.39659" lon="6.11229">
        <ele>309.79998779297</ele>
        <time>2016-06-08T13:18:43Z</time>
      </trkpt>
      <trkpt lat="43.3966" lon="6.11227">
        <ele>309.60000610352</ele>
        <time>2016-06-08T13:18:52Z</time>
      </trkpt>
      <trkpt lat="43.39661" lon="6.11225">
        <ele>309.39999389648</ele>
        <time>2016-06-08T13:18:53Z</time>
      </trkpt>
      <trkpt lat="43.39665" lon="6.11211">
        <ele>309</ele>
        <time>2016-06-08T13:18:57Z</time>
      </trkpt>
      <trkpt lat="43.39667" lon="6.11206">
        <ele>308.39999389648</ele>
        <time>2016-06-08T13:18:59Z</time>
      </trkpt>
      <trkpt lat="43.39673" lon="6.11193">
        <ele>307.39999389648</ele>
        <time>2016-06-08T13:19:03Z</time>
      </trkpt>
      <trkpt lat="43.39675" lon="6.11189">
        <ele>307.20001220703</ele>
        <time>2016-06-08T13:19:04Z</time>
      </trkpt>
      <trkpt lat="43.3968" lon="6.1117">
        <ele>306</ele>
        <time>2016-06-08T13:19:08Z</time>
      </trkpt>
      <trkpt lat="43.39684" lon="6.11152">
        <ele>305.60000610352</ele>
        <time>2016-06-08T13:19:11Z</time>
      </trkpt>
      <trkpt lat="43.39685" lon="6.11145">
        <ele>305.20001220703</ele>
        <time>2016-06-08T13:19:12Z</time>
      </trkpt>
      <trkpt lat="43.39688" lon="6.1114">
        <ele>304.79998779297</ele>
        <time>2016-06-08T13:19:13Z</time>
      </trkpt>
      <trkpt lat="43.39694" lon="6.11125">
        <ele>304.60000610352</ele>
        <time>2016-06-08T13:19:16Z</time>
      </trkpt>
      <trkpt lat="43.39695" lon="6.11115">
        <ele>304</ele>
        <time>2016-06-08T13:19:18Z</time>
      </trkpt>
      <trkpt lat="43.39695" lon="6.11103">
        <ele>303.79998779297</ele>
        <time>2016-06-08T13:19:20Z</time>
      </trkpt>
      <trkpt lat="43.39696" lon="6.11095">
        <ele>303.20001220703</ele>
        <time>2016-06-08T13:19:21Z</time>
      </trkpt>
      <trkpt lat="43.39695" lon="6.11088">
        <ele>302.60000610352</ele>
        <time>2016-06-08T13:19:22Z</time>
      </trkpt>
      <trkpt lat="43.39693" lon="6.11074">
        <ele>301.60000610352</ele>
        <time>2016-06-08T13:19:24Z</time>
      </trkpt>
      <trkpt lat="43.39694" lon="6.11067">
        <ele>301.20001220703</ele>
        <time>2016-06-08T13:19:25Z</time>
      </trkpt>
      <trkpt lat="43.39695" lon="6.11052">
        <ele>300.60000610352</ele>
        <time>2016-06-08T13:19:27Z</time>
      </trkpt>
      <trkpt lat="43.39694" lon="6.11044">
        <ele>300.60000610352</ele>
        <time>2016-06-08T13:19:28Z</time>
      </trkpt>
      <trkpt lat="43.39693" lon="6.11037">
        <ele>300.39999389648</ele>
        <time>2016-06-08T13:19:29Z</time>
      </trkpt>
      <trkpt lat="43.39689" lon="6.11023">
        <ele>299.79998779297</ele>
        <time>2016-06-08T13:19:31Z</time>
      </trkpt>
      <trkpt lat="43.39686" lon="6.11016">
        <ele>299.60000610352</ele>
        <time>2016-06-08T13:19:32Z</time>
      </trkpt>
      <trkpt lat="43.39684" lon="6.1101">
        <ele>299.39999389648</ele>
        <time>2016-06-08T13:19:33Z</time>
      </trkpt>
      <trkpt lat="43.39683" lon="6.10996">
        <ele>298.60000610352</ele>
        <time>2016-06-08T13:19:35Z</time>
      </trkpt>
      <trkpt lat="43.39681" lon="6.10982">
        <ele>298.39999389648</ele>
        <time>2016-06-08T13:19:37Z</time>
      </trkpt>
      <trkpt lat="43.39672" lon="6.10966">
        <ele>298.20001220703</ele>
        <time>2016-06-08T13:19:40Z</time>
      </trkpt>
      <trkpt lat="43.39668" lon="6.10954">
        <ele>297.79998779297</ele>
        <time>2016-06-08T13:19:43Z</time>
      </trkpt>
      <trkpt lat="43.39667" lon="6.10948">
        <ele>297.39999389648</ele>
        <time>2016-06-08T13:19:45Z</time>
      </trkpt>
      <trkpt lat="43.39668" lon="6.10939">
        <ele>296.79998779297</ele>
        <time>2016-06-08T13:19:47Z</time>
      </trkpt>
      <trkpt lat="43.39667" lon="6.10927">
        <ele>296.60000610352</ele>
        <time>2016-06-08T13:19:49Z</time>
      </trkpt>
      <trkpt lat="43.39667" lon="6.10921">
        <ele>296.39999389648</ele>
        <time>2016-06-08T13:19:50Z</time>
      </trkpt>
      <trkpt lat="43.39665" lon="6.10914">
        <ele>296</ele>
        <time>2016-06-08T13:19:51Z</time>
      </trkpt>
      <trkpt lat="43.39663" lon="6.10907">
        <ele>295.20001220703</ele>
        <time>2016-06-08T13:19:52Z</time>
      </trkpt>
      <trkpt lat="43.39662" lon="6.109">
        <ele>294.60000610352</ele>
        <time>2016-06-08T13:19:53Z</time>
      </trkpt>
      <trkpt lat="43.3966" lon="6.10893">
        <ele>294</ele>
        <time>2016-06-08T13:19:54Z</time>
      </trkpt>
      <trkpt lat="43.39655" lon="6.10881">
        <ele>293.79998779297</ele>
        <time>2016-06-08T13:19:56Z</time>
      </trkpt>
      <trkpt lat="43.39647" lon="6.10855">
        <ele>293.60000610352</ele>
        <time>2016-06-08T13:20:01Z</time>
      </trkpt>
      <trkpt lat="43.39643" lon="6.10845">
        <ele>292.79998779297</ele>
        <time>2016-06-08T13:20:03Z</time>
      </trkpt>
      <trkpt lat="43.39637" lon="6.10827">
        <ele>292.20001220703</ele>
        <time>2016-06-08T13:20:06Z</time>
      </trkpt>
      <trkpt lat="43.39633" lon="6.10814">
        <ele>291.60000610352</ele>
        <time>2016-06-08T13:20:08Z</time>
      </trkpt>
      <trkpt lat="43.39628" lon="6.10797">
        <ele>290.79998779297</ele>
        <time>2016-06-08T13:20:11Z</time>
      </trkpt>
      <trkpt lat="43.39622" lon="6.10785">
        <ele>290.39999389648</ele>
        <time>2016-06-08T13:20:13Z</time>
      </trkpt>
      <trkpt lat="43.39617" lon="6.10771">
        <ele>290</ele>
        <time>2016-06-08T13:20:15Z</time>
      </trkpt>
      <trkpt lat="43.39614" lon="6.10757">
        <ele>289.39999389648</ele>
        <time>2016-06-08T13:20:17Z</time>
      </trkpt>
      <trkpt lat="43.3961" lon="6.10742">
        <ele>288.60000610352</ele>
        <time>2016-06-08T13:20:20Z</time>
      </trkpt>
      <trkpt lat="43.39606" lon="6.10729">
        <ele>287.60000610352</ele>
        <time>2016-06-08T13:20:24Z</time>
      </trkpt>
      <trkpt lat="43.39605" lon="6.10722">
        <ele>287.39999389648</ele>
        <time>2016-06-08T13:20:26Z</time>
      </trkpt>
      <trkpt lat="43.39602" lon="6.10713">
        <ele>287</ele>
        <time>2016-06-08T13:20:29Z</time>
      </trkpt>
      <trkpt lat="43.39603" lon="6.10701">
        <ele>285.39999389648</ele>
        <time>2016-06-08T13:20:32Z</time>
      </trkpt>
      <trkpt lat="43.39603" lon="6.10696">
        <ele>285.20001220703</ele>
        <time>2016-06-08T13:20:33Z</time>
      </trkpt>
      <trkpt lat="43.39603" lon="6.10693">
        <ele>285</ele>
        <time>2016-06-08T13:20:34Z</time>
      </trkpt>
      <trkpt lat="43.39602" lon="6.10685">
        <ele>284.20001220703</ele>
        <time>2016-06-08T13:20:36Z</time>
      </trkpt>
      <trkpt lat="43.39602" lon="6.10682">
        <ele>283.79998779297</ele>
        <time>2016-06-08T13:20:37Z</time>
      </trkpt>
      <trkpt lat="43.39601" lon="6.10677">
        <ele>283</ele>
        <time>2016-06-08T13:20:39Z</time>
      </trkpt>
      <trkpt lat="43.396" lon="6.10667">
        <ele>282.39999389648</ele>
        <time>2016-06-08T13:20:42Z</time>
      </trkpt>
      <trkpt lat="43.39599" lon="6.10648">
        <ele>281.60000610352</ele>
        <time>2016-06-08T13:20:46Z</time>
      </trkpt>
      <trkpt lat="43.39592" lon="6.10621">
        <ele>280.79998779297</ele>
        <time>2016-06-08T13:20:52Z</time>
      </trkpt>
      <trkpt lat="43.39588" lon="6.1061">
        <ele>280.39999389648</ele>
        <time>2016-06-08T13:20:55Z</time>
      </trkpt>
      <trkpt lat="43.39584" lon="6.10601">
        <ele>280</ele>
        <time>2016-06-08T13:20:58Z</time>
      </trkpt>
      <trkpt lat="43.39579" lon="6.10583">
        <ele>279.39999389648</ele>
        <time>2016-06-08T13:21:02Z</time>
      </trkpt>
      <trkpt lat="43.39577" lon="6.10568">
        <ele>278.20001220703</ele>
        <time>2016-06-08T13:21:05Z</time>
      </trkpt>
      <trkpt lat="43.39574" lon="6.10559">
        <ele>277.20001220703</ele>
        <time>2016-06-08T13:21:07Z</time>
      </trkpt>
      <trkpt lat="43.39569" lon="6.10539">
        <ele>276.79998779297</ele>
        <time>2016-06-08T13:21:11Z</time>
      </trkpt>
      <trkpt lat="43.39568" lon="6.10533">
        <ele>277</ele>
        <time>2016-06-08T13:21:12Z</time>
      </trkpt>
      <trkpt lat="43.39569" lon="6.10504">
        <ele>276.39999389648</ele>
        <time>2016-06-08T13:21:17Z</time>
      </trkpt>
      <trkpt lat="43.39568" lon="6.10498">
        <ele>275.79998779297</ele>
        <time>2016-06-08T13:21:18Z</time>
      </trkpt>
      <trkpt lat="43.39563" lon="6.10472">
        <ele>274.39999389648</ele>
        <time>2016-06-08T13:21:22Z</time>
      </trkpt>
      <trkpt lat="43.39562" lon="6.10466">
        <ele>273.79998779297</ele>
        <time>2016-06-08T13:21:23Z</time>
      </trkpt>
      <trkpt lat="43.39559" lon="6.10454">
        <ele>273.20001220703</ele>
        <time>2016-06-08T13:21:26Z</time>
      </trkpt>
      <trkpt lat="43.39558" lon="6.1045">
        <ele>273</ele>
        <time>2016-06-08T13:21:27Z</time>
      </trkpt>
      <trkpt lat="43.39554" lon="6.10431">
        <ele>272</ele>
        <time>2016-06-08T13:21:31Z</time>
      </trkpt>
      <trkpt lat="43.39552" lon="6.10427">
        <ele>271.79998779297</ele>
        <time>2016-06-08T13:21:32Z</time>
      </trkpt>
      <trkpt lat="43.39547" lon="6.10406">
        <ele>271</ele>
        <time>2016-06-08T13:21:37Z</time>
      </trkpt>
      <trkpt lat="43.39546" lon="6.10402">
        <ele>271</ele>
        <time>2016-06-08T13:21:38Z</time>
      </trkpt>
      <trkpt lat="43.39544" lon="6.10398">
        <ele>270.79998779297</ele>
        <time>2016-06-08T13:21:39Z</time>
      </trkpt>
      <trkpt lat="43.39541" lon="6.10395">
        <ele>270.60000610352</ele>
        <time>2016-06-08T13:21:40Z</time>
      </trkpt>
      <trkpt lat="43.39529" lon="6.10386">
        <ele>269.60000610352</ele>
        <time>2016-06-08T13:21:44Z</time>
      </trkpt>
      <trkpt lat="43.39513" lon="6.10383">
        <ele>269.79998779297</ele>
        <time>2016-06-08T13:21:49Z</time>
      </trkpt>
      <trkpt lat="43.39506" lon="6.10383">
        <ele>268.60000610352</ele>
        <time>2016-06-08T13:21:51Z</time>
      </trkpt>
      <trkpt lat="43.39498" lon="6.10381">
        <ele>268.20001220703</ele>
        <time>2016-06-08T13:21:54Z</time>
      </trkpt>
      <trkpt lat="43.39491" lon="6.1038">
        <ele>267.60000610352</ele>
        <time>2016-06-08T13:21:58Z</time>
      </trkpt>
      <trkpt lat="43.39486" lon="6.10379">
        <ele>267.39999389648</ele>
        <time>2016-06-08T13:22:01Z</time>
      </trkpt>
      <trkpt lat="43.39471" lon="6.10372">
        <ele>266.39999389648</ele>
        <time>2016-06-08T13:22:08Z</time>
      </trkpt>
      <trkpt lat="43.39462" lon="6.10372">
        <ele>265.60000610352</ele>
        <time>2016-06-08T13:22:12Z</time>
      </trkpt>
      <trkpt lat="43.39457" lon="6.10373">
        <ele>265.39999389648</ele>
        <time>2016-06-08T13:22:15Z</time>
      </trkpt>
      <trkpt lat="43.39456" lon="6.10373">
        <ele>265.60000610352</ele>
        <time>2016-06-08T13:22:17Z</time>
      </trkpt>
      <trkpt lat="43.39455" lon="6.10373">
        <ele>266.20001220703</ele>
        <time>2016-06-08T13:22:40Z</time>
      </trkpt>
      <trkpt lat="43.39456" lon="6.10373">
        <ele>266</ele>
        <time>2016-06-08T13:23:04Z</time>
      </trkpt>
      <trkpt lat="43.39456" lon="6.10373">
        <ele>265.60000610352</ele>
        <time>2016-06-08T13:23:17Z</time>
      </trkpt>
      <trkpt lat="43.39455" lon="6.10373">
        <ele>266</ele>
        <time>2016-06-08T13:23:42Z</time>
      </trkpt>
      <trkpt lat="43.39455" lon="6.10373">
        <ele>266.20001220703</ele>
        <time>2016-06-08T13:23:54Z</time>
      </trkpt>
      <trkpt lat="43.39455" lon="6.10373">
        <ele>266.20001220703</ele>
        <time>2016-06-08T13:24:10Z</time>
      </trkpt>
      <trkpt lat="43.39455" lon="6.10373">
        <ele>266</ele>
        <time>2016-06-08T13:24:44Z</time>
      </trkpt>
      <trkpt lat="43.39455" lon="6.10373">
        <ele>266.20001220703</ele>
        <time>2016-06-08T13:25:09Z</time>
      </trkpt>
      <trkpt lat="43.39455" lon="6.10373">
        <ele>266</ele>
        <time>2016-06-08T13:25:20Z</time>
      </trkpt>
      <trkpt lat="43.39455" lon="6.10373">
        <ele>266.60000610352</ele>
        <time>2016-06-08T13:25:44Z</time>
      </trkpt>
      <trkpt lat="43.39455" lon="6.10374">
        <ele>266.79998779297</ele>
        <time>2016-06-08T13:26:13Z</time>
      </trkpt>
      <trkpt lat="43.39455" lon="6.10374">
        <ele>266.60000610352</ele>
        <time>2016-06-08T13:26:49Z</time>
      </trkpt>
      <trkpt lat="43.39455" lon="6.10373">
        <ele>266.60000610352</ele>
        <time>2016-06-08T13:26:50Z</time>
      </trkpt>
      <trkpt lat="43.39455" lon="6.10373">
        <ele>266.79998779297</ele>
        <time>2016-06-08T13:27:01Z</time>
      </trkpt>
      <trkpt lat="43.39455" lon="6.10374">
        <ele>266.79998779297</ele>
        <time>2016-06-08T13:27:59Z</time>
      </trkpt>
      <trkpt lat="43.39455" lon="6.10374">
        <ele>266.79998779297</ele>
        <time>2016-06-08T13:28:10Z</time>
      </trkpt>
      <trkpt lat="43.39455" lon="6.10374">
        <ele>266.79998779297</ele>
        <time>2016-06-08T13:28:25Z</time>
      </trkpt>
      <trkpt lat="43.39455" lon="6.10374">
        <ele>266.60000610352</ele>
        <time>2016-06-08T13:28:27Z</time>
      </trkpt>
      <trkpt lat="43.39453" lon="6.10375">
        <ele>266.79998779297</ele>
        <time>2016-06-08T13:28:33Z</time>
      </trkpt>
      <trkpt lat="43.39452" lon="6.10376">
        <ele>266.79998779297</ele>
        <time>2016-06-08T13:28:34Z</time>
      </trkpt>
      <trkpt lat="43.39445" lon="6.10385">
        <ele>266.60000610352</ele>
        <time>2016-06-08T13:28:39Z</time>
      </trkpt>
      <trkpt lat="43.39444" lon="6.10387">
        <ele>266.60000610352</ele>
        <time>2016-06-08T13:28:40Z</time>
      </trkpt>
      <trkpt lat="43.39442" lon="6.10389">
        <ele>266.60000610352</ele>
        <time>2016-06-08T13:28:41Z</time>
      </trkpt>
      <trkpt lat="43.3944" lon="6.10391">
        <ele>266.79998779297</ele>
        <time>2016-06-08T13:28:42Z</time>
      </trkpt>
      <trkpt lat="43.39437" lon="6.10394">
        <ele>266.79998779297</ele>
        <time>2016-06-08T13:28:43Z</time>
      </trkpt>
      <trkpt lat="43.3943" lon="6.10404">
        <ele>267</ele>
        <time>2016-06-08T13:28:47Z</time>
      </trkpt>
      <trkpt lat="43.39427" lon="6.10411">
        <ele>267</ele>
        <time>2016-06-08T13:28:49Z</time>
      </trkpt>
      <trkpt lat="43.39424" lon="6.10424">
        <ele>267</ele>
        <time>2016-06-08T13:28:52Z</time>
      </trkpt>
      <trkpt lat="43.39421" lon="6.10439">
        <ele>268.20001220703</ele>
        <time>2016-06-08T13:28:56Z</time>
      </trkpt>
      <trkpt lat="43.39416" lon="6.10449">
        <ele>269</ele>
        <time>2016-06-08T13:28:59Z</time>
      </trkpt>
      <trkpt lat="43.39414" lon="6.10457">
        <ele>269</ele>
        <time>2016-06-08T13:29:01Z</time>
      </trkpt>
      <trkpt lat="43.39412" lon="6.10467">
        <ele>269</ele>
        <time>2016-06-08T13:29:03Z</time>
      </trkpt>
      <trkpt lat="43.39411" lon="6.10472">
        <ele>269</ele>
        <time>2016-06-08T13:29:04Z</time>
      </trkpt>
      <trkpt lat="43.3941" lon="6.10476">
        <ele>268.79998779297</ele>
        <time>2016-06-08T13:29:05Z</time>
      </trkpt>
      <trkpt lat="43.39408" lon="6.1048">
        <ele>268.79998779297</ele>
        <time>2016-06-08T13:29:06Z</time>
      </trkpt>
      <trkpt lat="43.39406" lon="6.10489">
        <ele>268.79998779297</ele>
        <time>2016-06-08T13:29:08Z</time>
      </trkpt>
      <trkpt lat="43.39404" lon="6.10497">
        <ele>269</ele>
        <time>2016-06-08T13:29:10Z</time>
      </trkpt>
      <trkpt lat="43.39403" lon="6.10501">
        <ele>269.20001220703</ele>
        <time>2016-06-08T13:29:11Z</time>
      </trkpt>
      <trkpt lat="43.39401" lon="6.10505">
        <ele>269.20001220703</ele>
        <time>2016-06-08T13:29:12Z</time>
      </trkpt>
      <trkpt lat="43.39398" lon="6.10518">
        <ele>269.39999389648</ele>
        <time>2016-06-08T13:29:15Z</time>
      </trkpt>
      <trkpt lat="43.39395" lon="6.10531">
        <ele>269.60000610352</ele>
        <time>2016-06-08T13:29:18Z</time>
      </trkpt>
      <trkpt lat="43.39387" lon="6.10562">
        <ele>269.79998779297</ele>
        <time>2016-06-08T13:29:25Z</time>
      </trkpt>
      <trkpt lat="43.39385" lon="6.10586">
        <ele>270</ele>
        <time>2016-06-08T13:29:31Z</time>
      </trkpt>
      <trkpt lat="43.39384" lon="6.10607">
        <ele>270.20001220703</ele>
        <time>2016-06-08T13:29:36Z</time>
      </trkpt>
      <trkpt lat="43.39382" lon="6.10619">
        <ele>270.39999389648</ele>
        <time>2016-06-08T13:29:39Z</time>
      </trkpt>
      <trkpt lat="43.3938" lon="6.10645">
        <ele>271</ele>
        <time>2016-06-08T13:29:46Z</time>
      </trkpt>
      <trkpt lat="43.39378" lon="6.10647">
        <ele>270.79998779297</ele>
        <time>2016-06-08T13:29:47Z</time>
      </trkpt>
      <trkpt lat="43.39375" lon="6.10655">
        <ele>270.79998779297</ele>
        <time>2016-06-08T13:29:50Z</time>
      </trkpt>
      <trkpt lat="43.39374" lon="6.10659">
        <ele>271.20001220703</ele>
        <time>2016-06-08T13:29:51Z</time>
      </trkpt>
      <trkpt lat="43.3937" lon="6.10674">
        <ele>271.20001220703</ele>
        <time>2016-06-08T13:29:56Z</time>
      </trkpt>
      <trkpt lat="43.39368" lon="6.10679">
        <ele>271.39999389648</ele>
        <time>2016-06-08T13:29:58Z</time>
      </trkpt>
      <trkpt lat="43.39354" lon="6.10709">
        <ele>271.79998779297</ele>
        <time>2016-06-08T13:30:08Z</time>
      </trkpt>
      <trkpt lat="43.39343" lon="6.10721">
        <ele>271.79998779297</ele>
        <time>2016-06-08T13:30:13Z</time>
      </trkpt>
      <trkpt lat="43.39327" lon="6.10727">
        <ele>271.39999389648</ele>
        <time>2016-06-08T13:30:19Z</time>
      </trkpt>
      <trkpt lat="43.39325" lon="6.10727">
        <ele>271.39999389648</ele>
        <time>2016-06-08T13:30:20Z</time>
      </trkpt>
      <trkpt lat="43.39315" lon="6.10723">
        <ele>271.79998779297</ele>
        <time>2016-06-08T13:30:24Z</time>
      </trkpt>
      <trkpt lat="43.39296" lon="6.10721">
        <ele>272</ele>
        <time>2016-06-08T13:30:32Z</time>
      </trkpt>
      <trkpt lat="43.3928" lon="6.10711">
        <ele>272.20001220703</ele>
        <time>2016-06-08T13:30:39Z</time>
      </trkpt>
      <trkpt lat="43.39255" lon="6.10694">
        <ele>272.39999389648</ele>
        <time>2016-06-08T13:30:51Z</time>
      </trkpt>
      <trkpt lat="43.3925" lon="6.10692">
        <ele>272.60000610352</ele>
        <time>2016-06-08T13:30:53Z</time>
      </trkpt>
      <trkpt lat="43.39234" lon="6.1068">
        <ele>273.20001220703</ele>
        <time>2016-06-08T13:31:00Z</time>
      </trkpt>
      <trkpt lat="43.39227" lon="6.10674">
        <ele>273.20001220703</ele>
        <time>2016-06-08T13:31:05Z</time>
      </trkpt>
      <trkpt lat="43.39224" lon="6.10675">
        <ele>273.20001220703</ele>
        <time>2016-06-08T13:31:07Z</time>
      </trkpt>
      <trkpt lat="43.3922" lon="6.10677">
        <ele>273.20001220703</ele>
        <time>2016-06-08T13:31:10Z</time>
      </trkpt>
      <trkpt lat="43.39218" lon="6.10678">
        <ele>273.39999389648</ele>
        <time>2016-06-08T13:31:11Z</time>
      </trkpt>
      <trkpt lat="43.39214" lon="6.10687">
        <ele>274.20001220703</ele>
        <time>2016-06-08T13:31:15Z</time>
      </trkpt>
      <trkpt lat="43.39212" lon="6.1069">
        <ele>274.39999389648</ele>
        <time>2016-06-08T13:31:16Z</time>
      </trkpt>
      <trkpt lat="43.39211" lon="6.10692">
        <ele>274.60000610352</ele>
        <time>2016-06-08T13:31:17Z</time>
      </trkpt>
      <trkpt lat="43.3921" lon="6.10699">
        <ele>274.79998779297</ele>
        <time>2016-06-08T13:31:20Z</time>
      </trkpt>
      <trkpt lat="43.3921" lon="6.10704">
        <ele>275.39999389648</ele>
        <time>2016-06-08T13:31:22Z</time>
      </trkpt>
      <trkpt lat="43.39211" lon="6.10705">
        <ele>275.60000610352</ele>
        <time>2016-06-08T13:31:23Z</time>
      </trkpt>
      <trkpt lat="43.39213" lon="6.1071">
        <ele>275.60000610352</ele>
        <time>2016-06-08T13:31:27Z</time>
      </trkpt>
      <trkpt lat="43.39214" lon="6.10712">
        <ele>275.79998779297</ele>
        <time>2016-06-08T13:31:29Z</time>
      </trkpt>
      <trkpt lat="43.39215" lon="6.10714">
        <ele>276</ele>
        <time>2016-06-08T13:31:32Z</time>
      </trkpt>
      <trkpt lat="43.39215" lon="6.10714">
        <ele>276.20001220703</ele>
        <time>2016-06-08T13:31:38Z</time>
      </trkpt>
      <trkpt lat="43.39215" lon="6.10714">
        <ele>275.79998779297</ele>
        <time>2016-06-08T13:31:48Z</time>
      </trkpt>
      <trkpt lat="43.39216" lon="6.10715">
        <ele>276</ele>
        <time>2016-06-08T13:32:03Z</time>
      </trkpt>
      <trkpt lat="43.39216" lon="6.10715">
        <ele>276</ele>
        <time>2016-06-08T13:32:06Z</time>
      </trkpt>
      <trkpt lat="43.39215" lon="6.10715">
        <ele>276</ele>
        <time>2016-06-08T13:32:13Z</time>
      </trkpt>
      <trkpt lat="43.39215" lon="6.10715">
        <ele>276</ele>
        <time>2016-06-08T13:32:18Z</time>
      </trkpt>
      <trkpt lat="43.39215" lon="6.10715">
        <ele>276.39999389648</ele>
        <time>2016-06-08T13:32:28Z</time>
      </trkpt>
      <trkpt lat="43.39215" lon="6.10715">
        <ele>276.39999389648</ele>
        <time>2016-06-08T13:32:32Z</time>
      </trkpt>
      <trkpt lat="43.39216" lon="6.10718">
        <ele>276.39999389648</ele>
        <time>2016-06-08T13:32:36Z</time>
      </trkpt>
      <trkpt lat="43.39217" lon="6.10722">
        <ele>276.39999389648</ele>
        <time>2016-06-08T13:32:38Z</time>
      </trkpt>
      <trkpt lat="43.3922" lon="6.10727">
        <ele>277</ele>
        <time>2016-06-08T13:32:41Z</time>
      </trkpt>
      <trkpt lat="43.39222" lon="6.10731">
        <ele>277.39999389648</ele>
        <time>2016-06-08T13:32:43Z</time>
      </trkpt>
      <trkpt lat="43.39224" lon="6.10739">
        <ele>278</ele>
        <time>2016-06-08T13:32:46Z</time>
      </trkpt>
      <trkpt lat="43.39224" lon="6.10741">
        <ele>278.20001220703</ele>
        <time>2016-06-08T13:32:47Z</time>
      </trkpt>
      <trkpt lat="43.39224" lon="6.10747">
        <ele>278.60000610352</ele>
        <time>2016-06-08T13:32:50Z</time>
      </trkpt>
      <trkpt lat="43.39223" lon="6.10751">
        <ele>278.60000610352</ele>
        <time>2016-06-08T13:32:51Z</time>
      </trkpt>
      <trkpt lat="43.39223" lon="6.10764">
        <ele>278.20001220703</ele>
        <time>2016-06-08T13:32:55Z</time>
      </trkpt>
      <trkpt lat="43.39225" lon="6.10774">
        <ele>277.60000610352</ele>
        <time>2016-06-08T13:32:58Z</time>
      </trkpt>
      <trkpt lat="43.39224" lon="6.10782">
        <ele>277.39999389648</ele>
        <time>2016-06-08T13:33:00Z</time>
      </trkpt>
      <trkpt lat="43.39225" lon="6.10805">
        <ele>277.60000610352</ele>
        <time>2016-06-08T13:33:05Z</time>
      </trkpt>
      <trkpt lat="43.39226" lon="6.10809">
        <ele>278</ele>
        <time>2016-06-08T13:33:06Z</time>
      </trkpt>
      <trkpt lat="43.39227" lon="6.10818">
        <ele>278.39999389648</ele>
        <time>2016-06-08T13:33:09Z</time>
      </trkpt>
      <trkpt lat="43.39227" lon="6.10822">
        <ele>278.39999389648</ele>
        <time>2016-06-08T13:33:11Z</time>
      </trkpt>
      <trkpt lat="43.39227" lon="6.10827">
        <ele>278.79998779297</ele>
        <time>2016-06-08T13:33:13Z</time>
      </trkpt>
      <trkpt lat="43.39228" lon="6.10832">
        <ele>279</ele>
        <time>2016-06-08T13:33:15Z</time>
      </trkpt>
      <trkpt lat="43.39231" lon="6.10844">
        <ele>279.60000610352</ele>
        <time>2016-06-08T13:33:19Z</time>
      </trkpt>
      <trkpt lat="43.39231" lon="6.10851">
        <ele>279.79998779297</ele>
        <time>2016-06-08T13:33:21Z</time>
      </trkpt>
      <trkpt lat="43.39231" lon="6.10855">
        <ele>279.79998779297</ele>
        <time>2016-06-08T13:33:22Z</time>
      </trkpt>
      <trkpt lat="43.3923" lon="6.10876">
        <ele>280</ele>
        <time>2016-06-08T13:33:27Z</time>
      </trkpt>
      <trkpt lat="43.39223" lon="6.10891">
        <ele>280</ele>
        <time>2016-06-08T13:33:31Z</time>
      </trkpt>
      <trkpt lat="43.39214" lon="6.10906">
        <ele>279.60000610352</ele>
        <time>2016-06-08T13:33:36Z</time>
      </trkpt>
      <trkpt lat="43.39206" lon="6.10917">
        <ele>279.39999389648</ele>
        <time>2016-06-08T13:33:41Z</time>
      </trkpt>
      <trkpt lat="43.39196" lon="6.10921">
        <ele>280</ele>
        <time>2016-06-08T13:33:46Z</time>
      </trkpt>
      <trkpt lat="43.39194" lon="6.10923">
        <ele>280.20001220703</ele>
        <time>2016-06-08T13:33:47Z</time>
      </trkpt>
      <trkpt lat="43.39193" lon="6.10925">
        <ele>280.39999389648</ele>
        <time>2016-06-08T13:33:48Z</time>
      </trkpt>
      <trkpt lat="43.39189" lon="6.10933">
        <ele>280.60000610352</ele>
        <time>2016-06-08T13:33:51Z</time>
      </trkpt>
      <trkpt lat="43.39188" lon="6.10937">
        <ele>280.60000610352</ele>
        <time>2016-06-08T13:33:52Z</time>
      </trkpt>
      <trkpt lat="43.3918" lon="6.10954">
        <ele>280.79998779297</ele>
        <time>2016-06-08T13:33:57Z</time>
      </trkpt>
      <trkpt lat="43.39173" lon="6.10961">
        <ele>281</ele>
        <time>2016-06-08T13:34:01Z</time>
      </trkpt>
      <trkpt lat="43.39168" lon="6.10968">
        <ele>281.79998779297</ele>
        <time>2016-06-08T13:34:05Z</time>
      </trkpt>
      <trkpt lat="43.39165" lon="6.10972">
        <ele>282.20001220703</ele>
        <time>2016-06-08T13:34:07Z</time>
      </trkpt>
      <trkpt lat="43.39161" lon="6.10979">
        <ele>283</ele>
        <time>2016-06-08T13:34:10Z</time>
      </trkpt>
      <trkpt lat="43.39158" lon="6.10988">
        <ele>283.20001220703</ele>
        <time>2016-06-08T13:34:13Z</time>
      </trkpt>
      <trkpt lat="43.39159" lon="6.11008">
        <ele>283</ele>
        <time>2016-06-08T13:34:18Z</time>
      </trkpt>
      <trkpt lat="43.39159" lon="6.11013">
        <ele>283</ele>
        <time>2016-06-08T13:34:19Z</time>
      </trkpt>
      <trkpt lat="43.39153" lon="6.11041">
        <ele>283</ele>
        <time>2016-06-08T13:34:26Z</time>
      </trkpt>
      <trkpt lat="43.39149" lon="6.1106">
        <ele>283.60000610352</ele>
        <time>2016-06-08T13:34:32Z</time>
      </trkpt>
      <trkpt lat="43.39149" lon="6.11079">
        <ele>283.79998779297</ele>
        <time>2016-06-08T13:34:37Z</time>
      </trkpt>
      <trkpt lat="43.39147" lon="6.11087">
        <ele>283.79998779297</ele>
        <time>2016-06-08T13:34:39Z</time>
      </trkpt>
      <trkpt lat="43.39146" lon="6.11107">
        <ele>283.79998779297</ele>
        <time>2016-06-08T13:34:44Z</time>
      </trkpt>
      <trkpt lat="43.39145" lon="6.11126">
        <ele>284</ele>
        <time>2016-06-08T13:34:49Z</time>
      </trkpt>
      <trkpt lat="43.39144" lon="6.11138">
        <ele>284.60000610352</ele>
        <time>2016-06-08T13:34:52Z</time>
      </trkpt>
      <trkpt lat="43.39143" lon="6.11157">
        <ele>285</ele>
        <time>2016-06-08T13:34:57Z</time>
      </trkpt>
      <trkpt lat="43.3914" lon="6.11162">
        <ele>285.20001220703</ele>
        <time>2016-06-08T13:34:59Z</time>
      </trkpt>
      <trkpt lat="43.39139" lon="6.11163">
        <ele>285.39999389648</ele>
        <time>2016-06-08T13:35:00Z</time>
      </trkpt>
      <trkpt lat="43.39134" lon="6.11167">
        <ele>286</ele>
        <time>2016-06-08T13:35:03Z</time>
      </trkpt>
      <trkpt lat="43.39133" lon="6.11168">
        <ele>286.60000610352</ele>
        <time>2016-06-08T13:35:04Z</time>
      </trkpt>
      <trkpt lat="43.39128" lon="6.11169">
        <ele>287</ele>
        <time>2016-06-08T13:35:06Z</time>
      </trkpt>
      <trkpt lat="43.39127" lon="6.1117">
        <ele>287.39999389648</ele>
        <time>2016-06-08T13:35:07Z</time>
      </trkpt>
      <trkpt lat="43.39125" lon="6.11171">
        <ele>288.20001220703</ele>
        <time>2016-06-08T13:35:09Z</time>
      </trkpt>
      <trkpt lat="43.39124" lon="6.11171">
        <ele>288.60000610352</ele>
        <time>2016-06-08T13:35:12Z</time>
      </trkpt>
      <trkpt lat="43.39122" lon="6.11171">
        <ele>288.79998779297</ele>
        <time>2016-06-08T13:35:16Z</time>
      </trkpt>
      <trkpt lat="43.3912" lon="6.1117">
        <ele>289.60000610352</ele>
        <time>2016-06-08T13:35:20Z</time>
      </trkpt>
      <trkpt lat="43.39119" lon="6.1117">
        <ele>289.79998779297</ele>
        <time>2016-06-08T13:35:22Z</time>
      </trkpt>
      <trkpt lat="43.39117" lon="6.11171">
        <ele>289.79998779297</ele>
        <time>2016-06-08T13:35:25Z</time>
      </trkpt>
      <trkpt lat="43.39116" lon="6.11174">
        <ele>289.79998779297</ele>
        <time>2016-06-08T13:35:30Z</time>
      </trkpt>
      <trkpt lat="43.39115" lon="6.11175">
        <ele>290</ele>
        <time>2016-06-08T13:35:39Z</time>
      </trkpt>
      <trkpt lat="43.39115" lon="6.11175">
        <ele>290</ele>
        <time>2016-06-08T13:35:45Z</time>
      </trkpt>
      <trkpt lat="43.39115" lon="6.11175">
        <ele>289.79998779297</ele>
        <time>2016-06-08T13:35:51Z</time>
      </trkpt>
      <trkpt lat="43.39115" lon="6.11175">
        <ele>289.79998779297</ele>
        <time>2016-06-08T13:36:01Z</time>
      </trkpt>
      <trkpt lat="43.39115" lon="6.11175">
        <ele>290</ele>
        <time>2016-06-08T13:36:04Z</time>
      </trkpt>
      <trkpt lat="43.39114" lon="6.1118">
        <ele>290</ele>
        <time>2016-06-08T13:36:10Z</time>
      </trkpt>
      <trkpt lat="43.39113" lon="6.11189">
        <ele>290.39999389648</ele>
        <time>2016-06-08T13:36:14Z</time>
      </trkpt>
      <trkpt lat="43.39113" lon="6.11196">
        <ele>291</ele>
        <time>2016-06-08T13:36:17Z</time>
      </trkpt>
      <trkpt lat="43.39112" lon="6.11201">
        <ele>291.20001220703</ele>
        <time>2016-06-08T13:36:19Z</time>
      </trkpt>
      <trkpt lat="43.39112" lon="6.11205">
        <ele>291.39999389648</ele>
        <time>2016-06-08T13:36:21Z</time>
      </trkpt>
      <trkpt lat="43.39109" lon="6.11227">
        <ele>291.60000610352</ele>
        <time>2016-06-08T13:36:29Z</time>
      </trkpt>
      <trkpt lat="43.39109" lon="6.1123">
        <ele>291.79998779297</ele>
        <time>2016-06-08T13:36:30Z</time>
      </trkpt>
      <trkpt lat="43.39106" lon="6.11245">
        <ele>292.39999389648</ele>
        <time>2016-06-08T13:36:36Z</time>
      </trkpt>
      <trkpt lat="43.39104" lon="6.11258">
        <ele>291.60000610352</ele>
        <time>2016-06-08T13:36:40Z</time>
      </trkpt>
      <trkpt lat="43.39095" lon="6.11286">
        <ele>291.20001220703</ele>
        <time>2016-06-08T13:36:50Z</time>
      </trkpt>
      <trkpt lat="43.39092" lon="6.1129">
        <ele>291.39999389648</ele>
        <time>2016-06-08T13:36:52Z</time>
      </trkpt>
      <trkpt lat="43.3909" lon="6.11293">
        <ele>292.20001220703</ele>
        <time>2016-06-08T13:36:55Z</time>
      </trkpt>
      <trkpt lat="43.3909" lon="6.11294">
        <ele>292.60000610352</ele>
        <time>2016-06-08T13:36:56Z</time>
      </trkpt>
      <trkpt lat="43.39089" lon="6.11294">
        <ele>292.79998779297</ele>
        <time>2016-06-08T13:36:57Z</time>
      </trkpt>
      <trkpt lat="43.39086" lon="6.11296">
        <ele>292.79998779297</ele>
        <time>2016-06-08T13:37:00Z</time>
      </trkpt>
      <trkpt lat="43.39081" lon="6.11294">
        <ele>293.20001220703</ele>
        <time>2016-06-08T13:37:08Z</time>
      </trkpt>
      <trkpt lat="43.39081" lon="6.11294">
        <ele>293</ele>
        <time>2016-06-08T13:37:19Z</time>
      </trkpt>
      <trkpt lat="43.39081" lon="6.11294">
        <ele>292.79998779297</ele>
        <time>2016-06-08T13:37:32Z</time>
      </trkpt>
      <trkpt lat="43.3908" lon="6.11294">
        <ele>293</ele>
        <time>2016-06-08T13:37:38Z</time>
      </trkpt>
      <trkpt lat="43.3908" lon="6.11295">
        <ele>293</ele>
        <time>2016-06-08T13:37:39Z</time>
      </trkpt>
      <trkpt lat="43.39079" lon="6.11295">
        <ele>293</ele>
        <time>2016-06-08T13:37:50Z</time>
      </trkpt>
      <trkpt lat="43.39079" lon="6.11296">
        <ele>293</ele>
        <time>2016-06-08T13:38:04Z</time>
      </trkpt>
      <trkpt lat="43.39079" lon="6.11296">
        <ele>293</ele>
        <time>2016-06-08T13:38:27Z</time>
      </trkpt>
      <trkpt lat="43.39079" lon="6.11296">
        <ele>293.20001220703</ele>
        <time>2016-06-08T13:38:43Z</time>
      </trkpt>
      <trkpt lat="43.39079" lon="6.11296">
        <ele>293.20001220703</ele>
        <time>2016-06-08T13:38:55Z</time>
      </trkpt>
      <trkpt lat="43.39079" lon="6.11296">
        <ele>293.20001220703</ele>
        <time>2016-06-08T13:39:05Z</time>
      </trkpt>
      <trkpt lat="43.39079" lon="6.11296">
        <ele>293.20001220703</ele>
        <time>2016-06-08T13:39:14Z</time>
      </trkpt>
      <trkpt lat="43.39079" lon="6.11296">
        <ele>293.20001220703</ele>
        <time>2016-06-08T13:39:22Z</time>
      </trkpt>
      <trkpt lat="43.3908" lon="6.11297">
        <ele>293.39999389648</ele>
        <time>2016-06-08T13:39:33Z</time>
      </trkpt>
      <trkpt lat="43.3908" lon="6.11297">
        <ele>293.60000610352</ele>
        <time>2016-06-08T13:39:35Z</time>
      </trkpt>
      <trkpt lat="43.3908" lon="6.11296">
        <ele>293.39999389648</ele>
        <time>2016-06-08T13:40:01Z</time>
      </trkpt>
      <trkpt lat="43.3908" lon="6.11296">
        <ele>293.39999389648</ele>
        <time>2016-06-08T13:40:11Z</time>
      </trkpt>
      <trkpt lat="43.39079" lon="6.11296">
        <ele>293.39999389648</ele>
        <time>2016-06-08T13:40:29Z</time>
      </trkpt>
      <trkpt lat="43.39079" lon="6.11296">
        <ele>293.39999389648</ele>
        <time>2016-06-08T13:40:35Z</time>
      </trkpt>
      <trkpt lat="43.39079" lon="6.11296">
        <ele>293.20001220703</ele>
        <time>2016-06-08T13:40:57Z</time>
      </trkpt>
      <trkpt lat="43.39079" lon="6.11296">
        <ele>293.39999389648</ele>
        <time>2016-06-08T13:41:09Z</time>
      </trkpt>
      <trkpt lat="43.39079" lon="6.11296">
        <ele>293.20001220703</ele>
        <time>2016-06-08T13:41:22Z</time>
      </trkpt>
      <trkpt lat="43.39079" lon="6.11296">
        <ele>293</ele>
        <time>2016-06-08T13:41:52Z</time>
      </trkpt>
      <trkpt lat="43.39079" lon="6.11296">
        <ele>293</ele>
        <time>2016-06-08T13:42:12Z</time>
      </trkpt>
      <trkpt lat="43.39078" lon="6.11295">
        <ele>293</ele>
        <time>2016-06-08T13:42:21Z</time>
      </trkpt>
      <trkpt lat="43.39078" lon="6.11294">
        <ele>293</ele>
        <time>2016-06-08T13:42:22Z</time>
      </trkpt>
      <trkpt lat="43.39074" lon="6.11282">
        <ele>293.20001220703</ele>
        <time>2016-06-08T13:42:28Z</time>
      </trkpt>
      <trkpt lat="43.39069" lon="6.11273">
        <ele>293.60000610352</ele>
        <time>2016-06-08T13:42:32Z</time>
      </trkpt>
      <trkpt lat="43.39066" lon="6.11266">
        <ele>294.20001220703</ele>
        <time>2016-06-08T13:42:35Z</time>
      </trkpt>
      <trkpt lat="43.39048" lon="6.11237">
        <ele>294.39999389648</ele>
        <time>2016-06-08T13:42:46Z</time>
      </trkpt>
      <trkpt lat="43.3904" lon="6.11218">
        <ele>293.79998779297</ele>
        <time>2016-06-08T13:42:50Z</time>
      </trkpt>
      <trkpt lat="43.39036" lon="6.11214">
        <ele>293.60000610352</ele>
        <time>2016-06-08T13:42:51Z</time>
      </trkpt>
      <trkpt lat="43.39028" lon="6.11204">
        <ele>293.39999389648</ele>
        <time>2016-06-08T13:42:53Z</time>
      </trkpt>
      <trkpt lat="43.39016" lon="6.11194">
        <ele>292.20001220703</ele>
        <time>2016-06-08T13:42:56Z</time>
      </trkpt>
      <trkpt lat="43.38999" lon="6.11192">
        <ele>291</ele>
        <time>2016-06-08T13:42:59Z</time>
      </trkpt>
      <trkpt lat="43.38993" lon="6.11193">
        <ele>290</ele>
        <time>2016-06-08T13:43:00Z</time>
      </trkpt>
      <trkpt lat="43.38987" lon="6.11193">
        <ele>289</ele>
        <time>2016-06-08T13:43:01Z</time>
      </trkpt>
      <trkpt lat="43.38972" lon="6.11194">
        <ele>287.20001220703</ele>
        <time>2016-06-08T13:43:03Z</time>
      </trkpt>
      <trkpt lat="43.38964" lon="6.11195">
        <ele>286</ele>
        <time>2016-06-08T13:43:04Z</time>
      </trkpt>
      <trkpt lat="43.38955" lon="6.11194">
        <ele>284.79998779297</ele>
        <time>2016-06-08T13:43:05Z</time>
      </trkpt>
      <trkpt lat="43.38938" lon="6.1119">
        <ele>284.20001220703</ele>
        <time>2016-06-08T13:43:07Z</time>
      </trkpt>
      <trkpt lat="43.38908" lon="6.1118">
        <ele>284.20001220703</ele>
        <time>2016-06-08T13:43:11Z</time>
      </trkpt>
      <trkpt lat="43.38895" lon="6.11178">
        <ele>283.60000610352</ele>
        <time>2016-06-08T13:43:13Z</time>
      </trkpt>
      <trkpt lat="43.38875" lon="6.11174">
        <ele>283.39999389648</ele>
        <time>2016-06-08T13:43:17Z</time>
      </trkpt>
      <trkpt lat="43.38854" lon="6.11168">
        <ele>283.60000610352</ele>
        <time>2016-06-08T13:43:23Z</time>
      </trkpt>
      <trkpt lat="43.38841" lon="6.11163">
        <ele>284.39999389648</ele>
        <time>2016-06-08T13:43:27Z</time>
      </trkpt>
      <trkpt lat="43.38834" lon="6.11159">
        <ele>284.60000610352</ele>
        <time>2016-06-08T13:43:29Z</time>
      </trkpt>
      <trkpt lat="43.38816" lon="6.11146">
        <ele>285.60000610352</ele>
        <time>2016-06-08T13:43:35Z</time>
      </trkpt>
      <trkpt lat="43.38808" lon="6.11139">
        <ele>286</ele>
        <time>2016-06-08T13:43:38Z</time>
      </trkpt>
      <trkpt lat="43.38781" lon="6.11124">
        <ele>286.79998779297</ele>
        <time>2016-06-08T13:43:46Z</time>
      </trkpt>
      <trkpt lat="43.38757" lon="6.11116">
        <ele>287</ele>
        <time>2016-06-08T13:43:53Z</time>
      </trkpt>
      <trkpt lat="43.38728" lon="6.11108">
        <ele>286.79998779297</ele>
        <time>2016-06-08T13:44:01Z</time>
      </trkpt>
      <trkpt lat="43.38722" lon="6.11106">
        <ele>286.79998779297</ele>
        <time>2016-06-08T13:44:03Z</time>
      </trkpt>
      <trkpt lat="43.38718" lon="6.11102">
        <ele>287</ele>
        <time>2016-06-08T13:44:05Z</time>
      </trkpt>
      <trkpt lat="43.38717" lon="6.11099">
        <ele>286.79998779297</ele>
        <time>2016-06-08T13:44:06Z</time>
      </trkpt>
      <trkpt lat="43.38716" lon="6.11084">
        <ele>286.79998779297</ele>
        <time>2016-06-08T13:44:11Z</time>
      </trkpt>
      <trkpt lat="43.38716" lon="6.11081">
        <ele>287</ele>
        <time>2016-06-08T13:44:12Z</time>
      </trkpt>
      <trkpt lat="43.38715" lon="6.11073">
        <ele>287.20001220703</ele>
        <time>2016-06-08T13:44:16Z</time>
      </trkpt>
      <trkpt lat="43.38714" lon="6.11072">
        <ele>287.20001220703</ele>
        <time>2016-06-08T13:44:17Z</time>
      </trkpt>
      <trkpt lat="43.38703" lon="6.11068">
        <ele>287</ele>
        <time>2016-06-08T13:44:26Z</time>
      </trkpt>
      <trkpt lat="43.387" lon="6.11068">
        <ele>287.20001220703</ele>
        <time>2016-06-08T13:44:29Z</time>
      </trkpt>
      <trkpt lat="43.387" lon="6.11067">
        <ele>287.39999389648</ele>
        <time>2016-06-08T13:44:36Z</time>
      </trkpt>
      <trkpt lat="43.387" lon="6.11067">
        <ele>287.39999389648</ele>
        <time>2016-06-08T13:44:37Z</time>
      </trkpt>
      <trkpt lat="43.387" lon="6.11067">
        <ele>287.60000610352</ele>
        <time>2016-06-08T13:44:39Z</time>
      </trkpt>
      <trkpt lat="43.387" lon="6.11067">
        <ele>287.39999389648</ele>
        <time>2016-06-08T13:45:07Z</time>
      </trkpt>
      <trkpt lat="43.38699" lon="6.11066">
        <ele>287.20001220703</ele>
        <time>2016-06-08T13:45:35Z</time>
      </trkpt>
      <trkpt lat="43.38699" lon="6.11066">
        <ele>287.60000610352</ele>
        <time>2016-06-08T13:45:44Z</time>
      </trkpt>
      <trkpt lat="43.38699" lon="6.11067">
        <ele>287.20001220703</ele>
        <time>2016-06-08T13:45:59Z</time>
      </trkpt>
      <trkpt lat="43.38699" lon="6.11066">
        <ele>287.60000610352</ele>
        <time>2016-06-08T13:46:15Z</time>
      </trkpt>
      <trkpt lat="43.38699" lon="6.11066">
        <ele>287.39999389648</ele>
        <time>2016-06-08T13:46:32Z</time>
      </trkpt>
      <trkpt lat="43.38699" lon="6.11065">
        <ele>287.60000610352</ele>
        <time>2016-06-08T13:47:22Z</time>
      </trkpt>
      <trkpt lat="43.38699" lon="6.11065">
        <ele>287.60000610352</ele>
        <time>2016-06-08T13:47:46Z</time>
      </trkpt>
      <trkpt lat="43.38698" lon="6.11065">
        <ele>287.60000610352</ele>
        <time>2016-06-08T13:47:50Z</time>
      </trkpt>
      <trkpt lat="43.38696" lon="6.11063">
        <ele>287.60000610352</ele>
        <time>2016-06-08T13:47:52Z</time>
      </trkpt>
      <trkpt lat="43.38686" lon="6.11052">
        <ele>288</ele>
        <time>2016-06-08T13:47:58Z</time>
      </trkpt>
      <trkpt lat="43.38681" lon="6.11047">
        <ele>288.20001220703</ele>
        <time>2016-06-08T13:48:00Z</time>
      </trkpt>
      <trkpt lat="43.38671" lon="6.11042">
        <ele>289</ele>
        <time>2016-06-08T13:48:03Z</time>
      </trkpt>
      <trkpt lat="43.38669" lon="6.11039">
        <ele>289.20001220703</ele>
        <time>2016-06-08T13:48:04Z</time>
      </trkpt>
      <trkpt lat="43.38661" lon="6.11032">
        <ele>289.79998779297</ele>
        <time>2016-06-08T13:48:07Z</time>
      </trkpt>
      <trkpt lat="43.38656" lon="6.11027">
        <ele>290</ele>
        <time>2016-06-08T13:48:09Z</time>
      </trkpt>
      <trkpt lat="43.38649" lon="6.1102">
        <ele>290.39999389648</ele>
        <time>2016-06-08T13:48:12Z</time>
      </trkpt>
      <trkpt lat="43.38644" lon="6.11017">
        <ele>290.39999389648</ele>
        <time>2016-06-08T13:48:14Z</time>
      </trkpt>
      <trkpt lat="43.3864" lon="6.11013">
        <ele>291.20001220703</ele>
        <time>2016-06-08T13:48:16Z</time>
      </trkpt>
      <trkpt lat="43.38636" lon="6.11009">
        <ele>291.39999389648</ele>
        <time>2016-06-08T13:48:18Z</time>
      </trkpt>
      <trkpt lat="43.38631" lon="6.11004">
        <ele>292.20001220703</ele>
        <time>2016-06-08T13:48:21Z</time>
      </trkpt>
      <trkpt lat="43.38626" lon="6.10999">
        <ele>293</ele>
        <time>2016-06-08T13:48:27Z</time>
      </trkpt>
      <trkpt lat="43.38625" lon="6.10998">
        <ele>293.20001220703</ele>
        <time>2016-06-08T13:48:34Z</time>
      </trkpt>
      <trkpt lat="43.38623" lon="6.10996">
        <ele>293.20001220703</ele>
        <time>2016-06-08T13:48:44Z</time>
      </trkpt>
      <trkpt lat="43.38612" lon="6.1099">
        <ele>293.20001220703</ele>
        <time>2016-06-08T13:48:49Z</time>
      </trkpt>
      <trkpt lat="43.38598" lon="6.10991">
        <ele>293</ele>
        <time>2016-06-08T13:48:53Z</time>
      </trkpt>
      <trkpt lat="43.38585" lon="6.1099">
        <ele>292.79998779297</ele>
        <time>2016-06-08T13:48:56Z</time>
      </trkpt>
      <trkpt lat="43.38574" lon="6.1099">
        <ele>292.39999389648</ele>
        <time>2016-06-08T13:48:58Z</time>
      </trkpt>
      <trkpt lat="43.38568" lon="6.1099">
        <ele>292.20001220703</ele>
        <time>2016-06-08T13:48:59Z</time>
      </trkpt>
      <trkpt lat="43.38557" lon="6.10985">
        <ele>292</ele>
        <time>2016-06-08T13:49:01Z</time>
      </trkpt>
      <trkpt lat="43.38552" lon="6.10982">
        <ele>291.39999389648</ele>
        <time>2016-06-08T13:49:02Z</time>
      </trkpt>
      <trkpt lat="43.38535" lon="6.10974">
        <ele>290.39999389648</ele>
        <time>2016-06-08T13:49:05Z</time>
      </trkpt>
      <trkpt lat="43.38514" lon="6.10967">
        <ele>289.39999389648</ele>
        <time>2016-06-08T13:49:08Z</time>
      </trkpt>
      <trkpt lat="43.38501" lon="6.10963">
        <ele>288.20001220703</ele>
        <time>2016-06-08T13:49:10Z</time>
      </trkpt>
      <trkpt lat="43.3849" lon="6.1096">
        <ele>287</ele>
        <time>2016-06-08T13:49:12Z</time>
      </trkpt>
      <trkpt lat="43.38486" lon="6.10959">
        <ele>286.39999389648</ele>
        <time>2016-06-08T13:49:13Z</time>
      </trkpt>
      <trkpt lat="43.38483" lon="6.10958">
        <ele>285.79998779297</ele>
        <time>2016-06-08T13:49:14Z</time>
      </trkpt>
      <trkpt lat="43.38477" lon="6.10956">
        <ele>285.20001220703</ele>
        <time>2016-06-08T13:49:17Z</time>
      </trkpt>
      <trkpt lat="43.38445" lon="6.10953">
        <ele>284.79998779297</ele>
        <time>2016-06-08T13:49:25Z</time>
      </trkpt>
      <trkpt lat="43.38431" lon="6.1095">
        <ele>284</ele>
        <time>2016-06-08T13:49:28Z</time>
      </trkpt>
      <trkpt lat="43.3842" lon="6.10948">
        <ele>283.60000610352</ele>
        <time>2016-06-08T13:49:30Z</time>
      </trkpt>
      <trkpt lat="43.3839" lon="6.1094">
        <ele>282.79998779297</ele>
        <time>2016-06-08T13:49:36Z</time>
      </trkpt>
      <trkpt lat="43.3838" lon="6.10938">
        <ele>282.60000610352</ele>
        <time>2016-06-08T13:49:38Z</time>
      </trkpt>
      <trkpt lat="43.3836" lon="6.10932">
        <ele>282.20001220703</ele>
        <time>2016-06-08T13:49:42Z</time>
      </trkpt>
      <trkpt lat="43.38355" lon="6.10931">
        <ele>282</ele>
        <time>2016-06-08T13:49:43Z</time>
      </trkpt>
      <trkpt lat="43.38341" lon="6.10927">
        <ele>281.60000610352</ele>
        <time>2016-06-08T13:49:46Z</time>
      </trkpt>
      <trkpt lat="43.38337" lon="6.10926">
        <ele>281.39999389648</ele>
        <time>2016-06-08T13:49:47Z</time>
      </trkpt>
      <trkpt lat="43.38309" lon="6.10916">
        <ele>281.39999389648</ele>
        <time>2016-06-08T13:49:53Z</time>
      </trkpt>
      <trkpt lat="43.38277" lon="6.10907">
        <ele>280.79998779297</ele>
        <time>2016-06-08T13:50:00Z</time>
      </trkpt>
      <trkpt lat="43.38234" lon="6.10896">
        <ele>280.79998779297</ele>
        <time>2016-06-08T13:50:10Z</time>
      </trkpt>
      <trkpt lat="43.38213" lon="6.10889">
        <ele>280.79998779297</ele>
        <time>2016-06-08T13:50:17Z</time>
      </trkpt>
      <trkpt lat="43.38203" lon="6.10887">
        <ele>281.20001220703</ele>
        <time>2016-06-08T13:50:23Z</time>
      </trkpt>
      <trkpt lat="43.38201" lon="6.10887">
        <ele>281.20001220703</ele>
        <time>2016-06-08T13:50:24Z</time>
      </trkpt>
      <trkpt lat="43.38199" lon="6.10895">
        <ele>281.20001220703</ele>
        <time>2016-06-08T13:50:28Z</time>
      </trkpt>
      <trkpt lat="43.38198" lon="6.10901">
        <ele>281.39999389648</ele>
        <time>2016-06-08T13:50:30Z</time>
      </trkpt>
      <trkpt lat="43.38195" lon="6.10922">
        <ele>281.79998779297</ele>
        <time>2016-06-08T13:50:36Z</time>
      </trkpt>
      <trkpt lat="43.38191" lon="6.10943">
        <ele>282</ele>
        <time>2016-06-08T13:50:42Z</time>
      </trkpt>
      <trkpt lat="43.3819" lon="6.1095">
        <ele>282.20001220703</ele>
        <time>2016-06-08T13:50:44Z</time>
      </trkpt>
      <trkpt lat="43.38187" lon="6.10962">
        <ele>282.60000610352</ele>
        <time>2016-06-08T13:50:47Z</time>
      </trkpt>
      <trkpt lat="43.38182" lon="6.10987">
        <ele>282.79998779297</ele>
        <time>2016-06-08T13:50:53Z</time>
      </trkpt>
      <trkpt lat="43.38181" lon="6.10991">
        <ele>283</ele>
        <time>2016-06-08T13:50:54Z</time>
      </trkpt>
      <trkpt lat="43.38176" lon="6.11008">
        <ele>283.39999389648</ele>
        <time>2016-06-08T13:50:58Z</time>
      </trkpt>
      <trkpt lat="43.38174" lon="6.11022">
        <ele>283.79998779297</ele>
        <time>2016-06-08T13:51:01Z</time>
      </trkpt>
      <trkpt lat="43.38169" lon="6.11044">
        <ele>284.39999389648</ele>
        <time>2016-06-08T13:51:06Z</time>
      </trkpt>
      <trkpt lat="43.38168" lon="6.11053">
        <ele>284.79998779297</ele>
        <time>2016-06-08T13:51:08Z</time>
      </trkpt>
      <trkpt lat="43.38163" lon="6.1107">
        <ele>285.39999389648</ele>
        <time>2016-06-08T13:51:12Z</time>
      </trkpt>
      <trkpt lat="43.38156" lon="6.1109">
        <ele>285.79998779297</ele>
        <time>2016-06-08T13:51:17Z</time>
      </trkpt>
      <trkpt lat="43.38148" lon="6.11109">
        <ele>286.39999389648</ele>
        <time>2016-06-08T13:51:22Z</time>
      </trkpt>
      <trkpt lat="43.38139" lon="6.11122">
        <ele>286.79998779297</ele>
        <time>2016-06-08T13:51:26Z</time>
      </trkpt>
      <trkpt lat="43.3813" lon="6.11133">
        <ele>287.60000610352</ele>
        <time>2016-06-08T13:51:30Z</time>
      </trkpt>
      <trkpt lat="43.38123" lon="6.1114">
        <ele>288</ele>
        <time>2016-06-08T13:51:33Z</time>
      </trkpt>
      <trkpt lat="43.38111" lon="6.11153">
        <ele>288.60000610352</ele>
        <time>2016-06-08T13:51:39Z</time>
      </trkpt>
      <trkpt lat="43.38103" lon="6.11162">
        <ele>288.79998779297</ele>
        <time>2016-06-08T13:51:43Z</time>
      </trkpt>
      <trkpt lat="43.38097" lon="6.11167">
        <ele>289.20001220703</ele>
        <time>2016-06-08T13:51:46Z</time>
      </trkpt>
      <trkpt lat="43.38093" lon="6.11171">
        <ele>289.79998779297</ele>
        <time>2016-06-08T13:51:48Z</time>
      </trkpt>
      <trkpt lat="43.38084" lon="6.11179">
        <ele>290.39999389648</ele>
        <time>2016-06-08T13:51:52Z</time>
      </trkpt>
      <trkpt lat="43.38081" lon="6.11184">
        <ele>291</ele>
        <time>2016-06-08T13:51:54Z</time>
      </trkpt>
      <trkpt lat="43.38072" lon="6.11192">
        <ele>291.39999389648</ele>
        <time>2016-06-08T13:51:58Z</time>
      </trkpt>
      <trkpt lat="43.38059" lon="6.11204">
        <ele>291.79998779297</ele>
        <time>2016-06-08T13:52:03Z</time>
      </trkpt>
      <trkpt lat="43.38052" lon="6.11213">
        <ele>291.79998779297</ele>
        <time>2016-06-08T13:52:06Z</time>
      </trkpt>
      <trkpt lat="43.38047" lon="6.11224">
        <ele>291.79998779297</ele>
        <time>2016-06-08T13:52:09Z</time>
      </trkpt>
      <trkpt lat="43.38035" lon="6.11251">
        <ele>291.20001220703</ele>
        <time>2016-06-08T13:52:15Z</time>
      </trkpt>
      <trkpt lat="43.38026" lon="6.11265">
        <ele>291</ele>
        <time>2016-06-08T13:52:19Z</time>
      </trkpt>
      <trkpt lat="43.3802" lon="6.11282">
        <ele>291.39999389648</ele>
        <time>2016-06-08T13:52:23Z</time>
      </trkpt>
      <trkpt lat="43.38013" lon="6.11294">
        <ele>291.60000610352</ele>
        <time>2016-06-08T13:52:26Z</time>
      </trkpt>
      <trkpt lat="43.38005" lon="6.11311">
        <ele>291.79998779297</ele>
        <time>2016-06-08T13:52:30Z</time>
      </trkpt>
      <trkpt lat="43.37999" lon="6.11323">
        <ele>291.79998779297</ele>
        <time>2016-06-08T13:52:33Z</time>
      </trkpt>
      <trkpt lat="43.37989" lon="6.11342">
        <ele>291.79998779297</ele>
        <time>2016-06-08T13:52:37Z</time>
      </trkpt>
      <trkpt lat="43.3798" lon="6.11355">
        <ele>291.79998779297</ele>
        <time>2016-06-08T13:52:40Z</time>
      </trkpt>
      <trkpt lat="43.37971" lon="6.11368">
        <ele>291.39999389648</ele>
        <time>2016-06-08T13:52:43Z</time>
      </trkpt>
      <trkpt lat="43.37959" lon="6.11382">
        <ele>291.60000610352</ele>
        <time>2016-06-08T13:52:47Z</time>
      </trkpt>
      <trkpt lat="43.3795" lon="6.11393">
        <ele>291.60000610352</ele>
        <time>2016-06-08T13:52:51Z</time>
      </trkpt>
      <trkpt lat="43.37946" lon="6.11398">
        <ele>291.39999389648</ele>
        <time>2016-06-08T13:52:54Z</time>
      </trkpt>
      <trkpt lat="43.37944" lon="6.11402">
        <ele>291.39999389648</ele>
        <time>2016-06-08T13:52:56Z</time>
      </trkpt>
      <trkpt lat="43.37942" lon="6.11409">
        <ele>291.60000610352</ele>
        <time>2016-06-08T13:53:00Z</time>
      </trkpt>
      <trkpt lat="43.37933" lon="6.11418">
        <ele>292</ele>
        <time>2016-06-08T13:53:07Z</time>
      </trkpt>
      <trkpt lat="43.3793" lon="6.11426">
        <ele>292</ele>
        <time>2016-06-08T13:53:11Z</time>
      </trkpt>
      <trkpt lat="43.37928" lon="6.11428">
        <ele>292</ele>
        <time>2016-06-08T13:53:12Z</time>
      </trkpt>
      <trkpt lat="43.37921" lon="6.11436">
        <ele>291.79998779297</ele>
        <time>2016-06-08T13:53:18Z</time>
      </trkpt>
      <trkpt lat="43.3792" lon="6.11439">
        <ele>291.79998779297</ele>
        <time>2016-06-08T13:53:20Z</time>
      </trkpt>
      <trkpt lat="43.37914" lon="6.11446">
        <ele>291.79998779297</ele>
        <time>2016-06-08T13:53:23Z</time>
      </trkpt>
      <trkpt lat="43.37889" lon="6.11463">
        <ele>292</ele>
        <time>2016-06-08T13:53:31Z</time>
      </trkpt>
      <trkpt lat="43.37873" lon="6.11468">
        <ele>292</ele>
        <time>2016-06-08T13:53:36Z</time>
      </trkpt>
      <trkpt lat="43.37862" lon="6.11475">
        <ele>292.20001220703</ele>
        <time>2016-06-08T13:53:40Z</time>
      </trkpt>
      <trkpt lat="43.37859" lon="6.11479">
        <ele>292.60000610352</ele>
        <time>2016-06-08T13:53:42Z</time>
      </trkpt>
      <trkpt lat="43.37854" lon="6.11486">
        <ele>293.20001220703</ele>
        <time>2016-06-08T13:53:45Z</time>
      </trkpt>
      <trkpt lat="43.3785" lon="6.11493">
        <ele>294</ele>
        <time>2016-06-08T13:53:48Z</time>
      </trkpt>
      <trkpt lat="43.37848" lon="6.115">
        <ele>294.39999389648</ele>
        <time>2016-06-08T13:53:50Z</time>
      </trkpt>
      <trkpt lat="43.37843" lon="6.1151">
        <ele>294.60000610352</ele>
        <time>2016-06-08T13:53:53Z</time>
      </trkpt>
      <trkpt lat="43.37841" lon="6.11513">
        <ele>294.79998779297</ele>
        <time>2016-06-08T13:53:54Z</time>
      </trkpt>
      <trkpt lat="43.37835" lon="6.11531">
        <ele>295</ele>
        <time>2016-06-08T13:53:59Z</time>
      </trkpt>
      <trkpt lat="43.37828" lon="6.11546">
        <ele>295.60000610352</ele>
        <time>2016-06-08T13:54:04Z</time>
      </trkpt>
      <trkpt lat="43.37825" lon="6.1155">
        <ele>296</ele>
        <time>2016-06-08T13:54:06Z</time>
      </trkpt>
      <trkpt lat="43.37819" lon="6.11562">
        <ele>296.39999389648</ele>
        <time>2016-06-08T13:54:11Z</time>
      </trkpt>
      <trkpt lat="43.37806" lon="6.11577">
        <ele>297.20001220703</ele>
        <time>2016-06-08T13:54:18Z</time>
      </trkpt>
      <trkpt lat="43.37795" lon="6.11592">
        <ele>297.60000610352</ele>
        <time>2016-06-08T13:54:25Z</time>
      </trkpt>
      <trkpt lat="43.37793" lon="6.11594">
        <ele>297.79998779297</ele>
        <time>2016-06-08T13:54:26Z</time>
      </trkpt>
      <trkpt lat="43.37785" lon="6.11605">
        <ele>298.39999389648</ele>
        <time>2016-06-08T13:54:31Z</time>
      </trkpt>
      <trkpt lat="43.37775" lon="6.11623">
        <ele>299.20001220703</ele>
        <time>2016-06-08T13:54:38Z</time>
      </trkpt>
      <trkpt lat="43.37769" lon="6.11634">
        <ele>299.79998779297</ele>
        <time>2016-06-08T13:54:43Z</time>
      </trkpt>
      <trkpt lat="43.37768" lon="6.11636">
        <ele>300</ele>
        <time>2016-06-08T13:54:44Z</time>
      </trkpt>
      <trkpt lat="43.37763" lon="6.11649">
        <ele>300.79998779297</ele>
        <time>2016-06-08T13:54:49Z</time>
      </trkpt>
      <trkpt lat="43.37761" lon="6.11655">
        <ele>301.20001220703</ele>
        <time>2016-06-08T13:54:51Z</time>
      </trkpt>
      <trkpt lat="43.37754" lon="6.11672">
        <ele>301.79998779297</ele>
        <time>2016-06-08T13:54:57Z</time>
      </trkpt>
      <trkpt lat="43.37752" lon="6.11675">
        <ele>302</ele>
        <time>2016-06-08T13:54:58Z</time>
      </trkpt>
      <trkpt lat="43.37746" lon="6.11689">
        <ele>302.39999389648</ele>
        <time>2016-06-08T13:55:04Z</time>
      </trkpt>
      <trkpt lat="43.37743" lon="6.11694">
        <ele>302.60000610352</ele>
        <time>2016-06-08T13:55:06Z</time>
      </trkpt>
      <trkpt lat="43.37737" lon="6.11708">
        <ele>302.60000610352</ele>
        <time>2016-06-08T13:55:12Z</time>
      </trkpt>
      <trkpt lat="43.37728" lon="6.11725">
        <ele>303</ele>
        <time>2016-06-08T13:55:19Z</time>
      </trkpt>
      <trkpt lat="43.37727" lon="6.11727">
        <ele>303</ele>
        <time>2016-06-08T13:55:20Z</time>
      </trkpt>
      <trkpt lat="43.37719" lon="6.11737">
        <ele>304</ele>
        <time>2016-06-08T13:55:26Z</time>
      </trkpt>
      <trkpt lat="43.37717" lon="6.11739">
        <ele>304</ele>
        <time>2016-06-08T13:55:27Z</time>
      </trkpt>
      <trkpt lat="43.37712" lon="6.11748">
        <ele>304.39999389648</ele>
        <time>2016-06-08T13:55:31Z</time>
      </trkpt>
      <trkpt lat="43.37705" lon="6.11763">
        <ele>305</ele>
        <time>2016-06-08T13:55:37Z</time>
      </trkpt>
      <trkpt lat="43.37699" lon="6.11776">
        <ele>305.60000610352</ele>
        <time>2016-06-08T13:55:43Z</time>
      </trkpt>
      <trkpt lat="43.37696" lon="6.1178">
        <ele>306</ele>
        <time>2016-06-08T13:55:45Z</time>
      </trkpt>
      <trkpt lat="43.37692" lon="6.11789">
        <ele>306.60000610352</ele>
        <time>2016-06-08T13:55:49Z</time>
      </trkpt>
      <trkpt lat="43.37688" lon="6.11802">
        <ele>307.20001220703</ele>
        <time>2016-06-08T13:55:54Z</time>
      </trkpt>
      <trkpt lat="43.37684" lon="6.11812">
        <ele>307.79998779297</ele>
        <time>2016-06-08T13:55:58Z</time>
      </trkpt>
      <trkpt lat="43.37683" lon="6.11815">
        <ele>308.39999389648</ele>
        <time>2016-06-08T13:56:00Z</time>
      </trkpt>
      <trkpt lat="43.37683" lon="6.11816">
        <ele>308.60000610352</ele>
        <time>2016-06-08T13:56:01Z</time>
      </trkpt>
      <trkpt lat="43.37682" lon="6.1182">
        <ele>309.39999389648</ele>
        <time>2016-06-08T13:56:05Z</time>
      </trkpt>
      <trkpt lat="43.37682" lon="6.1182">
        <ele>309.60000610352</ele>
        <time>2016-06-08T13:56:07Z</time>
      </trkpt>
      <trkpt lat="43.37681" lon="6.1182">
        <ele>309.60000610352</ele>
        <time>2016-06-08T13:56:10Z</time>
      </trkpt>
      <trkpt lat="43.37681" lon="6.1182">
        <ele>309.79998779297</ele>
        <time>2016-06-08T13:56:16Z</time>
      </trkpt>
      <trkpt lat="43.37681" lon="6.11822">
        <ele>310</ele>
        <time>2016-06-08T13:56:25Z</time>
      </trkpt>
      <trkpt lat="43.3768" lon="6.11825">
        <ele>310</ele>
        <time>2016-06-08T13:56:29Z</time>
      </trkpt>
      <trkpt lat="43.37678" lon="6.1183">
        <ele>310.20001220703</ele>
        <time>2016-06-08T13:56:32Z</time>
      </trkpt>
      <trkpt lat="43.37676" lon="6.11834">
        <ele>310.39999389648</ele>
        <time>2016-06-08T13:56:34Z</time>
      </trkpt>
      <trkpt lat="43.37671" lon="6.1184">
        <ele>311</ele>
        <time>2016-06-08T13:56:39Z</time>
      </trkpt>
      <trkpt lat="43.37666" lon="6.11847">
        <ele>311.60000610352</ele>
        <time>2016-06-08T13:56:45Z</time>
      </trkpt>
      <trkpt lat="43.37658" lon="6.11856">
        <ele>312.39999389648</ele>
        <time>2016-06-08T13:56:53Z</time>
      </trkpt>
      <trkpt lat="43.37655" lon="6.11859">
        <ele>312.79998779297</ele>
        <time>2016-06-08T13:56:56Z</time>
      </trkpt>
      <trkpt lat="43.37648" lon="6.11872">
        <ele>313.60000610352</ele>
        <time>2016-06-08T13:57:03Z</time>
      </trkpt>
      <trkpt lat="43.37647" lon="6.11874">
        <ele>313.79998779297</ele>
        <time>2016-06-08T13:57:04Z</time>
      </trkpt>
      <trkpt lat="43.37639" lon="6.11887">
        <ele>314.39999389648</ele>
        <time>2016-06-08T13:57:12Z</time>
      </trkpt>
      <trkpt lat="43.37634" lon="6.11894">
        <ele>315.20001220703</ele>
        <time>2016-06-08T13:57:17Z</time>
      </trkpt>
      <trkpt lat="43.37631" lon="6.11898">
        <ele>316</ele>
        <time>2016-06-08T13:57:20Z</time>
      </trkpt>
      <trkpt lat="43.37627" lon="6.11903">
        <ele>316.79998779297</ele>
        <time>2016-06-08T13:57:23Z</time>
      </trkpt>
      <trkpt lat="43.37626" lon="6.11904">
        <ele>317</ele>
        <time>2016-06-08T13:57:24Z</time>
      </trkpt>
      <trkpt lat="43.37623" lon="6.1191">
        <ele>317.60000610352</ele>
        <time>2016-06-08T13:57:29Z</time>
      </trkpt>
      <trkpt lat="43.37622" lon="6.11911">
        <ele>317.60000610352</ele>
        <time>2016-06-08T13:57:30Z</time>
      </trkpt>
      <trkpt lat="43.37622" lon="6.11915">
        <ele>317.39999389648</ele>
        <time>2016-06-08T13:57:34Z</time>
      </trkpt>
      <trkpt lat="43.37622" lon="6.11915">
        <ele>317.60000610352</ele>
        <time>2016-06-08T13:57:38Z</time>
      </trkpt>
      <trkpt lat="43.37622" lon="6.11915">
        <ele>317.60000610352</ele>
        <time>2016-06-08T13:57:48Z</time>
      </trkpt>
      <trkpt lat="43.37621" lon="6.11915">
        <ele>317.60000610352</ele>
        <time>2016-06-08T13:57:54Z</time>
      </trkpt>
      <trkpt lat="43.37621" lon="6.11916">
        <ele>317.60000610352</ele>
        <time>2016-06-08T13:58:06Z</time>
      </trkpt>
      <trkpt lat="43.37621" lon="6.11916">
        <ele>317.60000610352</ele>
        <time>2016-06-08T13:58:21Z</time>
      </trkpt>
      <trkpt lat="43.37621" lon="6.11916">
        <ele>317.79998779297</ele>
        <time>2016-06-08T13:58:31Z</time>
      </trkpt>
      <trkpt lat="43.37621" lon="6.11917">
        <ele>317.79998779297</ele>
        <time>2016-06-08T13:58:43Z</time>
      </trkpt>
      <trkpt lat="43.37621" lon="6.11917">
        <ele>317.79998779297</ele>
        <time>2016-06-08T13:58:46Z</time>
      </trkpt>
      <trkpt lat="43.37621" lon="6.11917">
        <ele>318.20001220703</ele>
        <time>2016-06-08T13:58:59Z</time>
      </trkpt>
      <trkpt lat="43.3762" lon="6.11917">
        <ele>318.20001220703</ele>
        <time>2016-06-08T13:59:01Z</time>
      </trkpt>
      <trkpt lat="43.37619" lon="6.11918">
        <ele>318.39999389648</ele>
        <time>2016-06-08T13:59:14Z</time>
      </trkpt>
      <trkpt lat="43.37619" lon="6.11918">
        <ele>318.39999389648</ele>
        <time>2016-06-08T13:59:50Z</time>
      </trkpt>
      <trkpt lat="43.37619" lon="6.1192">
        <ele>318.39999389648</ele>
        <time>2016-06-08T14:00:36Z</time>
      </trkpt>
      <trkpt lat="43.37619" lon="6.1192">
        <ele>318</ele>
        <time>2016-06-08T14:00:46Z</time>
      </trkpt>
      <trkpt lat="43.3762" lon="6.11921">
        <ele>318.39999389648</ele>
        <time>2016-06-08T14:00:57Z</time>
      </trkpt>
      <trkpt lat="43.3762" lon="6.11921">
        <ele>318.39999389648</ele>
        <time>2016-06-08T14:01:09Z</time>
      </trkpt>
      <trkpt lat="43.3762" lon="6.11922">
        <ele>318.60000610352</ele>
        <time>2016-06-08T14:01:26Z</time>
      </trkpt>
      <trkpt lat="43.3762" lon="6.11921">
        <ele>318.39999389648</ele>
        <time>2016-06-08T14:01:36Z</time>
      </trkpt>
      <trkpt lat="43.37622" lon="6.11927">
        <ele>318.79998779297</ele>
        <time>2016-06-08T14:01:44Z</time>
      </trkpt>
      <trkpt lat="43.37623" lon="6.11933">
        <ele>318.79998779297</ele>
        <time>2016-06-08T14:01:47Z</time>
      </trkpt>
      <trkpt lat="43.37625" lon="6.11938">
        <ele>319</ele>
        <time>2016-06-08T14:01:49Z</time>
      </trkpt>
      <trkpt lat="43.37628" lon="6.11946">
        <ele>319</ele>
        <time>2016-06-08T14:01:52Z</time>
      </trkpt>
      <trkpt lat="43.37629" lon="6.11948">
        <ele>319.20001220703</ele>
        <time>2016-06-08T14:01:53Z</time>
      </trkpt>
      <trkpt lat="43.37629" lon="6.11953">
        <ele>319.60000610352</ele>
        <time>2016-06-08T14:01:55Z</time>
      </trkpt>
      <trkpt lat="43.37629" lon="6.11968">
        <ele>320.39999389648</ele>
        <time>2016-06-08T14:02:00Z</time>
      </trkpt>
      <trkpt lat="43.37629" lon="6.11971">
        <ele>320.79998779297</ele>
        <time>2016-06-08T14:02:01Z</time>
      </trkpt>
      <trkpt lat="43.3763" lon="6.11976">
        <ele>321.20001220703</ele>
        <time>2016-06-08T14:02:03Z</time>
      </trkpt>
      <trkpt lat="43.3763" lon="6.1198">
        <ele>321.60000610352</ele>
        <time>2016-06-08T14:02:05Z</time>
      </trkpt>
      <trkpt lat="43.37629" lon="6.11982">
        <ele>321.79998779297</ele>
        <time>2016-06-08T14:02:06Z</time>
      </trkpt>
      <trkpt lat="43.37628" lon="6.11988">
        <ele>322.39999389648</ele>
        <time>2016-06-08T14:02:09Z</time>
      </trkpt>
      <trkpt lat="43.37627" lon="6.11995">
        <ele>322.79998779297</ele>
        <time>2016-06-08T14:02:12Z</time>
      </trkpt>
      <trkpt lat="43.37627" lon="6.12005">
        <ele>323.20001220703</ele>
        <time>2016-06-08T14:02:16Z</time>
      </trkpt>
      <trkpt lat="43.37626" lon="6.12009">
        <ele>323.60000610352</ele>
        <time>2016-06-08T14:02:18Z</time>
      </trkpt>
      <trkpt lat="43.37626" lon="6.12011">
        <ele>323.79998779297</ele>
        <time>2016-06-08T14:02:19Z</time>
      </trkpt>
      <trkpt lat="43.37624" lon="6.12017">
        <ele>324.39999389648</ele>
        <time>2016-06-08T14:02:22Z</time>
      </trkpt>
      <trkpt lat="43.37624" lon="6.12021">
        <ele>325</ele>
        <time>2016-06-08T14:02:24Z</time>
      </trkpt>
      <trkpt lat="43.3762" lon="6.12033">
        <ele>326</ele>
        <time>2016-06-08T14:02:29Z</time>
      </trkpt>
      <trkpt lat="43.37619" lon="6.12037">
        <ele>326.39999389648</ele>
        <time>2016-06-08T14:02:31Z</time>
      </trkpt>
      <trkpt lat="43.37616" lon="6.12043">
        <ele>326.60000610352</ele>
        <time>2016-06-08T14:02:35Z</time>
      </trkpt>
      <trkpt lat="43.37615" lon="6.12046">
        <ele>327</ele>
        <time>2016-06-08T14:02:37Z</time>
      </trkpt>
      <trkpt lat="43.3761" lon="6.12058">
        <ele>327</ele>
        <time>2016-06-08T14:02:42Z</time>
      </trkpt>
      <trkpt lat="43.37606" lon="6.12071">
        <ele>327.20001220703</ele>
        <time>2016-06-08T14:02:49Z</time>
      </trkpt>
      <trkpt lat="43.37606" lon="6.12073">
        <ele>327.39999389648</ele>
        <time>2016-06-08T14:02:50Z</time>
      </trkpt>
      <trkpt lat="43.37603" lon="6.12078">
        <ele>327.60000610352</ele>
        <time>2016-06-08T14:02:54Z</time>
      </trkpt>
      <trkpt lat="43.37598" lon="6.1209">
        <ele>328</ele>
        <time>2016-06-08T14:03:01Z</time>
      </trkpt>
      <trkpt lat="43.37598" lon="6.12092">
        <ele>328</ele>
        <time>2016-06-08T14:03:04Z</time>
      </trkpt>
      <trkpt lat="43.37598" lon="6.12092">
        <ele>328.20001220703</ele>
        <time>2016-06-08T14:03:06Z</time>
      </trkpt>
      <trkpt lat="43.37598" lon="6.12092">
        <ele>328.20001220703</ele>
        <time>2016-06-08T14:03:09Z</time>
      </trkpt>
      <trkpt lat="43.37598" lon="6.12093">
        <ele>328.20001220703</ele>
        <time>2016-06-08T14:03:14Z</time>
      </trkpt>
      <trkpt lat="43.37597" lon="6.12094">
        <ele>328.20001220703</ele>
        <time>2016-06-08T14:03:23Z</time>
      </trkpt>
      <trkpt lat="43.37597" lon="6.12094">
        <ele>328.60000610352</ele>
        <time>2016-06-08T14:03:26Z</time>
      </trkpt>
      <trkpt lat="43.37596" lon="6.12094">
        <ele>328.60000610352</ele>
        <time>2016-06-08T14:03:35Z</time>
      </trkpt>
      <trkpt lat="43.37595" lon="6.12094">
        <ele>328.60000610352</ele>
        <time>2016-06-08T14:03:36Z</time>
      </trkpt>
      <trkpt lat="43.37595" lon="6.12095">
        <ele>328.60000610352</ele>
        <time>2016-06-08T14:03:41Z</time>
      </trkpt>
      <trkpt lat="43.37594" lon="6.12096">
        <ele>328.60000610352</ele>
        <time>2016-06-08T14:03:48Z</time>
      </trkpt>
      <trkpt lat="43.37594" lon="6.1209">
        <ele>328.60000610352</ele>
        <time>2016-06-08T14:03:57Z</time>
      </trkpt>
      <trkpt lat="43.37599" lon="6.12079">
        <ele>328.20001220703</ele>
        <time>2016-06-08T14:04:02Z</time>
      </trkpt>
      <trkpt lat="43.37605" lon="6.12062">
        <ele>327.60000610352</ele>
        <time>2016-06-08T14:04:08Z</time>
      </trkpt>
      <trkpt lat="43.37609" lon="6.12048">
        <ele>327.39999389648</ele>
        <time>2016-06-08T14:04:13Z</time>
      </trkpt>
      <trkpt lat="43.37618" lon="6.12025">
        <ele>326</ele>
        <time>2016-06-08T14:04:18Z</time>
      </trkpt>
      <trkpt lat="43.37621" lon="6.12012">
        <ele>325.39999389648</ele>
        <time>2016-06-08T14:04:20Z</time>
      </trkpt>
      <trkpt lat="43.37625" lon="6.11999">
        <ele>324.20001220703</ele>
        <time>2016-06-08T14:04:22Z</time>
      </trkpt>
      <trkpt lat="43.37629" lon="6.1198">
        <ele>323</ele>
        <time>2016-06-08T14:04:25Z</time>
      </trkpt>
      <trkpt lat="43.3763" lon="6.11968">
        <ele>322.20001220703</ele>
        <time>2016-06-08T14:04:27Z</time>
      </trkpt>
      <trkpt lat="43.3763" lon="6.11962">
        <ele>321.79998779297</ele>
        <time>2016-06-08T14:04:28Z</time>
      </trkpt>
      <trkpt lat="43.37629" lon="6.11955">
        <ele>321.79998779297</ele>
        <time>2016-06-08T14:04:29Z</time>
      </trkpt>
      <trkpt lat="43.37627" lon="6.11948">
        <ele>321.60000610352</ele>
        <time>2016-06-08T14:04:30Z</time>
      </trkpt>
      <trkpt lat="43.37625" lon="6.11941">
        <ele>320.79998779297</ele>
        <time>2016-06-08T14:04:31Z</time>
      </trkpt>
      <trkpt lat="43.37619" lon="6.11926">
        <ele>319.60000610352</ele>
        <time>2016-06-08T14:04:34Z</time>
      </trkpt>
      <trkpt lat="43.37615" lon="6.11927">
        <ele>319.39999389648</ele>
        <time>2016-06-08T14:04:37Z</time>
      </trkpt>
      <trkpt lat="43.37613" lon="6.11931">
        <ele>320</ele>
        <time>2016-06-08T14:04:40Z</time>
      </trkpt>
      <trkpt lat="43.37609" lon="6.11936">
        <ele>321.20001220703</ele>
        <time>2016-06-08T14:04:43Z</time>
      </trkpt>
      <trkpt lat="43.37605" lon="6.1194">
        <ele>322</ele>
        <time>2016-06-08T14:04:46Z</time>
      </trkpt>
      <trkpt lat="43.37603" lon="6.11943">
        <ele>322.20001220703</ele>
        <time>2016-06-08T14:04:48Z</time>
      </trkpt>
      <trkpt lat="43.376" lon="6.11946">
        <ele>322.60000610352</ele>
        <time>2016-06-08T14:04:50Z</time>
      </trkpt>
      <trkpt lat="43.37598" lon="6.11949">
        <ele>323.20001220703</ele>
        <time>2016-06-08T14:04:52Z</time>
      </trkpt>
      <trkpt lat="43.37597" lon="6.11951">
        <ele>323.39999389648</ele>
        <time>2016-06-08T14:04:53Z</time>
      </trkpt>
      <trkpt lat="43.37595" lon="6.11953">
        <ele>323.79998779297</ele>
        <time>2016-06-08T14:04:55Z</time>
      </trkpt>
      <trkpt lat="43.37592" lon="6.11956">
        <ele>324.20001220703</ele>
        <time>2016-06-08T14:04:57Z</time>
      </trkpt>
      <trkpt lat="43.37589" lon="6.11959">
        <ele>324.60000610352</ele>
        <time>2016-06-08T14:04:59Z</time>
      </trkpt>
      <trkpt lat="43.37584" lon="6.11965">
        <ele>325.60000610352</ele>
        <time>2016-06-08T14:05:03Z</time>
      </trkpt>
      <trkpt lat="43.3758" lon="6.11967">
        <ele>326</ele>
        <time>2016-06-08T14:05:05Z</time>
      </trkpt>
      <trkpt lat="43.37574" lon="6.11972">
        <ele>327</ele>
        <time>2016-06-08T14:05:10Z</time>
      </trkpt>
      <trkpt lat="43.37571" lon="6.11973">
        <ele>327.39999389648</ele>
        <time>2016-06-08T14:05:12Z</time>
      </trkpt>
      <trkpt lat="43.37566" lon="6.11978">
        <ele>328</ele>
        <time>2016-06-08T14:05:16Z</time>
      </trkpt>
      <trkpt lat="43.37556" lon="6.11985">
        <ele>329.39999389648</ele>
        <time>2016-06-08T14:05:24Z</time>
      </trkpt>
      <trkpt lat="43.37553" lon="6.11989">
        <ele>329.79998779297</ele>
        <time>2016-06-08T14:05:27Z</time>
      </trkpt>
      <trkpt lat="43.3755" lon="6.11992">
        <ele>330.39999389648</ele>
        <time>2016-06-08T14:05:30Z</time>
      </trkpt>
      <trkpt lat="43.37547" lon="6.11994">
        <ele>331</ele>
        <time>2016-06-08T14:05:33Z</time>
      </trkpt>
      <trkpt lat="43.37546" lon="6.11995">
        <ele>331.20001220703</ele>
        <time>2016-06-08T14:05:34Z</time>
      </trkpt>
      <trkpt lat="43.37545" lon="6.11996">
        <ele>331.39999389648</ele>
        <time>2016-06-08T14:05:35Z</time>
      </trkpt>
      <trkpt lat="43.37542" lon="6.11999">
        <ele>331.79998779297</ele>
        <time>2016-06-08T14:05:38Z</time>
      </trkpt>
      <trkpt lat="43.3754" lon="6.12001">
        <ele>332.60000610352</ele>
        <time>2016-06-08T14:05:41Z</time>
      </trkpt>
      <trkpt lat="43.37535" lon="6.12006">
        <ele>333.60000610352</ele>
        <time>2016-06-08T14:05:47Z</time>
      </trkpt>
      <trkpt lat="43.37526" lon="6.12018">
        <ele>334.79998779297</ele>
        <time>2016-06-08T14:05:56Z</time>
      </trkpt>
      <trkpt lat="43.37519" lon="6.12024">
        <ele>336</ele>
        <time>2016-06-08T14:06:02Z</time>
      </trkpt>
      <trkpt lat="43.37516" lon="6.12028">
        <ele>336.60000610352</ele>
        <time>2016-06-08T14:06:06Z</time>
      </trkpt>
      <trkpt lat="43.37514" lon="6.12031">
        <ele>337</ele>
        <time>2016-06-08T14:06:08Z</time>
      </trkpt>
      <trkpt lat="43.3751" lon="6.12036">
        <ele>338</ele>
        <time>2016-06-08T14:06:13Z</time>
      </trkpt>
      <trkpt lat="43.37509" lon="6.12037">
        <ele>338.20001220703</ele>
        <time>2016-06-08T14:06:14Z</time>
      </trkpt>
      <trkpt lat="43.37505" lon="6.12041">
        <ele>338.79998779297</ele>
        <time>2016-06-08T14:06:19Z</time>
      </trkpt>
      <trkpt lat="43.37504" lon="6.12042">
        <ele>339.20001220703</ele>
        <time>2016-06-08T14:06:20Z</time>
      </trkpt>
      <trkpt lat="43.37498" lon="6.12048">
        <ele>340.20001220703</ele>
        <time>2016-06-08T14:06:26Z</time>
      </trkpt>
      <trkpt lat="43.37491" lon="6.12055">
        <ele>341.39999389648</ele>
        <time>2016-06-08T14:06:34Z</time>
      </trkpt>
      <trkpt lat="43.3749" lon="6.12056">
        <ele>341.60000610352</ele>
        <time>2016-06-08T14:06:35Z</time>
      </trkpt>
      <trkpt lat="43.37487" lon="6.12059">
        <ele>342.79998779297</ele>
        <time>2016-06-08T14:06:39Z</time>
      </trkpt>
      <trkpt lat="43.37483" lon="6.12063">
        <ele>343.60000610352</ele>
        <time>2016-06-08T14:06:44Z</time>
      </trkpt>
      <trkpt lat="43.37482" lon="6.12064">
        <ele>343.60000610352</ele>
        <time>2016-06-08T14:06:45Z</time>
      </trkpt>
      <trkpt lat="43.37478" lon="6.12067">
        <ele>344</ele>
        <time>2016-06-08T14:06:48Z</time>
      </trkpt>
      <trkpt lat="43.37477" lon="6.12068">
        <ele>344</ele>
        <time>2016-06-08T14:06:49Z</time>
      </trkpt>
      <trkpt lat="43.37471" lon="6.12071">
        <ele>345.20001220703</ele>
        <time>2016-06-08T14:06:55Z</time>
      </trkpt>
      <trkpt lat="43.3746" lon="6.12076">
        <ele>346.20001220703</ele>
        <time>2016-06-08T14:07:03Z</time>
      </trkpt>
      <trkpt lat="43.37451" lon="6.1208">
        <ele>347.20001220703</ele>
        <time>2016-06-08T14:07:10Z</time>
      </trkpt>
      <trkpt lat="43.37441" lon="6.12079">
        <ele>348.20001220703</ele>
        <time>2016-06-08T14:07:18Z</time>
      </trkpt>
      <trkpt lat="43.37432" lon="6.1208">
        <ele>348.60000610352</ele>
        <time>2016-06-08T14:07:25Z</time>
      </trkpt>
      <trkpt lat="43.3743" lon="6.12081">
        <ele>348.79998779297</ele>
        <time>2016-06-08T14:07:27Z</time>
      </trkpt>
      <trkpt lat="43.37427" lon="6.12083">
        <ele>348.79998779297</ele>
        <time>2016-06-08T14:07:30Z</time>
      </trkpt>
      <trkpt lat="43.37424" lon="6.12084">
        <ele>348.60000610352</ele>
        <time>2016-06-08T14:07:33Z</time>
      </trkpt>
      <trkpt lat="43.37424" lon="6.12085">
        <ele>348.39999389648</ele>
        <time>2016-06-08T14:07:37Z</time>
      </trkpt>
      <trkpt lat="43.37424" lon="6.12085">
        <ele>348.39999389648</ele>
        <time>2016-06-08T14:07:39Z</time>
      </trkpt>
      <trkpt lat="43.37424" lon="6.12085">
        <ele>348.20001220703</ele>
        <time>2016-06-08T14:07:44Z</time>
      </trkpt>
      <trkpt lat="43.37423" lon="6.12085">
        <ele>348.20001220703</ele>
        <time>2016-06-08T14:08:00Z</time>
      </trkpt>
      <trkpt lat="43.37423" lon="6.12085">
        <ele>348.20001220703</ele>
        <time>2016-06-08T14:08:13Z</time>
      </trkpt>
      <trkpt lat="43.37423" lon="6.12085">
        <ele>348.20001220703</ele>
        <time>2016-06-08T14:08:16Z</time>
      </trkpt>
      <trkpt lat="43.37423" lon="6.12085">
        <ele>348.20001220703</ele>
        <time>2016-06-08T14:08:19Z</time>
      </trkpt>
      <trkpt lat="43.37422" lon="6.12082">
        <ele>348.20001220703</ele>
        <time>2016-06-08T14:08:25Z</time>
      </trkpt>
      <trkpt lat="43.37421" lon="6.12081">
        <ele>348.39999389648</ele>
        <time>2016-06-08T14:08:34Z</time>
      </trkpt>
      <trkpt lat="43.37421" lon="6.12082">
        <ele>348.20001220703</ele>
        <time>2016-06-08T14:08:42Z</time>
      </trkpt>
      <trkpt lat="43.37421" lon="6.12083">
        <ele>347.60000610352</ele>
        <time>2016-06-08T14:09:04Z</time>
      </trkpt>
      <trkpt lat="43.37421" lon="6.12082">
        <ele>347.60000610352</ele>
        <time>2016-06-08T14:09:06Z</time>
      </trkpt>
      <trkpt lat="43.37421" lon="6.12082">
        <ele>347.60000610352</ele>
        <time>2016-06-08T14:09:13Z</time>
      </trkpt>
      <trkpt lat="43.37421" lon="6.12083">
        <ele>347.39999389648</ele>
        <time>2016-06-08T14:09:32Z</time>
      </trkpt>
      <trkpt lat="43.37421" lon="6.12083">
        <ele>347.20001220703</ele>
        <time>2016-06-08T14:09:44Z</time>
      </trkpt>
      <trkpt lat="43.37421" lon="6.12082">
        <ele>347.79998779297</ele>
        <time>2016-06-08T14:09:59Z</time>
      </trkpt>
      <trkpt lat="43.37421" lon="6.12082">
        <ele>348</ele>
        <time>2016-06-08T14:10:00Z</time>
      </trkpt>
      <trkpt lat="43.37421" lon="6.12082">
        <ele>348</ele>
        <time>2016-06-08T14:10:20Z</time>
      </trkpt>
      <trkpt lat="43.37421" lon="6.12082">
        <ele>348.20001220703</ele>
        <time>2016-06-08T14:11:09Z</time>
      </trkpt>
      <trkpt lat="43.37421" lon="6.12082">
        <ele>347.79998779297</ele>
        <time>2016-06-08T14:11:30Z</time>
      </trkpt>
      <trkpt lat="43.3742" lon="6.12082">
        <ele>347.79998779297</ele>
        <time>2016-06-08T14:11:35Z</time>
      </trkpt>
      <trkpt lat="43.3742" lon="6.12082">
        <ele>348</ele>
        <time>2016-06-08T14:11:45Z</time>
      </trkpt>
      <trkpt lat="43.3742" lon="6.12082">
        <ele>347.79998779297</ele>
        <time>2016-06-08T14:11:52Z</time>
      </trkpt>
      <trkpt lat="43.3742" lon="6.12082">
        <ele>347.79998779297</ele>
        <time>2016-06-08T14:12:11Z</time>
      </trkpt>
      <trkpt lat="43.37421" lon="6.12082">
        <ele>348</ele>
        <time>2016-06-08T14:12:52Z</time>
      </trkpt>
      <trkpt lat="43.3742" lon="6.12082">
        <ele>348</ele>
        <time>2016-06-08T14:13:22Z</time>
      </trkpt>
      <trkpt lat="43.3742" lon="6.12082">
        <ele>348</ele>
        <time>2016-06-08T14:13:50Z</time>
      </trkpt>
      <trkpt lat="43.3742" lon="6.12082">
        <ele>347.79998779297</ele>
        <time>2016-06-08T14:14:19Z</time>
      </trkpt>
      <trkpt lat="43.3742" lon="6.12082">
        <ele>348</ele>
        <time>2016-06-08T14:14:59Z</time>
      </trkpt>
      <trkpt lat="43.3742" lon="6.12083">
        <ele>347.79998779297</ele>
        <time>2016-06-08T14:15:45Z</time>
      </trkpt>
      <trkpt lat="43.3742" lon="6.12083">
        <ele>348.20001220703</ele>
        <time>2016-06-08T14:16:03Z</time>
      </trkpt>
      <trkpt lat="43.37419" lon="6.12083">
        <ele>348.20001220703</ele>
        <time>2016-06-08T14:16:38Z</time>
      </trkpt>
      <trkpt lat="43.37419" lon="6.12083">
        <ele>348.39999389648</ele>
        <time>2016-06-08T14:16:57Z</time>
      </trkpt>
      <trkpt lat="43.3742" lon="6.12083">
        <ele>348</ele>
        <time>2016-06-08T14:17:10Z</time>
      </trkpt>
      <trkpt lat="43.37419" lon="6.1208">
        <ele>348.20001220703</ele>
        <time>2016-06-08T14:17:19Z</time>
      </trkpt>
      <trkpt lat="43.37419" lon="6.12079">
        <ele>348.20001220703</ele>
        <time>2016-06-08T14:17:20Z</time>
      </trkpt>
      <trkpt lat="43.3742" lon="6.12068">
        <ele>347.79998779297</ele>
        <time>2016-06-08T14:17:27Z</time>
      </trkpt>
      <trkpt lat="43.37421" lon="6.12051">
        <ele>347.79998779297</ele>
        <time>2016-06-08T14:17:33Z</time>
      </trkpt>
      <trkpt lat="43.37421" lon="6.1204">
        <ele>348</ele>
        <time>2016-06-08T14:17:36Z</time>
      </trkpt>
      <trkpt lat="43.37421" lon="6.12032">
        <ele>348.20001220703</ele>
        <time>2016-06-08T14:17:38Z</time>
      </trkpt>
      <trkpt lat="43.37421" lon="6.12014">
        <ele>348.39999389648</ele>
        <time>2016-06-08T14:17:42Z</time>
      </trkpt>
      <trkpt lat="43.3742" lon="6.12009">
        <ele>348.39999389648</ele>
        <time>2016-06-08T14:17:43Z</time>
      </trkpt>
      <trkpt lat="43.3742" lon="6.11986">
        <ele>348.39999389648</ele>
        <time>2016-06-08T14:17:48Z</time>
      </trkpt>
      <trkpt lat="43.3742" lon="6.11965">
        <ele>348.39999389648</ele>
        <time>2016-06-08T14:17:52Z</time>
      </trkpt>
      <trkpt lat="43.37422" lon="6.11933">
        <ele>347.20001220703</ele>
        <time>2016-06-08T14:17:57Z</time>
      </trkpt>
      <trkpt lat="43.37422" lon="6.11927">
        <ele>347</ele>
        <time>2016-06-08T14:17:58Z</time>
      </trkpt>
      <trkpt lat="43.37422" lon="6.11914">
        <ele>346.60000610352</ele>
        <time>2016-06-08T14:18:00Z</time>
      </trkpt>
      <trkpt lat="43.37424" lon="6.11903">
        <ele>346.39999389648</ele>
        <time>2016-06-08T14:18:02Z</time>
      </trkpt>
      <trkpt lat="43.3743" lon="6.11881">
        <ele>346.20001220703</ele>
        <time>2016-06-08T14:18:06Z</time>
      </trkpt>
      <trkpt lat="43.37432" lon="6.1187">
        <ele>346.20001220703</ele>
        <time>2016-06-08T14:18:08Z</time>
      </trkpt>
      <trkpt lat="43.37436" lon="6.11854">
        <ele>346.20001220703</ele>
        <time>2016-06-08T14:18:11Z</time>
      </trkpt>
      <trkpt lat="43.37438" lon="6.11845">
        <ele>345.79998779297</ele>
        <time>2016-06-08T14:18:13Z</time>
      </trkpt>
      <trkpt lat="43.3744" lon="6.11828">
        <ele>345</ele>
        <time>2016-06-08T14:18:17Z</time>
      </trkpt>
      <trkpt lat="43.3744" lon="6.1182">
        <ele>344.39999389648</ele>
        <time>2016-06-08T14:18:19Z</time>
      </trkpt>
      <trkpt lat="43.37442" lon="6.11809">
        <ele>343.79998779297</ele>
        <time>2016-06-08T14:18:22Z</time>
      </trkpt>
      <trkpt lat="43.37442" lon="6.11806">
        <ele>343.60000610352</ele>
        <time>2016-06-08T14:18:23Z</time>
      </trkpt>
      <trkpt lat="43.37445" lon="6.1179">
        <ele>343.20001220703</ele>
        <time>2016-06-08T14:18:28Z</time>
      </trkpt>
      <trkpt lat="43.37447" lon="6.11773">
        <ele>341.79998779297</ele>
        <time>2016-06-08T14:18:32Z</time>
      </trkpt>
      <trkpt lat="43.37448" lon="6.11769">
        <ele>341.60000610352</ele>
        <time>2016-06-08T14:18:33Z</time>
      </trkpt>
      <trkpt lat="43.37451" lon="6.1175">
        <ele>341.60000610352</ele>
        <time>2016-06-08T14:18:37Z</time>
      </trkpt>
      <trkpt lat="43.37455" lon="6.11725">
        <ele>341.20001220703</ele>
        <time>2016-06-08T14:18:42Z</time>
      </trkpt>
      <trkpt lat="43.37456" lon="6.11714">
        <ele>340.20001220703</ele>
        <time>2016-06-08T14:18:44Z</time>
      </trkpt>
      <trkpt lat="43.37456" lon="6.11709">
        <ele>340</ele>
        <time>2016-06-08T14:18:45Z</time>
      </trkpt>
      <trkpt lat="43.37456" lon="6.11699">
        <ele>339.39999389648</ele>
        <time>2016-06-08T14:18:47Z</time>
      </trkpt>
      <trkpt lat="43.37458" lon="6.11687">
        <ele>339.20001220703</ele>
        <time>2016-06-08T14:18:49Z</time>
      </trkpt>
      <trkpt lat="43.3746" lon="6.11669">
        <ele>339</ele>
        <time>2016-06-08T14:18:52Z</time>
      </trkpt>
      <trkpt lat="43.37465" lon="6.1164">
        <ele>338</ele>
        <time>2016-06-08T14:18:57Z</time>
      </trkpt>
      <trkpt lat="43.37469" lon="6.11618">
        <ele>336.39999389648</ele>
        <time>2016-06-08T14:19:01Z</time>
      </trkpt>
      <trkpt lat="43.37472" lon="6.11592">
        <ele>336.39999389648</ele>
        <time>2016-06-08T14:19:06Z</time>
      </trkpt>
      <trkpt lat="43.37476" lon="6.11573">
        <ele>336.20001220703</ele>
        <time>2016-06-08T14:19:10Z</time>
      </trkpt>
      <trkpt lat="43.37478" lon="6.11549">
        <ele>335.79998779297</ele>
        <time>2016-06-08T14:19:15Z</time>
      </trkpt>
      <trkpt lat="43.37477" lon="6.11531">
        <ele>336</ele>
        <time>2016-06-08T14:19:19Z</time>
      </trkpt>
      <trkpt lat="43.37476" lon="6.11521">
        <ele>335.79998779297</ele>
        <time>2016-06-08T14:19:22Z</time>
      </trkpt>
      <trkpt lat="43.37476" lon="6.1152">
        <ele>335.60000610352</ele>
        <time>2016-06-08T14:19:23Z</time>
      </trkpt>
      <trkpt lat="43.37476" lon="6.11517">
        <ele>335.39999389648</ele>
        <time>2016-06-08T14:19:33Z</time>
      </trkpt>
      <trkpt lat="43.37476" lon="6.11515">
        <ele>335.39999389648</ele>
        <time>2016-06-08T14:19:44Z</time>
      </trkpt>
      <trkpt lat="43.37476" lon="6.11514">
        <ele>335.39999389648</ele>
        <time>2016-06-08T14:19:45Z</time>
      </trkpt>
      <trkpt lat="43.37477" lon="6.11512">
        <ele>335.20001220703</ele>
        <time>2016-06-08T14:19:46Z</time>
      </trkpt>
      <trkpt lat="43.37478" lon="6.11506">
        <ele>335.20001220703</ele>
        <time>2016-06-08T14:19:48Z</time>
      </trkpt>
      <trkpt lat="43.37479" lon="6.11499">
        <ele>335.20001220703</ele>
        <time>2016-06-08T14:19:50Z</time>
      </trkpt>
      <trkpt lat="43.37483" lon="6.11483">
        <ele>334.79998779297</ele>
        <time>2016-06-08T14:19:54Z</time>
      </trkpt>
      <trkpt lat="43.37485" lon="6.1147">
        <ele>334.79998779297</ele>
        <time>2016-06-08T14:19:57Z</time>
      </trkpt>
      <trkpt lat="43.37487" lon="6.11457">
        <ele>334</ele>
        <time>2016-06-08T14:20:00Z</time>
      </trkpt>
      <trkpt lat="43.37488" lon="6.11452">
        <ele>333.60000610352</ele>
        <time>2016-06-08T14:20:01Z</time>
      </trkpt>
      <trkpt lat="43.37491" lon="6.1144">
        <ele>332.39999389648</ele>
        <time>2016-06-08T14:20:04Z</time>
      </trkpt>
      <trkpt lat="43.37492" lon="6.11435">
        <ele>332.39999389648</ele>
        <time>2016-06-08T14:20:05Z</time>
      </trkpt>
      <trkpt lat="43.37495" lon="6.11417">
        <ele>332.79998779297</ele>
        <time>2016-06-08T14:20:10Z</time>
      </trkpt>
      <trkpt lat="43.37501" lon="6.11397">
        <ele>331.20001220703</ele>
        <time>2016-06-08T14:20:15Z</time>
      </trkpt>
      <trkpt lat="43.37506" lon="6.11387">
        <ele>329.79998779297</ele>
        <time>2016-06-08T14:20:19Z</time>
      </trkpt>
      <trkpt lat="43.37508" lon="6.11385">
        <ele>329.39999389648</ele>
        <time>2016-06-08T14:20:20Z</time>
      </trkpt>
      <trkpt lat="43.37514" lon="6.11369">
        <ele>328.79998779297</ele>
        <time>2016-06-08T14:20:25Z</time>
      </trkpt>
      <trkpt lat="43.37515" lon="6.11366">
        <ele>328.39999389648</ele>
        <time>2016-06-08T14:20:26Z</time>
      </trkpt>
      <trkpt lat="43.37521" lon="6.1134">
        <ele>326.39999389648</ele>
        <time>2016-06-08T14:20:35Z</time>
      </trkpt>
      <trkpt lat="43.37525" lon="6.1133">
        <ele>325.20001220703</ele>
        <time>2016-06-08T14:20:39Z</time>
      </trkpt>
      <trkpt lat="43.37529" lon="6.11318">
        <ele>324.39999389648</ele>
        <time>2016-06-08T14:20:43Z</time>
      </trkpt>
      <trkpt lat="43.37534" lon="6.11307">
        <ele>324</ele>
        <time>2016-06-08T14:20:47Z</time>
      </trkpt>
      <trkpt lat="43.37535" lon="6.11304">
        <ele>323.79998779297</ele>
        <time>2016-06-08T14:20:48Z</time>
      </trkpt>
      <trkpt lat="43.37538" lon="6.11294">
        <ele>322.60000610352</ele>
        <time>2016-06-08T14:20:51Z</time>
      </trkpt>
      <trkpt lat="43.3754" lon="6.11286">
        <ele>321.60000610352</ele>
        <time>2016-06-08T14:20:53Z</time>
      </trkpt>
      <trkpt lat="43.37542" lon="6.11277">
        <ele>320.60000610352</ele>
        <time>2016-06-08T14:20:56Z</time>
      </trkpt>
      <trkpt lat="43.37543" lon="6.11274">
        <ele>320.20001220703</ele>
        <time>2016-06-08T14:20:57Z</time>
      </trkpt>
      <trkpt lat="43.37544" lon="6.11269">
        <ele>319.39999389648</ele>
        <time>2016-06-08T14:20:59Z</time>
      </trkpt>
      <trkpt lat="43.37546" lon="6.11258">
        <ele>318.79998779297</ele>
        <time>2016-06-08T14:21:03Z</time>
      </trkpt>
      <trkpt lat="43.37547" lon="6.11252">
        <ele>318.20001220703</ele>
        <time>2016-06-08T14:21:06Z</time>
      </trkpt>
      <trkpt lat="43.37549" lon="6.11249">
        <ele>317.60000610352</ele>
        <time>2016-06-08T14:21:08Z</time>
      </trkpt>
      <trkpt lat="43.37551" lon="6.11244">
        <ele>317</ele>
        <time>2016-06-08T14:21:11Z</time>
      </trkpt>
      <trkpt lat="43.37551" lon="6.11241">
        <ele>316.60000610352</ele>
        <time>2016-06-08T14:21:15Z</time>
      </trkpt>
      <trkpt lat="43.37554" lon="6.11234">
        <ele>316.60000610352</ele>
        <time>2016-06-08T14:21:21Z</time>
      </trkpt>
      <trkpt lat="43.37556" lon="6.1123">
        <ele>316.20001220703</ele>
        <time>2016-06-08T14:21:25Z</time>
      </trkpt>
      <trkpt lat="43.37556" lon="6.11229">
        <ele>316</ele>
        <time>2016-06-08T14:21:27Z</time>
      </trkpt>
      <trkpt lat="43.37557" lon="6.11228">
        <ele>315.79998779297</ele>
        <time>2016-06-08T14:21:32Z</time>
      </trkpt>
      <trkpt lat="43.37557" lon="6.11226">
        <ele>315.39999389648</ele>
        <time>2016-06-08T14:21:36Z</time>
      </trkpt>
      <trkpt lat="43.37559" lon="6.11222">
        <ele>315</ele>
        <time>2016-06-08T14:21:42Z</time>
      </trkpt>
      <trkpt lat="43.3756" lon="6.1122">
        <ele>314.60000610352</ele>
        <time>2016-06-08T14:21:46Z</time>
      </trkpt>
      <trkpt lat="43.37563" lon="6.11211">
        <ele>314</ele>
        <time>2016-06-08T14:21:55Z</time>
      </trkpt>
      <trkpt lat="43.37564" lon="6.11205">
        <ele>312.79998779297</ele>
        <time>2016-06-08T14:22:01Z</time>
      </trkpt>
      <trkpt lat="43.37565" lon="6.11204">
        <ele>312.39999389648</ele>
        <time>2016-06-08T14:22:03Z</time>
      </trkpt>
      <trkpt lat="43.37568" lon="6.112">
        <ele>311.79998779297</ele>
        <time>2016-06-08T14:22:12Z</time>
      </trkpt>
      <trkpt lat="43.37568" lon="6.11198">
        <ele>311.79998779297</ele>
        <time>2016-06-08T14:22:18Z</time>
      </trkpt>
      <trkpt lat="43.37568" lon="6.11198">
        <ele>311.60000610352</ele>
        <time>2016-06-08T14:22:22Z</time>
      </trkpt>
      <trkpt lat="43.3757" lon="6.11193">
        <ele>311.79998779297</ele>
        <time>2016-06-08T14:22:29Z</time>
      </trkpt>
      <trkpt lat="43.37572" lon="6.11185">
        <ele>310.60000610352</ele>
        <time>2016-06-08T14:22:36Z</time>
      </trkpt>
      <trkpt lat="43.37572" lon="6.11184">
        <ele>310.20001220703</ele>
        <time>2016-06-08T14:22:38Z</time>
      </trkpt>
      <trkpt lat="43.37574" lon="6.11176">
        <ele>309.79998779297</ele>
        <time>2016-06-08T14:22:45Z</time>
      </trkpt>
      <trkpt lat="43.37576" lon="6.1117">
        <ele>309.60000610352</ele>
        <time>2016-06-08T14:22:48Z</time>
      </trkpt>
      <trkpt lat="43.37578" lon="6.11166">
        <ele>309</ele>
        <time>2016-06-08T14:22:50Z</time>
      </trkpt>
      <trkpt lat="43.3758" lon="6.11163">
        <ele>308.79998779297</ele>
        <time>2016-06-08T14:22:52Z</time>
      </trkpt>
      <trkpt lat="43.37581" lon="6.11158">
        <ele>308</ele>
        <time>2016-06-08T14:22:55Z</time>
      </trkpt>
      <trkpt lat="43.37585" lon="6.11148">
        <ele>307.20001220703</ele>
        <time>2016-06-08T14:23:01Z</time>
      </trkpt>
      <trkpt lat="43.37585" lon="6.11146">
        <ele>307</ele>
        <time>2016-06-08T14:23:02Z</time>
      </trkpt>
      <trkpt lat="43.37587" lon="6.11139">
        <ele>306.20001220703</ele>
        <time>2016-06-08T14:23:06Z</time>
      </trkpt>
      <trkpt lat="43.37587" lon="6.11139">
        <ele>306.20001220703</ele>
        <time>2016-06-08T14:23:07Z</time>
      </trkpt>
      <trkpt lat="43.3759" lon="6.11135">
        <ele>305.79998779297</ele>
        <time>2016-06-08T14:23:13Z</time>
      </trkpt>
      <trkpt lat="43.37593" lon="6.1113">
        <ele>305.20001220703</ele>
        <time>2016-06-08T14:23:20Z</time>
      </trkpt>
      <trkpt lat="43.37593" lon="6.11129">
        <ele>305</ele>
        <time>2016-06-08T14:23:22Z</time>
      </trkpt>
      <trkpt lat="43.37598" lon="6.1112">
        <ele>303.79998779297</ele>
        <time>2016-06-08T14:23:30Z</time>
      </trkpt>
      <trkpt lat="43.37602" lon="6.11113">
        <ele>303.20001220703</ele>
        <time>2016-06-08T14:23:35Z</time>
      </trkpt>
      <trkpt lat="43.37603" lon="6.11112">
        <ele>302.79998779297</ele>
        <time>2016-06-08T14:23:36Z</time>
      </trkpt>
      <trkpt lat="43.37608" lon="6.11109">
        <ele>301.79998779297</ele>
        <time>2016-06-08T14:23:40Z</time>
      </trkpt>
      <trkpt lat="43.37609" lon="6.11108">
        <ele>301.60000610352</ele>
        <time>2016-06-08T14:23:41Z</time>
      </trkpt>
      <trkpt lat="43.3761" lon="6.11106">
        <ele>301.39999389648</ele>
        <time>2016-06-08T14:23:44Z</time>
      </trkpt>
      <trkpt lat="43.3761" lon="6.11105">
        <ele>301</ele>
        <time>2016-06-08T14:23:46Z</time>
      </trkpt>
      <trkpt lat="43.37613" lon="6.11101">
        <ele>300.79998779297</ele>
        <time>2016-06-08T14:23:55Z</time>
      </trkpt>
      <trkpt lat="43.37616" lon="6.11099">
        <ele>300.39999389648</ele>
        <time>2016-06-08T14:24:01Z</time>
      </trkpt>
      <trkpt lat="43.37616" lon="6.11097">
        <ele>300</ele>
        <time>2016-06-08T14:24:04Z</time>
      </trkpt>
      <trkpt lat="43.3762" lon="6.11092">
        <ele>299.79998779297</ele>
        <time>2016-06-08T14:24:12Z</time>
      </trkpt>
      <trkpt lat="43.37623" lon="6.11083">
        <ele>299</ele>
        <time>2016-06-08T14:24:16Z</time>
      </trkpt>
      <trkpt lat="43.37626" lon="6.11076">
        <ele>298.39999389648</ele>
        <time>2016-06-08T14:24:18Z</time>
      </trkpt>
      <trkpt lat="43.3763" lon="6.11071">
        <ele>297.20001220703</ele>
        <time>2016-06-08T14:24:21Z</time>
      </trkpt>
      <trkpt lat="43.3763" lon="6.1107">
        <ele>297</ele>
        <time>2016-06-08T14:24:22Z</time>
      </trkpt>
      <trkpt lat="43.3763" lon="6.11068">
        <ele>296.79998779297</ele>
        <time>2016-06-08T14:24:30Z</time>
      </trkpt>
      <trkpt lat="43.37629" lon="6.11067">
        <ele>297</ele>
        <time>2016-06-08T14:24:41Z</time>
      </trkpt>
      <trkpt lat="43.37629" lon="6.11068">
        <ele>297.20001220703</ele>
        <time>2016-06-08T14:24:51Z</time>
      </trkpt>
      <trkpt lat="43.37629" lon="6.11067">
        <ele>297.39999389648</ele>
        <time>2016-06-08T14:25:00Z</time>
      </trkpt>
      <trkpt lat="43.37629" lon="6.11067">
        <ele>297.39999389648</ele>
        <time>2016-06-08T14:25:02Z</time>
      </trkpt>
      <trkpt lat="43.37632" lon="6.11063">
        <ele>297.20001220703</ele>
        <time>2016-06-08T14:25:09Z</time>
      </trkpt>
      <trkpt lat="43.37638" lon="6.11052">
        <ele>296.79998779297</ele>
        <time>2016-06-08T14:25:13Z</time>
      </trkpt>
      <trkpt lat="43.37646" lon="6.11035">
        <ele>295.79998779297</ele>
        <time>2016-06-08T14:25:16Z</time>
      </trkpt>
      <trkpt lat="43.3765" lon="6.11027">
        <ele>294.60000610352</ele>
        <time>2016-06-08T14:25:17Z</time>
      </trkpt>
      <trkpt lat="43.37665" lon="6.10999">
        <ele>293.39999389648</ele>
        <time>2016-06-08T14:25:21Z</time>
      </trkpt>
      <trkpt lat="43.37669" lon="6.10993">
        <ele>292.79998779297</ele>
        <time>2016-06-08T14:25:22Z</time>
      </trkpt>
      <trkpt lat="43.37677" lon="6.10981">
        <ele>291.79998779297</ele>
        <time>2016-06-08T14:25:24Z</time>
      </trkpt>
      <trkpt lat="43.37682" lon="6.10974">
        <ele>291.39999389648</ele>
        <time>2016-06-08T14:25:25Z</time>
      </trkpt>
      <trkpt lat="43.37687" lon="6.10967">
        <ele>291</ele>
        <time>2016-06-08T14:25:26Z</time>
      </trkpt>
      <trkpt lat="43.37697" lon="6.10952">
        <ele>290</ele>
        <time>2016-06-08T14:25:28Z</time>
      </trkpt>
      <trkpt lat="43.37708" lon="6.10935">
        <ele>288.79998779297</ele>
        <time>2016-06-08T14:25:30Z</time>
      </trkpt>
      <trkpt lat="43.37717" lon="6.1092">
        <ele>287.60000610352</ele>
        <time>2016-06-08T14:25:32Z</time>
      </trkpt>
      <trkpt lat="43.37728" lon="6.10907">
        <ele>287</ele>
        <time>2016-06-08T14:25:34Z</time>
      </trkpt>
      <trkpt lat="43.37733" lon="6.10902">
        <ele>286.39999389648</ele>
        <time>2016-06-08T14:25:35Z</time>
      </trkpt>
      <trkpt lat="43.37749" lon="6.10884">
        <ele>284.79998779297</ele>
        <time>2016-06-08T14:25:38Z</time>
      </trkpt>
      <trkpt lat="43.37758" lon="6.10868">
        <ele>283.60000610352</ele>
        <time>2016-06-08T14:25:40Z</time>
      </trkpt>
      <trkpt lat="43.37761" lon="6.10861">
        <ele>282.20001220703</ele>
        <time>2016-06-08T14:25:41Z</time>
      </trkpt>
      <trkpt lat="43.37764" lon="6.10853">
        <ele>281.39999389648</ele>
        <time>2016-06-08T14:25:42Z</time>
      </trkpt>
      <trkpt lat="43.37764" lon="6.10844">
        <ele>280.79998779297</ele>
        <time>2016-06-08T14:25:43Z</time>
      </trkpt>
      <trkpt lat="43.37765" lon="6.10824">
        <ele>279.60000610352</ele>
        <time>2016-06-08T14:25:45Z</time>
      </trkpt>
      <trkpt lat="43.37765" lon="6.10815">
        <ele>279.39999389648</ele>
        <time>2016-06-08T14:25:46Z</time>
      </trkpt>
      <trkpt lat="43.37767" lon="6.10789">
        <ele>279</ele>
        <time>2016-06-08T14:25:49Z</time>
      </trkpt>
      <trkpt lat="43.37772" lon="6.10772">
        <ele>278.79998779297</ele>
        <time>2016-06-08T14:25:51Z</time>
      </trkpt>
      <trkpt lat="43.37782" lon="6.10758">
        <ele>278.79998779297</ele>
        <time>2016-06-08T14:25:54Z</time>
      </trkpt>
      <trkpt lat="43.37793" lon="6.10756">
        <ele>278.79998779297</ele>
        <time>2016-06-08T14:25:57Z</time>
      </trkpt>
      <trkpt lat="43.37803" lon="6.10762">
        <ele>278.60000610352</ele>
        <time>2016-06-08T14:26:00Z</time>
      </trkpt>
      <trkpt lat="43.37812" lon="6.10768">
        <ele>278.39999389648</ele>
        <time>2016-06-08T14:26:03Z</time>
      </trkpt>
      <trkpt lat="43.37828" lon="6.10771">
        <ele>277.60000610352</ele>
        <time>2016-06-08T14:26:07Z</time>
      </trkpt>
      <trkpt lat="43.37833" lon="6.10771">
        <ele>277.60000610352</ele>
        <time>2016-06-08T14:26:08Z</time>
      </trkpt>
      <trkpt lat="43.37851" lon="6.10776">
        <ele>277.60000610352</ele>
        <time>2016-06-08T14:26:13Z</time>
      </trkpt>
      <trkpt lat="43.37868" lon="6.10778">
        <ele>277.79998779297</ele>
        <time>2016-06-08T14:26:18Z</time>
      </trkpt>
      <trkpt lat="43.37882" lon="6.10776">
        <ele>277.79998779297</ele>
        <time>2016-06-08T14:26:22Z</time>
      </trkpt>
      <trkpt lat="43.37899" lon="6.10776">
        <ele>278.20001220703</ele>
        <time>2016-06-08T14:26:27Z</time>
      </trkpt>
      <trkpt lat="43.37909" lon="6.10777">
        <ele>278.39999389648</ele>
        <time>2016-06-08T14:26:30Z</time>
      </trkpt>
      <trkpt lat="43.37914" lon="6.10784">
        <ele>278.60000610352</ele>
        <time>2016-06-08T14:26:32Z</time>
      </trkpt>
      <trkpt lat="43.37916" lon="6.10793">
        <ele>279.79998779297</ele>
        <time>2016-06-08T14:26:34Z</time>
      </trkpt>
      <trkpt lat="43.37919" lon="6.10801">
        <ele>279.79998779297</ele>
        <time>2016-06-08T14:26:36Z</time>
      </trkpt>
      <trkpt lat="43.37924" lon="6.10807">
        <ele>279.79998779297</ele>
        <time>2016-06-08T14:26:38Z</time>
      </trkpt>
      <trkpt lat="43.37932" lon="6.10819">
        <ele>280.20001220703</ele>
        <time>2016-06-08T14:26:42Z</time>
      </trkpt>
      <trkpt lat="43.37936" lon="6.10824">
        <ele>280.39999389648</ele>
        <time>2016-06-08T14:26:44Z</time>
      </trkpt>
      <trkpt lat="43.37938" lon="6.10829">
        <ele>280.79998779297</ele>
        <time>2016-06-08T14:26:46Z</time>
      </trkpt>
      <trkpt lat="43.37945" lon="6.10841">
        <ele>281.20001220703</ele>
        <time>2016-06-08T14:26:50Z</time>
      </trkpt>
      <trkpt lat="43.37957" lon="6.10856">
        <ele>281.79998779297</ele>
        <time>2016-06-08T14:26:56Z</time>
      </trkpt>
      <trkpt lat="43.3796" lon="6.10858">
        <ele>281.79998779297</ele>
        <time>2016-06-08T14:26:57Z</time>
      </trkpt>
      <trkpt lat="43.37973" lon="6.10869">
        <ele>283</ele>
        <time>2016-06-08T14:27:03Z</time>
      </trkpt>
      <trkpt lat="43.37976" lon="6.10871">
        <ele>283.20001220703</ele>
        <time>2016-06-08T14:27:04Z</time>
      </trkpt>
      <trkpt lat="43.37984" lon="6.10875">
        <ele>283.79998779297</ele>
        <time>2016-06-08T14:27:08Z</time>
      </trkpt>
      <trkpt lat="43.37989" lon="6.10875">
        <ele>284.39999389648</ele>
        <time>2016-06-08T14:27:10Z</time>
      </trkpt>
      <trkpt lat="43.37996" lon="6.10875">
        <ele>285.60000610352</ele>
        <time>2016-06-08T14:27:14Z</time>
      </trkpt>
      <trkpt lat="43.38003" lon="6.10876">
        <ele>286.60000610352</ele>
        <time>2016-06-08T14:27:18Z</time>
      </trkpt>
      <trkpt lat="43.38007" lon="6.10877">
        <ele>286.79998779297</ele>
        <time>2016-06-08T14:27:20Z</time>
      </trkpt>
      <trkpt lat="43.38019" lon="6.10882">
        <ele>287.20001220703</ele>
        <time>2016-06-08T14:27:26Z</time>
      </trkpt>
      <trkpt lat="43.38033" lon="6.1089">
        <ele>287.79998779297</ele>
        <time>2016-06-08T14:27:33Z</time>
      </trkpt>
      <trkpt lat="43.38037" lon="6.10892">
        <ele>288</ele>
        <time>2016-06-08T14:27:35Z</time>
      </trkpt>
      <trkpt lat="43.38049" lon="6.10898">
        <ele>288</ele>
        <time>2016-06-08T14:27:40Z</time>
      </trkpt>
      <trkpt lat="43.38052" lon="6.109">
        <ele>288</ele>
        <time>2016-06-08T14:27:41Z</time>
      </trkpt>
      <trkpt lat="43.38069" lon="6.10908">
        <ele>288.20001220703</ele>
        <time>2016-06-08T14:27:48Z</time>
      </trkpt>
      <trkpt lat="43.38083" lon="6.10912">
        <ele>288.79998779297</ele>
        <time>2016-06-08T14:27:54Z</time>
      </trkpt>
      <trkpt lat="43.38087" lon="6.10909">
        <ele>288.60000610352</ele>
        <time>2016-06-08T14:27:56Z</time>
      </trkpt>
      <trkpt lat="43.38089" lon="6.10903">
        <ele>288.39999389648</ele>
        <time>2016-06-08T14:27:58Z</time>
      </trkpt>
      <trkpt lat="43.38092" lon="6.10892">
        <ele>288.39999389648</ele>
        <time>2016-06-08T14:28:01Z</time>
      </trkpt>
      <trkpt lat="43.38096" lon="6.10886">
        <ele>288.39999389648</ele>
        <time>2016-06-08T14:28:03Z</time>
      </trkpt>
      <trkpt lat="43.3811" lon="6.10885">
        <ele>288.20001220703</ele>
        <time>2016-06-08T14:28:07Z</time>
      </trkpt>
      <trkpt lat="43.38123" lon="6.10887">
        <ele>287.79998779297</ele>
        <time>2016-06-08T14:28:10Z</time>
      </trkpt>
      <trkpt lat="43.38131" lon="6.10887">
        <ele>287.39999389648</ele>
        <time>2016-06-08T14:28:12Z</time>
      </trkpt>
      <trkpt lat="43.38138" lon="6.10886">
        <ele>287.39999389648</ele>
        <time>2016-06-08T14:28:14Z</time>
      </trkpt>
      <trkpt lat="43.38173" lon="6.10884">
        <ele>287.20001220703</ele>
        <time>2016-06-08T14:28:24Z</time>
      </trkpt>
      <trkpt lat="43.38179" lon="6.10885">
        <ele>287.20001220703</ele>
        <time>2016-06-08T14:28:26Z</time>
      </trkpt>
      <trkpt lat="43.38185" lon="6.10885">
        <ele>286.79998779297</ele>
        <time>2016-06-08T14:28:28Z</time>
      </trkpt>
      <trkpt lat="43.38187" lon="6.10886">
        <ele>286.60000610352</ele>
        <time>2016-06-08T14:28:29Z</time>
      </trkpt>
      <trkpt lat="43.3819" lon="6.10887">
        <ele>286.39999389648</ele>
        <time>2016-06-08T14:28:31Z</time>
      </trkpt>
      <trkpt lat="43.38194" lon="6.10888">
        <ele>286</ele>
        <time>2016-06-08T14:28:34Z</time>
      </trkpt>
      <trkpt lat="43.382" lon="6.1089">
        <ele>286</ele>
        <time>2016-06-08T14:28:40Z</time>
      </trkpt>
      <trkpt lat="43.38201" lon="6.10889">
        <ele>285.79998779297</ele>
        <time>2016-06-08T14:28:43Z</time>
      </trkpt>
      <trkpt lat="43.38204" lon="6.1089">
        <ele>285.79998779297</ele>
        <time>2016-06-08T14:28:48Z</time>
      </trkpt>
      <trkpt lat="43.38218" lon="6.10895">
        <ele>285.79998779297</ele>
        <time>2016-06-08T14:28:54Z</time>
      </trkpt>
      <trkpt lat="43.38241" lon="6.10902">
        <ele>285.20001220703</ele>
        <time>2016-06-08T14:29:01Z</time>
      </trkpt>
      <trkpt lat="43.38261" lon="6.10907">
        <ele>285.20001220703</ele>
        <time>2016-06-08T14:29:08Z</time>
      </trkpt>
      <trkpt lat="43.38288" lon="6.10914">
        <ele>285.60000610352</ele>
        <time>2016-06-08T14:29:17Z</time>
      </trkpt>
      <trkpt lat="43.38291" lon="6.10915">
        <ele>285.60000610352</ele>
        <time>2016-06-08T14:29:18Z</time>
      </trkpt>
      <trkpt lat="43.38314" lon="6.10923">
        <ele>286</ele>
        <time>2016-06-08T14:29:25Z</time>
      </trkpt>
      <trkpt lat="43.3832" lon="6.10925">
        <ele>286</ele>
        <time>2016-06-08T14:29:27Z</time>
      </trkpt>
      <trkpt lat="43.38339" lon="6.10932">
        <ele>286.20001220703</ele>
        <time>2016-06-08T14:29:33Z</time>
      </trkpt>
      <trkpt lat="43.38362" lon="6.1094">
        <ele>286.39999389648</ele>
        <time>2016-06-08T14:29:40Z</time>
      </trkpt>
      <trkpt lat="43.38376" lon="6.10944">
        <ele>286.60000610352</ele>
        <time>2016-06-08T14:29:44Z</time>
      </trkpt>
      <trkpt lat="43.38404" lon="6.10951">
        <ele>287.60000610352</ele>
        <time>2016-06-08T14:29:52Z</time>
      </trkpt>
      <trkpt lat="43.38429" lon="6.10956">
        <ele>288</ele>
        <time>2016-06-08T14:29:59Z</time>
      </trkpt>
      <trkpt lat="43.38452" lon="6.1096">
        <ele>289</ele>
        <time>2016-06-08T14:30:06Z</time>
      </trkpt>
      <trkpt lat="43.38486" lon="6.10963">
        <ele>289.79998779297</ele>
        <time>2016-06-08T14:30:17Z</time>
      </trkpt>
      <trkpt lat="43.38501" lon="6.10968">
        <ele>290.39999389648</ele>
        <time>2016-06-08T14:30:23Z</time>
      </trkpt>
      <trkpt lat="43.38518" lon="6.10971">
        <ele>292</ele>
        <time>2016-06-08T14:30:30Z</time>
      </trkpt>
      <trkpt lat="43.3852" lon="6.10972">
        <ele>292.20001220703</ele>
        <time>2016-06-08T14:30:31Z</time>
      </trkpt>
      <trkpt lat="43.38527" lon="6.10974">
        <ele>293.39999389648</ele>
        <time>2016-06-08T14:30:35Z</time>
      </trkpt>
      <trkpt lat="43.38531" lon="6.10976">
        <ele>294</ele>
        <time>2016-06-08T14:30:37Z</time>
      </trkpt>
      <trkpt lat="43.38546" lon="6.10983">
        <ele>294.79998779297</ele>
        <time>2016-06-08T14:30:44Z</time>
      </trkpt>
      <trkpt lat="43.38554" lon="6.10987">
        <ele>295.39999389648</ele>
        <time>2016-06-08T14:30:48Z</time>
      </trkpt>
      <trkpt lat="43.38564" lon="6.1099">
        <ele>295.79998779297</ele>
        <time>2016-06-08T14:30:53Z</time>
      </trkpt>
      <trkpt lat="43.38576" lon="6.10989">
        <ele>296.60000610352</ele>
        <time>2016-06-08T14:30:59Z</time>
      </trkpt>
      <trkpt lat="43.38582" lon="6.10989">
        <ele>297</ele>
        <time>2016-06-08T14:31:02Z</time>
      </trkpt>
      <trkpt lat="43.38586" lon="6.10989">
        <ele>297.39999389648</ele>
        <time>2016-06-08T14:31:04Z</time>
      </trkpt>
      <trkpt lat="43.38597" lon="6.10988">
        <ele>297.79998779297</ele>
        <time>2016-06-08T14:31:09Z</time>
      </trkpt>
      <trkpt lat="43.38605" lon="6.10988">
        <ele>298.20001220703</ele>
        <time>2016-06-08T14:31:13Z</time>
      </trkpt>
      <trkpt lat="43.38616" lon="6.10995">
        <ele>298.60000610352</ele>
        <time>2016-06-08T14:31:19Z</time>
      </trkpt>
      <trkpt lat="43.38623" lon="6.11">
        <ele>299</ele>
        <time>2016-06-08T14:31:23Z</time>
      </trkpt>
      <trkpt lat="43.3863" lon="6.11008">
        <ele>298.60000610352</ele>
        <time>2016-06-08T14:31:27Z</time>
      </trkpt>
      <trkpt lat="43.38631" lon="6.11009">
        <ele>298.60000610352</ele>
        <time>2016-06-08T14:31:28Z</time>
      </trkpt>
      <trkpt lat="43.38634" lon="6.1101">
        <ele>298</ele>
        <time>2016-06-08T14:31:31Z</time>
      </trkpt>
      <trkpt lat="43.38638" lon="6.11008">
        <ele>297.60000610352</ele>
        <time>2016-06-08T14:31:34Z</time>
      </trkpt>
      <trkpt lat="43.38646" lon="6.11004">
        <ele>297.39999389648</ele>
        <time>2016-06-08T14:31:37Z</time>
      </trkpt>
      <trkpt lat="43.38649" lon="6.11005">
        <ele>297.60000610352</ele>
        <time>2016-06-08T14:31:38Z</time>
      </trkpt>
      <trkpt lat="43.38657" lon="6.11004">
        <ele>297</ele>
        <time>2016-06-08T14:31:41Z</time>
      </trkpt>
      <trkpt lat="43.3866" lon="6.10996">
        <ele>296.39999389648</ele>
        <time>2016-06-08T14:31:43Z</time>
      </trkpt>
      <trkpt lat="43.3866" lon="6.10991">
        <ele>296.20001220703</ele>
        <time>2016-06-08T14:31:44Z</time>
      </trkpt>
      <trkpt lat="43.38664" lon="6.10958">
        <ele>295.60000610352</ele>
        <time>2016-06-08T14:31:51Z</time>
      </trkpt>
      <trkpt lat="43.38668" lon="6.10938">
        <ele>295.39999389648</ele>
        <time>2016-06-08T14:31:55Z</time>
      </trkpt>
      <trkpt lat="43.38672" lon="6.10922">
        <ele>295</ele>
        <time>2016-06-08T14:31:58Z</time>
      </trkpt>
      <trkpt lat="43.38679" lon="6.10899">
        <ele>295</ele>
        <time>2016-06-08T14:32:03Z</time>
      </trkpt>
      <trkpt lat="43.38686" lon="6.10878">
        <ele>295.20001220703</ele>
        <time>2016-06-08T14:32:07Z</time>
      </trkpt>
      <trkpt lat="43.3869" lon="6.10856">
        <ele>294.79998779297</ele>
        <time>2016-06-08T14:32:12Z</time>
      </trkpt>
      <trkpt lat="43.38695" lon="6.10832">
        <ele>295.20001220703</ele>
        <time>2016-06-08T14:32:18Z</time>
      </trkpt>
      <trkpt lat="43.38708" lon="6.10814">
        <ele>295.60000610352</ele>
        <time>2016-06-08T14:32:23Z</time>
      </trkpt>
      <trkpt lat="43.38716" lon="6.10809">
        <ele>295.60000610352</ele>
        <time>2016-06-08T14:32:25Z</time>
      </trkpt>
      <trkpt lat="43.38725" lon="6.10803">
        <ele>295.39999389648</ele>
        <time>2016-06-08T14:32:27Z</time>
      </trkpt>
      <trkpt lat="43.38732" lon="6.1079">
        <ele>294.60000610352</ele>
        <time>2016-06-08T14:32:30Z</time>
      </trkpt>
      <trkpt lat="43.38733" lon="6.10786">
        <ele>294.20001220703</ele>
        <time>2016-06-08T14:32:31Z</time>
      </trkpt>
      <trkpt lat="43.38737" lon="6.10774">
        <ele>294.39999389648</ele>
        <time>2016-06-08T14:32:34Z</time>
      </trkpt>
      <trkpt lat="43.38745" lon="6.1077">
        <ele>295</ele>
        <time>2016-06-08T14:32:37Z</time>
      </trkpt>
      <trkpt lat="43.3876" lon="6.10766">
        <ele>293.79998779297</ele>
        <time>2016-06-08T14:32:42Z</time>
      </trkpt>
      <trkpt lat="43.38765" lon="6.10761">
        <ele>293</ele>
        <time>2016-06-08T14:32:44Z</time>
      </trkpt>
      <trkpt lat="43.38768" lon="6.1076">
        <ele>292.60000610352</ele>
        <time>2016-06-08T14:32:46Z</time>
      </trkpt>
      <trkpt lat="43.38769" lon="6.10759">
        <ele>292.39999389648</ele>
        <time>2016-06-08T14:32:47Z</time>
      </trkpt>
      <trkpt lat="43.38774" lon="6.10758">
        <ele>292</ele>
        <time>2016-06-08T14:32:52Z</time>
      </trkpt>
      <trkpt lat="43.38779" lon="6.10758">
        <ele>291.79998779297</ele>
        <time>2016-06-08T14:32:54Z</time>
      </trkpt>
      <trkpt lat="43.38793" lon="6.10758">
        <ele>291.60000610352</ele>
        <time>2016-06-08T14:32:58Z</time>
      </trkpt>
      <trkpt lat="43.38797" lon="6.10759">
        <ele>291.39999389648</ele>
        <time>2016-06-08T14:32:59Z</time>
      </trkpt>
      <trkpt lat="43.38807" lon="6.10759">
        <ele>291</ele>
        <time>2016-06-08T14:33:01Z</time>
      </trkpt>
      <trkpt lat="43.3883" lon="6.10757">
        <ele>290.39999389648</ele>
        <time>2016-06-08T14:33:06Z</time>
      </trkpt>
      <trkpt lat="43.38844" lon="6.10757">
        <ele>290</ele>
        <time>2016-06-08T14:33:09Z</time>
      </trkpt>
      <trkpt lat="43.38857" lon="6.10756">
        <ele>289.39999389648</ele>
        <time>2016-06-08T14:33:12Z</time>
      </trkpt>
      <trkpt lat="43.38866" lon="6.10756">
        <ele>288.79998779297</ele>
        <time>2016-06-08T14:33:14Z</time>
      </trkpt>
      <trkpt lat="43.38871" lon="6.10756">
        <ele>288.79998779297</ele>
        <time>2016-06-08T14:33:15Z</time>
      </trkpt>
      <trkpt lat="43.3888" lon="6.10758">
        <ele>288.20001220703</ele>
        <time>2016-06-08T14:33:17Z</time>
      </trkpt>
      <trkpt lat="43.38902" lon="6.10765">
        <ele>288.39999389648</ele>
        <time>2016-06-08T14:33:22Z</time>
      </trkpt>
      <trkpt lat="43.38911" lon="6.10771">
        <ele>288.20001220703</ele>
        <time>2016-06-08T14:33:24Z</time>
      </trkpt>
      <trkpt lat="43.38923" lon="6.10804">
        <ele>287.79998779297</ele>
        <time>2016-06-08T14:33:30Z</time>
      </trkpt>
      <trkpt lat="43.38925" lon="6.10809">
        <ele>287.79998779297</ele>
        <time>2016-06-08T14:33:31Z</time>
      </trkpt>
      <trkpt lat="43.38934" lon="6.10824">
        <ele>287</ele>
        <time>2016-06-08T14:33:34Z</time>
      </trkpt>
      <trkpt lat="43.38938" lon="6.10827">
        <ele>286.79998779297</ele>
        <time>2016-06-08T14:33:35Z</time>
      </trkpt>
      <trkpt lat="43.38952" lon="6.10834">
        <ele>286.60000610352</ele>
        <time>2016-06-08T14:33:38Z</time>
      </trkpt>
      <trkpt lat="43.38983" lon="6.10847">
        <ele>286.79998779297</ele>
        <time>2016-06-08T14:33:45Z</time>
      </trkpt>
      <trkpt lat="43.38999" lon="6.10849">
        <ele>286.79998779297</ele>
        <time>2016-06-08T14:33:49Z</time>
      </trkpt>
      <trkpt lat="43.39003" lon="6.10847">
        <ele>286.79998779297</ele>
        <time>2016-06-08T14:33:50Z</time>
      </trkpt>
      <trkpt lat="43.39031" lon="6.10838">
        <ele>286.20001220703</ele>
        <time>2016-06-08T14:33:56Z</time>
      </trkpt>
      <trkpt lat="43.39046" lon="6.10831">
        <ele>286</ele>
        <time>2016-06-08T14:33:59Z</time>
      </trkpt>
      <trkpt lat="43.3905" lon="6.1083">
        <ele>285.79998779297</ele>
        <time>2016-06-08T14:34:00Z</time>
      </trkpt>
      <trkpt lat="43.39064" lon="6.10825">
        <ele>285.79998779297</ele>
        <time>2016-06-08T14:34:03Z</time>
      </trkpt>
      <trkpt lat="43.39071" lon="6.10821">
        <ele>285.79998779297</ele>
        <time>2016-06-08T14:34:05Z</time>
      </trkpt>
      <trkpt lat="43.3908" lon="6.10811">
        <ele>286</ele>
        <time>2016-06-08T14:34:08Z</time>
      </trkpt>
      <trkpt lat="43.39096" lon="6.10794">
        <ele>286.20001220703</ele>
        <time>2016-06-08T14:34:13Z</time>
      </trkpt>
      <trkpt lat="43.39104" lon="6.10788">
        <ele>285.79998779297</ele>
        <time>2016-06-08T14:34:15Z</time>
      </trkpt>
      <trkpt lat="43.39113" lon="6.10782">
        <ele>285.60000610352</ele>
        <time>2016-06-08T14:34:17Z</time>
      </trkpt>
      <trkpt lat="43.39139" lon="6.10766">
        <ele>284.79998779297</ele>
        <time>2016-06-08T14:34:22Z</time>
      </trkpt>
      <trkpt lat="43.39145" lon="6.10761">
        <ele>284.60000610352</ele>
        <time>2016-06-08T14:34:23Z</time>
      </trkpt>
      <trkpt lat="43.39149" lon="6.10757">
        <ele>284.20001220703</ele>
        <time>2016-06-08T14:34:24Z</time>
      </trkpt>
      <trkpt lat="43.39162" lon="6.10738">
        <ele>283.39999389648</ele>
        <time>2016-06-08T14:34:27Z</time>
      </trkpt>
      <trkpt lat="43.39168" lon="6.10721">
        <ele>282.60000610352</ele>
        <time>2016-06-08T14:34:29Z</time>
      </trkpt>
      <trkpt lat="43.3917" lon="6.10713">
        <ele>282.39999389648</ele>
        <time>2016-06-08T14:34:30Z</time>
      </trkpt>
      <trkpt lat="43.39172" lon="6.10703">
        <ele>282.20001220703</ele>
        <time>2016-06-08T14:34:31Z</time>
      </trkpt>
      <trkpt lat="43.39183" lon="6.10672">
        <ele>281.79998779297</ele>
        <time>2016-06-08T14:34:35Z</time>
      </trkpt>
      <trkpt lat="43.3919" lon="6.10659">
        <ele>281.60000610352</ele>
        <time>2016-06-08T14:34:37Z</time>
      </trkpt>
      <trkpt lat="43.39197" lon="6.10648">
        <ele>281.39999389648</ele>
        <time>2016-06-08T14:34:39Z</time>
      </trkpt>
      <trkpt lat="43.39201" lon="6.10646">
        <ele>281.20001220703</ele>
        <time>2016-06-08T14:34:40Z</time>
      </trkpt>
      <trkpt lat="43.39214" lon="6.10635">
        <ele>281.60000610352</ele>
        <time>2016-06-08T14:34:44Z</time>
      </trkpt>
      <trkpt lat="43.39218" lon="6.10631">
        <ele>281.79998779297</ele>
        <time>2016-06-08T14:34:45Z</time>
      </trkpt>
      <trkpt lat="43.39228" lon="6.10619">
        <ele>281.39999389648</ele>
        <time>2016-06-08T14:34:48Z</time>
      </trkpt>
      <trkpt lat="43.39234" lon="6.10611">
        <ele>281.20001220703</ele>
        <time>2016-06-08T14:34:50Z</time>
      </trkpt>
      <trkpt lat="43.39246" lon="6.106">
        <ele>281.60000610352</ele>
        <time>2016-06-08T14:34:54Z</time>
      </trkpt>
      <trkpt lat="43.39252" lon="6.10591">
        <ele>281.79998779297</ele>
        <time>2016-06-08T14:34:56Z</time>
      </trkpt>
      <trkpt lat="43.39264" lon="6.10571">
        <ele>282.20001220703</ele>
        <time>2016-06-08T14:35:00Z</time>
      </trkpt>
      <trkpt lat="43.39269" lon="6.10554">
        <ele>282.20001220703</ele>
        <time>2016-06-08T14:35:03Z</time>
      </trkpt>
      <trkpt lat="43.39272" lon="6.10548">
        <ele>282.39999389648</ele>
        <time>2016-06-08T14:35:04Z</time>
      </trkpt>
      <trkpt lat="43.39282" lon="6.10527">
        <ele>282.20001220703</ele>
        <time>2016-06-08T14:35:08Z</time>
      </trkpt>
      <trkpt lat="43.39289" lon="6.1051">
        <ele>281.20001220703</ele>
        <time>2016-06-08T14:35:11Z</time>
      </trkpt>
      <trkpt lat="43.39297" lon="6.1049">
        <ele>280.79998779297</ele>
        <time>2016-06-08T14:35:14Z</time>
      </trkpt>
      <trkpt lat="43.39311" lon="6.10464">
        <ele>280.39999389648</ele>
        <time>2016-06-08T14:35:18Z</time>
      </trkpt>
      <trkpt lat="43.39315" lon="6.10457">
        <ele>279.79998779297</ele>
        <time>2016-06-08T14:35:19Z</time>
      </trkpt>
      <trkpt lat="43.39335" lon="6.10425">
        <ele>278.79998779297</ele>
        <time>2016-06-08T14:35:24Z</time>
      </trkpt>
      <trkpt lat="43.3934" lon="6.10421">
        <ele>278.60000610352</ele>
        <time>2016-06-08T14:35:25Z</time>
      </trkpt>
      <trkpt lat="43.39352" lon="6.10418">
        <ele>278.20001220703</ele>
        <time>2016-06-08T14:35:28Z</time>
      </trkpt>
      <trkpt lat="43.39361" lon="6.10417">
        <ele>277.60000610352</ele>
        <time>2016-06-08T14:35:30Z</time>
      </trkpt>
      <trkpt lat="43.39368" lon="6.10412">
        <ele>277</ele>
        <time>2016-06-08T14:35:32Z</time>
      </trkpt>
      <trkpt lat="43.3937" lon="6.10407">
        <ele>276.20001220703</ele>
        <time>2016-06-08T14:35:33Z</time>
      </trkpt>
      <trkpt lat="43.39371" lon="6.10396">
        <ele>275.39999389648</ele>
        <time>2016-06-08T14:35:35Z</time>
      </trkpt>
      <trkpt lat="43.39373" lon="6.10391">
        <ele>275.20001220703</ele>
        <time>2016-06-08T14:35:36Z</time>
      </trkpt>
      <trkpt lat="43.39384" lon="6.1037">
        <ele>275</ele>
        <time>2016-06-08T14:35:40Z</time>
      </trkpt>
      <trkpt lat="43.39392" lon="6.10356">
        <ele>275</ele>
        <time>2016-06-08T14:35:43Z</time>
      </trkpt>
      <trkpt lat="43.39397" lon="6.10345">
        <ele>275.20001220703</ele>
        <time>2016-06-08T14:35:45Z</time>
      </trkpt>
      <trkpt lat="43.39409" lon="6.10321">
        <ele>274.39999389648</ele>
        <time>2016-06-08T14:35:50Z</time>
      </trkpt>
      <trkpt lat="43.39425" lon="6.10303">
        <ele>275</ele>
        <time>2016-06-08T14:35:55Z</time>
      </trkpt>
      <trkpt lat="43.39433" lon="6.10297">
        <ele>274.79998779297</ele>
        <time>2016-06-08T14:35:57Z</time>
      </trkpt>
      <trkpt lat="43.39437" lon="6.10294">
        <ele>274.60000610352</ele>
        <time>2016-06-08T14:35:58Z</time>
      </trkpt>
      <trkpt lat="43.39441" lon="6.10291">
        <ele>274.60000610352</ele>
        <time>2016-06-08T14:35:59Z</time>
      </trkpt>
      <trkpt lat="43.39451" lon="6.10283">
        <ele>274</ele>
        <time>2016-06-08T14:36:02Z</time>
      </trkpt>
      <trkpt lat="43.39472" lon="6.10264">
        <ele>273.60000610352</ele>
        <time>2016-06-08T14:36:08Z</time>
      </trkpt>
      <trkpt lat="43.39484" lon="6.1025">
        <ele>273</ele>
        <time>2016-06-08T14:36:11Z</time>
      </trkpt>
      <trkpt lat="43.39491" lon="6.10237">
        <ele>272.20001220703</ele>
        <time>2016-06-08T14:36:13Z</time>
      </trkpt>
      <trkpt lat="43.39494" lon="6.1023">
        <ele>271.60000610352</ele>
        <time>2016-06-08T14:36:14Z</time>
      </trkpt>
      <trkpt lat="43.39499" lon="6.10216">
        <ele>270.39999389648</ele>
        <time>2016-06-08T14:36:16Z</time>
      </trkpt>
      <trkpt lat="43.39503" lon="6.10202">
        <ele>270</ele>
        <time>2016-06-08T14:36:18Z</time>
      </trkpt>
      <trkpt lat="43.39516" lon="6.10151">
        <ele>269.39999389648</ele>
        <time>2016-06-08T14:36:25Z</time>
      </trkpt>
      <trkpt lat="43.39528" lon="6.10113">
        <ele>268.60000610352</ele>
        <time>2016-06-08T14:36:30Z</time>
      </trkpt>
      <trkpt lat="43.3953" lon="6.10106">
        <ele>268.39999389648</ele>
        <time>2016-06-08T14:36:31Z</time>
      </trkpt>
      <trkpt lat="43.39533" lon="6.10101">
        <ele>268</ele>
        <time>2016-06-08T14:36:32Z</time>
      </trkpt>
      <trkpt lat="43.39536" lon="6.10096">
        <ele>267.79998779297</ele>
        <time>2016-06-08T14:36:33Z</time>
      </trkpt>
      <trkpt lat="43.39543" lon="6.10082">
        <ele>267.60000610352</ele>
        <time>2016-06-08T14:36:36Z</time>
      </trkpt>
      <trkpt lat="43.39545" lon="6.10077">
        <ele>267.20001220703</ele>
        <time>2016-06-08T14:36:37Z</time>
      </trkpt>
      <trkpt lat="43.3955" lon="6.10059">
        <ele>266.60000610352</ele>
        <time>2016-06-08T14:36:40Z</time>
      </trkpt>
      <trkpt lat="43.39553" lon="6.10047">
        <ele>266.39999389648</ele>
        <time>2016-06-08T14:36:42Z</time>
      </trkpt>
      <trkpt lat="43.39557" lon="6.10017">
        <ele>266.20001220703</ele>
        <time>2016-06-08T14:36:48Z</time>
      </trkpt>
      <trkpt lat="43.39553" lon="6.10009">
        <ele>265.79998779297</ele>
        <time>2016-06-08T14:36:52Z</time>
      </trkpt>
      <trkpt lat="43.39553" lon="6.10007">
        <ele>265.79998779297</ele>
        <time>2016-06-08T14:36:53Z</time>
      </trkpt>
      <trkpt lat="43.39553" lon="6.09994">
        <ele>265.60000610352</ele>
        <time>2016-06-08T14:36:58Z</time>
      </trkpt>
      <trkpt lat="43.39554" lon="6.09992">
        <ele>265.60000610352</ele>
        <time>2016-06-08T14:36:59Z</time>
      </trkpt>
      <trkpt lat="43.39555" lon="6.09979">
        <ele>265.79998779297</ele>
        <time>2016-06-08T14:37:04Z</time>
      </trkpt>
      <trkpt lat="43.39554" lon="6.09963">
        <ele>266.20001220703</ele>
        <time>2016-06-08T14:37:10Z</time>
      </trkpt>
      <trkpt lat="43.39552" lon="6.09946">
        <ele>267.39999389648</ele>
        <time>2016-06-08T14:37:16Z</time>
      </trkpt>
      <trkpt lat="43.39551" lon="6.09943">
        <ele>267.39999389648</ele>
        <time>2016-06-08T14:37:17Z</time>
      </trkpt>
      <trkpt lat="43.3955" lon="6.09937">
        <ele>268</ele>
        <time>2016-06-08T14:37:19Z</time>
      </trkpt>
      <trkpt lat="43.39547" lon="6.0993">
        <ele>268.39999389648</ele>
        <time>2016-06-08T14:37:22Z</time>
      </trkpt>
      <trkpt lat="43.39542" lon="6.09914">
        <ele>270.20001220703</ele>
        <time>2016-06-08T14:37:29Z</time>
      </trkpt>
      <trkpt lat="43.39542" lon="6.0991">
        <ele>270.20001220703</ele>
        <time>2016-06-08T14:37:31Z</time>
      </trkpt>
      <trkpt lat="43.39545" lon="6.09902">
        <ele>270.20001220703</ele>
        <time>2016-06-08T14:37:35Z</time>
      </trkpt>
      <trkpt lat="43.3955" lon="6.09893">
        <ele>270.60000610352</ele>
        <time>2016-06-08T14:37:39Z</time>
      </trkpt>
      <trkpt lat="43.39551" lon="6.09889">
        <ele>270.60000610352</ele>
        <time>2016-06-08T14:37:40Z</time>
      </trkpt>
      <trkpt lat="43.39555" lon="6.09873">
        <ele>270.60000610352</ele>
        <time>2016-06-08T14:37:45Z</time>
      </trkpt>
      <trkpt lat="43.39558" lon="6.09858">
        <ele>271</ele>
        <time>2016-06-08T14:37:49Z</time>
      </trkpt>
      <trkpt lat="43.39561" lon="6.09833">
        <ele>271</ele>
        <time>2016-06-08T14:37:56Z</time>
      </trkpt>
      <trkpt lat="43.39565" lon="6.09822">
        <ele>270.79998779297</ele>
        <time>2016-06-08T14:38:01Z</time>
      </trkpt>
      <trkpt lat="43.39566" lon="6.09817">
        <ele>270.79998779297</ele>
        <time>2016-06-08T14:38:03Z</time>
      </trkpt>
      <trkpt lat="43.39566" lon="6.0981">
        <ele>270.79998779297</ele>
        <time>2016-06-08T14:38:06Z</time>
      </trkpt>
      <trkpt lat="43.39568" lon="6.09791">
        <ele>270.60000610352</ele>
        <time>2016-06-08T14:38:12Z</time>
      </trkpt>
      <trkpt lat="43.39573" lon="6.09769">
        <ele>271</ele>
        <time>2016-06-08T14:38:18Z</time>
      </trkpt>
      <trkpt lat="43.39586" lon="6.0973">
        <ele>270.79998779297</ele>
        <time>2016-06-08T14:38:27Z</time>
      </trkpt>
      <trkpt lat="43.39594" lon="6.09701">
        <ele>270.60000610352</ele>
        <time>2016-06-08T14:38:33Z</time>
      </trkpt>
      <trkpt lat="43.396" lon="6.09669">
        <ele>270.60000610352</ele>
        <time>2016-06-08T14:38:40Z</time>
      </trkpt>
      <trkpt lat="43.39605" lon="6.09649">
        <ele>270.60000610352</ele>
        <time>2016-06-08T14:38:45Z</time>
      </trkpt>
      <trkpt lat="43.39611" lon="6.09623">
        <ele>270.79998779297</ele>
        <time>2016-06-08T14:38:51Z</time>
      </trkpt>
      <trkpt lat="43.39618" lon="6.09596">
        <ele>270.79998779297</ele>
        <time>2016-06-08T14:38:58Z</time>
      </trkpt>
      <trkpt lat="43.39621" lon="6.09582">
        <ele>270.39999389648</ele>
        <time>2016-06-08T14:39:04Z</time>
      </trkpt>
      <trkpt lat="43.39621" lon="6.09581">
        <ele>270.39999389648</ele>
        <time>2016-06-08T14:39:14Z</time>
      </trkpt>
      <trkpt lat="43.39621" lon="6.09581">
        <ele>270.79998779297</ele>
        <time>2016-06-08T14:39:35Z</time>
      </trkpt>
      <trkpt lat="43.39622" lon="6.0958">
        <ele>270.79998779297</ele>
        <time>2016-06-08T14:39:42Z</time>
      </trkpt>
      <trkpt lat="43.39624" lon="6.09576">
        <ele>270.79998779297</ele>
        <time>2016-06-08T14:39:44Z</time>
      </trkpt>
      <trkpt lat="43.39628" lon="6.09563">
        <ele>270.39999389648</ele>
        <time>2016-06-08T14:39:47Z</time>
      </trkpt>
      <trkpt lat="43.39629" lon="6.09558">
        <ele>270.20001220703</ele>
        <time>2016-06-08T14:39:48Z</time>
      </trkpt>
      <trkpt lat="43.39638" lon="6.09543">
        <ele>269.60000610352</ele>
        <time>2016-06-08T14:39:51Z</time>
      </trkpt>
      <trkpt lat="43.39646" lon="6.09534">
        <ele>269.20001220703</ele>
        <time>2016-06-08T14:39:53Z</time>
      </trkpt>
      <trkpt lat="43.39653" lon="6.09523">
        <ele>268.60000610352</ele>
        <time>2016-06-08T14:39:55Z</time>
      </trkpt>
      <trkpt lat="43.3966" lon="6.0951">
        <ele>267.20001220703</ele>
        <time>2016-06-08T14:39:57Z</time>
      </trkpt>
      <trkpt lat="43.39666" lon="6.09495">
        <ele>265.60000610352</ele>
        <time>2016-06-08T14:39:59Z</time>
      </trkpt>
      <trkpt lat="43.39671" lon="6.0948">
        <ele>264.39999389648</ele>
        <time>2016-06-08T14:40:01Z</time>
      </trkpt>
      <trkpt lat="43.39673" lon="6.09474">
        <ele>263.39999389648</ele>
        <time>2016-06-08T14:40:02Z</time>
      </trkpt>
      <trkpt lat="43.39674" lon="6.0947">
        <ele>262.79998779297</ele>
        <time>2016-06-08T14:40:03Z</time>
      </trkpt>
      <trkpt lat="43.39676" lon="6.09465">
        <ele>261.60000610352</ele>
        <time>2016-06-08T14:40:05Z</time>
      </trkpt>
      <trkpt lat="43.39687" lon="6.09465">
        <ele>260.20001220703</ele>
        <time>2016-06-08T14:40:09Z</time>
      </trkpt>
      <trkpt lat="43.39692" lon="6.09464">
        <ele>259.79998779297</ele>
        <time>2016-06-08T14:40:10Z</time>
      </trkpt>
      <trkpt lat="43.39697" lon="6.09461">
        <ele>258.60000610352</ele>
        <time>2016-06-08T14:40:11Z</time>
      </trkpt>
      <trkpt lat="43.397" lon="6.09456">
        <ele>257.79998779297</ele>
        <time>2016-06-08T14:40:12Z</time>
      </trkpt>
      <trkpt lat="43.39703" lon="6.09451">
        <ele>257</ele>
        <time>2016-06-08T14:40:13Z</time>
      </trkpt>
      <trkpt lat="43.39721" lon="6.0942">
        <ele>256</ele>
        <time>2016-06-08T14:40:19Z</time>
      </trkpt>
      <trkpt lat="43.39735" lon="6.09394">
        <ele>255.39999389648</ele>
        <time>2016-06-08T14:40:24Z</time>
      </trkpt>
      <trkpt lat="43.39742" lon="6.09379">
        <ele>255</ele>
        <time>2016-06-08T14:40:27Z</time>
      </trkpt>
      <trkpt lat="43.39751" lon="6.09364">
        <ele>254.80000305176</ele>
        <time>2016-06-08T14:40:30Z</time>
      </trkpt>
      <trkpt lat="43.39771" lon="6.09324">
        <ele>254.60000610352</ele>
        <time>2016-06-08T14:40:37Z</time>
      </trkpt>
      <trkpt lat="43.39782" lon="6.09294">
        <ele>254.60000610352</ele>
        <time>2016-06-08T14:40:42Z</time>
      </trkpt>
      <trkpt lat="43.39784" lon="6.09288">
        <ele>254.60000610352</ele>
        <time>2016-06-08T14:40:43Z</time>
      </trkpt>
      <trkpt lat="43.39791" lon="6.09258">
        <ele>254.80000305176</ele>
        <time>2016-06-08T14:40:48Z</time>
      </trkpt>
      <trkpt lat="43.39793" lon="6.09246">
        <ele>255</ele>
        <time>2016-06-08T14:40:50Z</time>
      </trkpt>
      <trkpt lat="43.39797" lon="6.09217">
        <ele>255.60000610352</ele>
        <time>2016-06-08T14:40:55Z</time>
      </trkpt>
      <trkpt lat="43.39798" lon="6.09193">
        <ele>255.80000305176</ele>
        <time>2016-06-08T14:40:59Z</time>
      </trkpt>
      <trkpt lat="43.39797" lon="6.09177">
        <ele>256</ele>
        <time>2016-06-08T14:41:02Z</time>
      </trkpt>
      <trkpt lat="43.39798" lon="6.09161">
        <ele>256.20001220703</ele>
        <time>2016-06-08T14:41:05Z</time>
      </trkpt>
      <trkpt lat="43.39798" lon="6.09156">
        <ele>256.60000610352</ele>
        <time>2016-06-08T14:41:06Z</time>
      </trkpt>
      <trkpt lat="43.39802" lon="6.0913">
        <ele>257</ele>
        <time>2016-06-08T14:41:11Z</time>
      </trkpt>
      <trkpt lat="43.39806" lon="6.09111">
        <ele>257.39999389648</ele>
        <time>2016-06-08T14:41:15Z</time>
      </trkpt>
      <trkpt lat="43.39811" lon="6.09097">
        <ele>257.79998779297</ele>
        <time>2016-06-08T14:41:18Z</time>
      </trkpt>
      <trkpt lat="43.39822" lon="6.09066">
        <ele>258.39999389648</ele>
        <time>2016-06-08T14:41:24Z</time>
      </trkpt>
      <trkpt lat="43.39831" lon="6.0905">
        <ele>258</ele>
        <time>2016-06-08T14:41:27Z</time>
      </trkpt>
      <trkpt lat="43.39839" lon="6.09041">
        <ele>257.79998779297</ele>
        <time>2016-06-08T14:41:29Z</time>
      </trkpt>
      <trkpt lat="43.39857" lon="6.09023">
        <ele>256.79998779297</ele>
        <time>2016-06-08T14:41:33Z</time>
      </trkpt>
      <trkpt lat="43.39864" lon="6.09016">
        <ele>256.20001220703</ele>
        <time>2016-06-08T14:41:35Z</time>
      </trkpt>
      <trkpt lat="43.39874" lon="6.09006">
        <ele>255.60000610352</ele>
        <time>2016-06-08T14:41:38Z</time>
      </trkpt>
      <trkpt lat="43.39882" lon="6.09001">
        <ele>255</ele>
        <time>2016-06-08T14:41:40Z</time>
      </trkpt>
      <trkpt lat="43.39887" lon="6.08999">
        <ele>255</ele>
        <time>2016-06-08T14:41:41Z</time>
      </trkpt>
      <trkpt lat="43.39896" lon="6.08996">
        <ele>254.80000305176</ele>
        <time>2016-06-08T14:41:43Z</time>
      </trkpt>
      <trkpt lat="43.39905" lon="6.08994">
        <ele>255</ele>
        <time>2016-06-08T14:41:45Z</time>
      </trkpt>
      <trkpt lat="43.39914" lon="6.08994">
        <ele>254.80000305176</ele>
        <time>2016-06-08T14:41:47Z</time>
      </trkpt>
      <trkpt lat="43.39926" lon="6.08993">
        <ele>253.39999389648</ele>
        <time>2016-06-08T14:41:49Z</time>
      </trkpt>
      <trkpt lat="43.39946" lon="6.0899">
        <ele>251.60000610352</ele>
        <time>2016-06-08T14:41:52Z</time>
      </trkpt>
      <trkpt lat="43.39959" lon="6.08987">
        <ele>250.80000305176</ele>
        <time>2016-06-08T14:41:54Z</time>
      </trkpt>
      <trkpt lat="43.39965" lon="6.08986">
        <ele>250.60000610352</ele>
        <time>2016-06-08T14:41:55Z</time>
      </trkpt>
      <trkpt lat="43.39977" lon="6.08984">
        <ele>251.19999694824</ele>
        <time>2016-06-08T14:41:57Z</time>
      </trkpt>
      <trkpt lat="43.39995" lon="6.08981">
        <ele>251</ele>
        <time>2016-06-08T14:42:00Z</time>
      </trkpt>
      <trkpt lat="43.40001" lon="6.08979">
        <ele>250.80000305176</ele>
        <time>2016-06-08T14:42:01Z</time>
      </trkpt>
      <trkpt lat="43.40011" lon="6.08973">
        <ele>250.60000610352</ele>
        <time>2016-06-08T14:42:03Z</time>
      </trkpt>
      <trkpt lat="43.40025" lon="6.08952">
        <ele>250.19999694824</ele>
        <time>2016-06-08T14:42:07Z</time>
      </trkpt>
      <trkpt lat="43.40032" lon="6.08928">
        <ele>250</ele>
        <time>2016-06-08T14:42:11Z</time>
      </trkpt>
      <trkpt lat="43.40034" lon="6.08922">
        <ele>250</ele>
        <time>2016-06-08T14:42:12Z</time>
      </trkpt>
      <trkpt lat="43.40042" lon="6.08893">
        <ele>250</ele>
        <time>2016-06-08T14:42:17Z</time>
      </trkpt>
      <trkpt lat="43.40052" lon="6.0886">
        <ele>250.39999389648</ele>
        <time>2016-06-08T14:42:23Z</time>
      </trkpt>
      <trkpt lat="43.40057" lon="6.08849">
        <ele>250.39999389648</ele>
        <time>2016-06-08T14:42:25Z</time>
      </trkpt>
      <trkpt lat="43.4006" lon="6.08838">
        <ele>250.39999389648</ele>
        <time>2016-06-08T14:42:27Z</time>
      </trkpt>
      <trkpt lat="43.40065" lon="6.08827">
        <ele>250.19999694824</ele>
        <time>2016-06-08T14:42:29Z</time>
      </trkpt>
      <trkpt lat="43.40069" lon="6.08816">
        <ele>250.39999389648</ele>
        <time>2016-06-08T14:42:31Z</time>
      </trkpt>
      <trkpt lat="43.40081" lon="6.08786">
        <ele>250.60000610352</ele>
        <time>2016-06-08T14:42:37Z</time>
      </trkpt>
      <trkpt lat="43.40096" lon="6.08735">
        <ele>250</ele>
        <time>2016-06-08T14:42:46Z</time>
      </trkpt>
      <trkpt lat="43.40102" lon="6.08694">
        <ele>249.80000305176</ele>
        <time>2016-06-08T14:42:52Z</time>
      </trkpt>
      <trkpt lat="43.40098" lon="6.08667">
        <ele>249.39999389648</ele>
        <time>2016-06-08T14:42:56Z</time>
      </trkpt>
      <trkpt lat="43.40097" lon="6.0866">
        <ele>249.19999694824</ele>
        <time>2016-06-08T14:42:57Z</time>
      </trkpt>
      <trkpt lat="43.40099" lon="6.08648">
        <ele>248.60000610352</ele>
        <time>2016-06-08T14:42:59Z</time>
      </trkpt>
      <trkpt lat="43.40101" lon="6.08642">
        <ele>248</ele>
        <time>2016-06-08T14:43:00Z</time>
      </trkpt>
      <trkpt lat="43.40113" lon="6.08629">
        <ele>247</ele>
        <time>2016-06-08T14:43:03Z</time>
      </trkpt>
      <trkpt lat="43.40117" lon="6.08625">
        <ele>246.80000305176</ele>
        <time>2016-06-08T14:43:04Z</time>
      </trkpt>
      <trkpt lat="43.40128" lon="6.08615">
        <ele>246.80000305176</ele>
        <time>2016-06-08T14:43:07Z</time>
      </trkpt>
      <trkpt lat="43.40147" lon="6.08598">
        <ele>246.19999694824</ele>
        <time>2016-06-08T14:43:12Z</time>
      </trkpt>
      <trkpt lat="43.40159" lon="6.0859">
        <ele>246.19999694824</ele>
        <time>2016-06-08T14:43:15Z</time>
      </trkpt>
      <trkpt lat="43.40162" lon="6.08586">
        <ele>246.19999694824</ele>
        <time>2016-06-08T14:43:16Z</time>
      </trkpt>
      <trkpt lat="43.40166" lon="6.08576">
        <ele>246.39999389648</ele>
        <time>2016-06-08T14:43:18Z</time>
      </trkpt>
      <trkpt lat="43.40167" lon="6.08557">
        <ele>246.19999694824</ele>
        <time>2016-06-08T14:43:22Z</time>
      </trkpt>
      <trkpt lat="43.40167" lon="6.08543">
        <ele>246.19999694824</ele>
        <time>2016-06-08T14:43:25Z</time>
      </trkpt>
      <trkpt lat="43.40168" lon="6.08529">
        <ele>246.60000610352</ele>
        <time>2016-06-08T14:43:28Z</time>
      </trkpt>
      <trkpt lat="43.4017" lon="6.08519">
        <ele>246.80000305176</ele>
        <time>2016-06-08T14:43:30Z</time>
      </trkpt>
      <trkpt lat="43.40172" lon="6.08495">
        <ele>247.39999389648</ele>
        <time>2016-06-08T14:43:35Z</time>
      </trkpt>
      <trkpt lat="43.40174" lon="6.08474">
        <ele>248</ele>
        <time>2016-06-08T14:43:39Z</time>
      </trkpt>
      <trkpt lat="43.40175" lon="6.08465">
        <ele>248</ele>
        <time>2016-06-08T14:43:41Z</time>
      </trkpt>
      <trkpt lat="43.40177" lon="6.08439">
        <ele>247.80000305176</ele>
        <time>2016-06-08T14:43:46Z</time>
      </trkpt>
      <trkpt lat="43.4018" lon="6.08396">
        <ele>247.80000305176</ele>
        <time>2016-06-08T14:43:53Z</time>
      </trkpt>
      <trkpt lat="43.40181" lon="6.08357">
        <ele>247.39999389648</ele>
        <time>2016-06-08T14:43:59Z</time>
      </trkpt>
      <trkpt lat="43.40182" lon="6.08339">
        <ele>246.80000305176</ele>
        <time>2016-06-08T14:44:02Z</time>
      </trkpt>
      <trkpt lat="43.40184" lon="6.08309">
        <ele>246.80000305176</ele>
        <time>2016-06-08T14:44:07Z</time>
      </trkpt>
      <trkpt lat="43.40188" lon="6.08281">
        <ele>246.39999389648</ele>
        <time>2016-06-08T14:44:13Z</time>
      </trkpt>
      <trkpt lat="43.40187" lon="6.08277">
        <ele>246.19999694824</ele>
        <time>2016-06-08T14:44:17Z</time>
      </trkpt>
      <trkpt lat="43.40187" lon="6.08277">
        <ele>246.19999694824</ele>
        <time>2016-06-08T14:44:30Z</time>
      </trkpt>
      <trkpt lat="43.40187" lon="6.08277">
        <ele>246.19999694824</ele>
        <time>2016-06-08T14:44:41Z</time>
      </trkpt>
      <trkpt lat="43.40187" lon="6.08276">
        <ele>246.19999694824</ele>
        <time>2016-06-08T14:45:01Z</time>
      </trkpt>
      <trkpt lat="43.40187" lon="6.08276">
        <ele>246.60000610352</ele>
        <time>2016-06-08T14:45:10Z</time>
      </trkpt>
      <trkpt lat="43.40187" lon="6.08273">
        <ele>246.60000610352</ele>
        <time>2016-06-08T14:45:14Z</time>
      </trkpt>
      <trkpt lat="43.40187" lon="6.08272">
        <ele>246.60000610352</ele>
        <time>2016-06-08T14:45:16Z</time>
      </trkpt>
      <trkpt lat="43.40186" lon="6.08269">
        <ele>246.60000610352</ele>
        <time>2016-06-08T14:45:21Z</time>
      </trkpt>
      <trkpt lat="43.40185" lon="6.08262">
        <ele>246.60000610352</ele>
        <time>2016-06-08T14:45:30Z</time>
      </trkpt>
      <trkpt lat="43.40185" lon="6.08237">
        <ele>246.60000610352</ele>
        <time>2016-06-08T14:45:35Z</time>
      </trkpt>
      <trkpt lat="43.4019" lon="6.08211">
        <ele>246.39999389648</ele>
        <time>2016-06-08T14:45:40Z</time>
      </trkpt>
      <trkpt lat="43.40194" lon="6.082">
        <ele>246.19999694824</ele>
        <time>2016-06-08T14:45:42Z</time>
      </trkpt>
      <trkpt lat="43.40198" lon="6.08183">
        <ele>246.60000610352</ele>
        <time>2016-06-08T14:45:45Z</time>
      </trkpt>
      <trkpt lat="43.40199" lon="6.08177">
        <ele>246.60000610352</ele>
        <time>2016-06-08T14:45:46Z</time>
      </trkpt>
      <trkpt lat="43.40201" lon="6.08147">
        <ele>246.19999694824</ele>
        <time>2016-06-08T14:45:50Z</time>
      </trkpt>
      <trkpt lat="43.40197" lon="6.08129">
        <ele>245.39999389648</ele>
        <time>2016-06-08T14:45:53Z</time>
      </trkpt>
      <trkpt lat="43.40196" lon="6.08125">
        <ele>245.19999694824</ele>
        <time>2016-06-08T14:45:54Z</time>
      </trkpt>
      <trkpt lat="43.40193" lon="6.08111">
        <ele>244.80000305176</ele>
        <time>2016-06-08T14:45:57Z</time>
      </trkpt>
      <trkpt lat="43.40195" lon="6.08093">
        <ele>244.19999694824</ele>
        <time>2016-06-08T14:46:00Z</time>
      </trkpt>
      <trkpt lat="43.40199" lon="6.08081">
        <ele>243.80000305176</ele>
        <time>2016-06-08T14:46:02Z</time>
      </trkpt>
      <trkpt lat="43.40207" lon="6.08064">
        <ele>243.60000610352</ele>
        <time>2016-06-08T14:46:05Z</time>
      </trkpt>
      <trkpt lat="43.40215" lon="6.08054">
        <ele>243.39999389648</ele>
        <time>2016-06-08T14:46:07Z</time>
      </trkpt>
      <trkpt lat="43.40236" lon="6.08028">
        <ele>242.19999694824</ele>
        <time>2016-06-08T14:46:12Z</time>
      </trkpt>
      <trkpt lat="43.40245" lon="6.08016">
        <ele>241.80000305176</ele>
        <time>2016-06-08T14:46:14Z</time>
      </trkpt>
      <trkpt lat="43.4025" lon="6.0801">
        <ele>241.60000610352</ele>
        <time>2016-06-08T14:46:15Z</time>
      </trkpt>
      <trkpt lat="43.40264" lon="6.0799">
        <ele>241.19999694824</ele>
        <time>2016-06-08T14:46:18Z</time>
      </trkpt>
      <trkpt lat="43.40277" lon="6.07966">
        <ele>240.80000305176</ele>
        <time>2016-06-08T14:46:21Z</time>
      </trkpt>
      <trkpt lat="43.40281" lon="6.07958">
        <ele>240.60000610352</ele>
        <time>2016-06-08T14:46:22Z</time>
      </trkpt>
      <trkpt lat="43.40287" lon="6.0794">
        <ele>240.19999694824</ele>
        <time>2016-06-08T14:46:24Z</time>
      </trkpt>
      <trkpt lat="43.40289" lon="6.07931">
        <ele>239.80000305176</ele>
        <time>2016-06-08T14:46:25Z</time>
      </trkpt>
      <trkpt lat="43.40296" lon="6.07893">
        <ele>239</ele>
        <time>2016-06-08T14:46:29Z</time>
      </trkpt>
      <trkpt lat="43.40298" lon="6.07874">
        <ele>238.80000305176</ele>
        <time>2016-06-08T14:46:31Z</time>
      </trkpt>
      <trkpt lat="43.40307" lon="6.07804">
        <ele>237.60000610352</ele>
        <time>2016-06-08T14:46:38Z</time>
      </trkpt>
      <trkpt lat="43.40312" lon="6.07763">
        <ele>237.19999694824</ele>
        <time>2016-06-08T14:46:42Z</time>
      </trkpt>
      <trkpt lat="43.40317" lon="6.07733">
        <ele>236.60000610352</ele>
        <time>2016-06-08T14:46:45Z</time>
      </trkpt>
      <trkpt lat="43.40319" lon="6.07723">
        <ele>236.39999389648</ele>
        <time>2016-06-08T14:46:46Z</time>
      </trkpt>
      <trkpt lat="43.40327" lon="6.07705">
        <ele>236</ele>
        <time>2016-06-08T14:46:48Z</time>
      </trkpt>
      <trkpt lat="43.40331" lon="6.07698">
        <ele>236</ele>
        <time>2016-06-08T14:46:49Z</time>
      </trkpt>
      <trkpt lat="43.40348" lon="6.07678">
        <ele>235.19999694824</ele>
        <time>2016-06-08T14:46:52Z</time>
      </trkpt>
      <trkpt lat="43.40358" lon="6.07666">
        <ele>234.60000610352</ele>
        <time>2016-06-08T14:46:54Z</time>
      </trkpt>
      <trkpt lat="43.40369" lon="6.07643">
        <ele>234.60000610352</ele>
        <time>2016-06-08T14:46:57Z</time>
      </trkpt>
      <trkpt lat="43.40374" lon="6.07617">
        <ele>234.60000610352</ele>
        <time>2016-06-08T14:47:00Z</time>
      </trkpt>
      <trkpt lat="43.40376" lon="6.07559">
        <ele>235</ele>
        <time>2016-06-08T14:47:07Z</time>
      </trkpt>
      <trkpt lat="43.40376" lon="6.07543">
        <ele>235.19999694824</ele>
        <time>2016-06-08T14:47:09Z</time>
      </trkpt>
      <trkpt lat="43.40378" lon="6.07514">
        <ele>235.39999389648</ele>
        <time>2016-06-08T14:47:13Z</time>
      </trkpt>
      <trkpt lat="43.40382" lon="6.07491">
        <ele>235.39999389648</ele>
        <time>2016-06-08T14:47:16Z</time>
      </trkpt>
      <trkpt lat="43.40392" lon="6.07427">
        <ele>235.39999389648</ele>
        <time>2016-06-08T14:47:24Z</time>
      </trkpt>
      <trkpt lat="43.40393" lon="6.07376">
        <ele>235.19999694824</ele>
        <time>2016-06-08T14:47:30Z</time>
      </trkpt>
      <trkpt lat="43.4039" lon="6.07351">
        <ele>235</ele>
        <time>2016-06-08T14:47:33Z</time>
      </trkpt>
      <trkpt lat="43.40385" lon="6.07327">
        <ele>234.80000305176</ele>
        <time>2016-06-08T14:47:36Z</time>
      </trkpt>
      <trkpt lat="43.40384" lon="6.07305">
        <ele>234.19999694824</ele>
        <time>2016-06-08T14:47:40Z</time>
      </trkpt>
      <trkpt lat="43.40383" lon="6.07303">
        <ele>233.80000305176</ele>
        <time>2016-06-08T14:47:41Z</time>
      </trkpt>
      <trkpt lat="43.40383" lon="6.07302">
        <ele>233.39999389648</ele>
        <time>2016-06-08T14:47:42Z</time>
      </trkpt>
      <trkpt lat="43.40385" lon="6.07296">
        <ele>232.80000305176</ele>
        <time>2016-06-08T14:47:45Z</time>
      </trkpt>
      <trkpt lat="43.4039" lon="6.07289">
        <ele>232.39999389648</ele>
        <time>2016-06-08T14:47:47Z</time>
      </trkpt>
      <trkpt lat="43.40393" lon="6.07286">
        <ele>232.39999389648</ele>
        <time>2016-06-08T14:47:48Z</time>
      </trkpt>
      <trkpt lat="43.40396" lon="6.07283">
        <ele>232.19999694824</ele>
        <time>2016-06-08T14:47:49Z</time>
      </trkpt>
      <trkpt lat="43.40413" lon="6.07283">
        <ele>231.60000610352</ele>
        <time>2016-06-08T14:47:52Z</time>
      </trkpt>
      <trkpt lat="43.40446" lon="6.07284">
        <ele>230.80000305176</ele>
        <time>2016-06-08T14:47:57Z</time>
      </trkpt>
      <trkpt lat="43.40453" lon="6.07283">
        <ele>230.39999389648</ele>
        <time>2016-06-08T14:47:58Z</time>
      </trkpt>
      <trkpt lat="43.40484" lon="6.07281">
        <ele>229.19999694824</ele>
        <time>2016-06-08T14:48:02Z</time>
      </trkpt>
      <trkpt lat="43.40492" lon="6.07281">
        <ele>229</ele>
        <time>2016-06-08T14:48:03Z</time>
      </trkpt>
      <trkpt lat="43.40499" lon="6.07283">
        <ele>228.60000610352</ele>
        <time>2016-06-08T14:48:04Z</time>
      </trkpt>
      <trkpt lat="43.40512" lon="6.07293">
        <ele>228.19999694824</ele>
        <time>2016-06-08T14:48:06Z</time>
      </trkpt>
      <trkpt lat="43.40518" lon="6.07299">
        <ele>228</ele>
        <time>2016-06-08T14:48:07Z</time>
      </trkpt>
      <trkpt lat="43.40535" lon="6.07304">
        <ele>227.60000610352</ele>
        <time>2016-06-08T14:48:10Z</time>
      </trkpt>
      <trkpt lat="43.40541" lon="6.07305">
        <ele>227.39999389648</ele>
        <time>2016-06-08T14:48:11Z</time>
      </trkpt>
      <trkpt lat="43.40556" lon="6.07308">
        <ele>227.19999694824</ele>
        <time>2016-06-08T14:48:14Z</time>
      </trkpt>
      <trkpt lat="43.40561" lon="6.07309">
        <ele>227.19999694824</ele>
        <time>2016-06-08T14:48:16Z</time>
      </trkpt>
      <trkpt lat="43.40562" lon="6.07309">
        <ele>227</ele>
        <time>2016-06-08T14:48:17Z</time>
      </trkpt>
      <trkpt lat="43.40562" lon="6.07309">
        <ele>226.60000610352</ele>
        <time>2016-06-08T14:48:26Z</time>
      </trkpt>
      <trkpt lat="43.40562" lon="6.07309">
        <ele>226.39999389648</ele>
        <time>2016-06-08T14:48:45Z</time>
      </trkpt>
      <trkpt lat="43.40562" lon="6.07309">
        <ele>226.39999389648</ele>
        <time>2016-06-08T14:48:48Z</time>
      </trkpt>
      <trkpt lat="43.40563" lon="6.07309">
        <ele>226.60000610352</ele>
        <time>2016-06-08T14:48:56Z</time>
      </trkpt>
      <trkpt lat="43.40573" lon="6.0731">
        <ele>226.39999389648</ele>
        <time>2016-06-08T14:49:00Z</time>
      </trkpt>
      <trkpt lat="43.40577" lon="6.07309">
        <ele>226.39999389648</ele>
        <time>2016-06-08T14:49:01Z</time>
      </trkpt>
      <trkpt lat="43.40581" lon="6.07308">
        <ele>226.39999389648</ele>
        <time>2016-06-08T14:49:02Z</time>
      </trkpt>
      <trkpt lat="43.40599" lon="6.07305">
        <ele>226.19999694824</ele>
        <time>2016-06-08T14:49:06Z</time>
      </trkpt>
      <trkpt lat="43.40607" lon="6.07313">
        <ele>225.80000305176</ele>
        <time>2016-06-08T14:49:08Z</time>
      </trkpt>
      <trkpt lat="43.40611" lon="6.07318">
        <ele>225.60000610352</ele>
        <time>2016-06-08T14:49:09Z</time>
      </trkpt>
      <trkpt lat="43.40615" lon="6.07323">
        <ele>225.39999389648</ele>
        <time>2016-06-08T14:49:10Z</time>
      </trkpt>
      <trkpt lat="43.40625" lon="6.07341">
        <ele>225</ele>
        <time>2016-06-08T14:49:13Z</time>
      </trkpt>
      <trkpt lat="43.40629" lon="6.07342">
        <ele>224.80000305176</ele>
        <time>2016-06-08T14:49:14Z</time>
      </trkpt>
      <trkpt lat="43.40641" lon="6.07332">
        <ele>224.39999389648</ele>
        <time>2016-06-08T14:49:17Z</time>
      </trkpt>
      <trkpt lat="43.40655" lon="6.07319">
        <ele>223.80000305176</ele>
        <time>2016-06-08T14:49:20Z</time>
      </trkpt>
      <trkpt lat="43.4066" lon="6.07316">
        <ele>223.60000610352</ele>
        <time>2016-06-08T14:49:21Z</time>
      </trkpt>
      <trkpt lat="43.40673" lon="6.07308">
        <ele>223.39999389648</ele>
        <time>2016-06-08T14:49:23Z</time>
      </trkpt>
      <trkpt lat="43.40698" lon="6.07294">
        <ele>223</ele>
        <time>2016-06-08T14:49:27Z</time>
      </trkpt>
      <trkpt lat="43.40711" lon="6.07287">
        <ele>222.80000305176</ele>
        <time>2016-06-08T14:49:29Z</time>
      </trkpt>
      <trkpt lat="43.4075" lon="6.07264">
        <ele>221.60000610352</ele>
        <time>2016-06-08T14:49:35Z</time>
      </trkpt>
      <trkpt lat="43.40757" lon="6.0726">
        <ele>221.60000610352</ele>
        <time>2016-06-08T14:49:36Z</time>
      </trkpt>
      <trkpt lat="43.40793" lon="6.07232">
        <ele>221.19999694824</ele>
        <time>2016-06-08T14:49:42Z</time>
      </trkpt>
      <trkpt lat="43.40821" lon="6.07194">
        <ele>220.60000610352</ele>
        <time>2016-06-08T14:49:48Z</time>
      </trkpt>
      <trkpt lat="43.4084" lon="6.07147">
        <ele>220.60000610352</ele>
        <time>2016-06-08T14:49:54Z</time>
      </trkpt>
      <trkpt lat="43.40847" lon="6.07112">
        <ele>220.39999389648</ele>
        <time>2016-06-08T14:49:58Z</time>
      </trkpt>
      <trkpt lat="43.40849" lon="6.07103">
        <ele>220.39999389648</ele>
        <time>2016-06-08T14:49:59Z</time>
      </trkpt>
      <trkpt lat="43.40849" lon="6.07052">
        <ele>220.80000305176</ele>
        <time>2016-06-08T14:50:05Z</time>
      </trkpt>
      <trkpt lat="43.40846" lon="6.0702">
        <ele>220.80000305176</ele>
        <time>2016-06-08T14:50:09Z</time>
      </trkpt>
      <trkpt lat="43.40848" lon="6.07013">
        <ele>220.80000305176</ele>
        <time>2016-06-08T14:50:10Z</time>
      </trkpt>
      <trkpt lat="43.40857" lon="6.07008">
        <ele>220.80000305176</ele>
        <time>2016-06-08T14:50:12Z</time>
      </trkpt>
      <trkpt lat="43.40862" lon="6.07006">
        <ele>220.80000305176</ele>
        <time>2016-06-08T14:50:13Z</time>
      </trkpt>
      <trkpt lat="43.40887" lon="6.07">
        <ele>220.80000305176</ele>
        <time>2016-06-08T14:50:18Z</time>
      </trkpt>
      <trkpt lat="43.40905" lon="6.06984">
        <ele>220.80000305176</ele>
        <time>2016-06-08T14:50:22Z</time>
      </trkpt>
      <trkpt lat="43.40913" lon="6.06958">
        <ele>220.80000305176</ele>
        <time>2016-06-08T14:50:26Z</time>
      </trkpt>
      <trkpt lat="43.40928" lon="6.0695">
        <ele>220.60000610352</ele>
        <time>2016-06-08T14:50:29Z</time>
      </trkpt>
      <trkpt lat="43.40934" lon="6.06949">
        <ele>220.60000610352</ele>
        <time>2016-06-08T14:50:30Z</time>
      </trkpt>
      <trkpt lat="43.40968" lon="6.06941">
        <ele>219.80000305176</ele>
        <time>2016-06-08T14:50:36Z</time>
      </trkpt>
      <trkpt lat="43.40973" lon="6.06939">
        <ele>219.80000305176</ele>
        <time>2016-06-08T14:50:37Z</time>
      </trkpt>
      <trkpt lat="43.41005" lon="6.06922">
        <ele>219.80000305176</ele>
        <time>2016-06-08T14:50:43Z</time>
      </trkpt>
      <trkpt lat="43.41014" lon="6.06913">
        <ele>219.80000305176</ele>
        <time>2016-06-08T14:50:45Z</time>
      </trkpt>
      <trkpt lat="43.41019" lon="6.06902">
        <ele>219.80000305176</ele>
        <time>2016-06-08T14:50:47Z</time>
      </trkpt>
      <trkpt lat="43.41022" lon="6.06897">
        <ele>219.80000305176</ele>
        <time>2016-06-08T14:50:48Z</time>
      </trkpt>
      <trkpt lat="43.41029" lon="6.06888">
        <ele>220</ele>
        <time>2016-06-08T14:50:51Z</time>
      </trkpt>
      <trkpt lat="43.4103" lon="6.06886">
        <ele>220</ele>
        <time>2016-06-08T14:50:55Z</time>
      </trkpt>
      <trkpt lat="43.4103" lon="6.06886">
        <ele>220</ele>
        <time>2016-06-08T14:51:04Z</time>
      </trkpt>
      <trkpt lat="43.4103" lon="6.06886">
        <ele>220</ele>
        <time>2016-06-08T14:51:12Z</time>
      </trkpt>
      <trkpt lat="43.4103" lon="6.06885">
        <ele>220</ele>
        <time>2016-06-08T14:51:16Z</time>
      </trkpt>
      <trkpt lat="43.4103" lon="6.06886">
        <ele>219.80000305176</ele>
        <time>2016-06-08T14:51:21Z</time>
      </trkpt>
      <trkpt lat="43.4103" lon="6.06886">
        <ele>219.80000305176</ele>
        <time>2016-06-08T14:51:25Z</time>
      </trkpt>
      <trkpt lat="43.4103" lon="6.06886">
        <ele>220</ele>
        <time>2016-06-08T14:51:34Z</time>
      </trkpt>
      <trkpt lat="43.4103" lon="6.06886">
        <ele>220.39999389648</ele>
        <time>2016-06-08T14:52:07Z</time>
      </trkpt>
      <trkpt lat="43.4103" lon="6.06886">
        <ele>220.39999389648</ele>
        <time>2016-06-08T14:52:24Z</time>
      </trkpt>
      <trkpt lat="43.4103" lon="6.06886">
        <ele>220.19999694824</ele>
        <time>2016-06-08T14:52:59Z</time>
      </trkpt>
      <trkpt lat="43.4103" lon="6.06887">
        <ele>220.80000305176</ele>
        <time>2016-06-08T14:53:14Z</time>
      </trkpt>
      <trkpt lat="43.41031" lon="6.06887">
        <ele>220.60000610352</ele>
        <time>2016-06-08T14:53:19Z</time>
      </trkpt>
      <trkpt lat="43.41031" lon="6.06887">
        <ele>220.60000610352</ele>
        <time>2016-06-08T14:53:32Z</time>
      </trkpt>
      <trkpt lat="43.41031" lon="6.06887">
        <ele>221</ele>
        <time>2016-06-08T14:53:59Z</time>
      </trkpt>
      <trkpt lat="43.41031" lon="6.06887">
        <ele>221</ele>
        <time>2016-06-08T14:54:05Z</time>
      </trkpt>
      <trkpt lat="43.41037" lon="6.06884">
        <ele>221</ele>
        <time>2016-06-08T14:54:12Z</time>
      </trkpt>
      <trkpt lat="43.41047" lon="6.06881">
        <ele>221.60000610352</ele>
        <time>2016-06-08T14:54:18Z</time>
      </trkpt>
      <trkpt lat="43.41048" lon="6.0688">
        <ele>221.60000610352</ele>
        <time>2016-06-08T14:54:19Z</time>
      </trkpt>
      <trkpt lat="43.41052" lon="6.06877">
        <ele>222.19999694824</ele>
        <time>2016-06-08T14:54:21Z</time>
      </trkpt>
      <trkpt lat="43.41061" lon="6.06873">
        <ele>223</ele>
        <time>2016-06-08T14:54:25Z</time>
      </trkpt>
      <trkpt lat="43.41062" lon="6.06871">
        <ele>223</ele>
        <time>2016-06-08T14:54:26Z</time>
      </trkpt>
      <trkpt lat="43.41063" lon="6.06865">
        <ele>222.80000305176</ele>
        <time>2016-06-08T14:54:28Z</time>
      </trkpt>
      <trkpt lat="43.41067" lon="6.06847">
        <ele>222.39999389648</ele>
        <time>2016-06-08T14:54:31Z</time>
      </trkpt>
      <trkpt lat="43.41069" lon="6.06841">
        <ele>222.19999694824</ele>
        <time>2016-06-08T14:54:32Z</time>
      </trkpt>
      <trkpt lat="43.41079" lon="6.0681">
        <ele>221.39999389648</ele>
        <time>2016-06-08T14:54:38Z</time>
      </trkpt>
      <trkpt lat="43.41081" lon="6.06799">
        <ele>221.39999389648</ele>
        <time>2016-06-08T14:54:40Z</time>
      </trkpt>
      <trkpt lat="43.41083" lon="6.06787">
        <ele>221.39999389648</ele>
        <time>2016-06-08T14:54:42Z</time>
      </trkpt>
      <trkpt lat="43.41083" lon="6.06775">
        <ele>221.19999694824</ele>
        <time>2016-06-08T14:54:44Z</time>
      </trkpt>
      <trkpt lat="43.41084" lon="6.0676">
        <ele>221.19999694824</ele>
        <time>2016-06-08T14:54:47Z</time>
      </trkpt>
      <trkpt lat="43.41087" lon="6.06756">
        <ele>221.19999694824</ele>
        <time>2016-06-08T14:54:48Z</time>
      </trkpt>
      <trkpt lat="43.41096" lon="6.06747">
        <ele>221.19999694824</ele>
        <time>2016-06-08T14:54:51Z</time>
      </trkpt>
      <trkpt lat="43.41106" lon="6.06738">
        <ele>221.39999389648</ele>
        <time>2016-06-08T14:54:54Z</time>
      </trkpt>
      <trkpt lat="43.41124" lon="6.06728">
        <ele>221.80000305176</ele>
        <time>2016-06-08T14:54:59Z</time>
      </trkpt>
      <trkpt lat="43.41152" lon="6.06719">
        <ele>221.80000305176</ele>
        <time>2016-06-08T14:55:06Z</time>
      </trkpt>
      <trkpt lat="43.41174" lon="6.0672">
        <ele>222</ele>
        <time>2016-06-08T14:55:12Z</time>
      </trkpt>
      <trkpt lat="43.41212" lon="6.06721">
        <ele>222.19999694824</ele>
        <time>2016-06-08T14:55:23Z</time>
      </trkpt>
      <trkpt lat="43.41236" lon="6.06719">
        <ele>223.19999694824</ele>
        <time>2016-06-08T14:55:30Z</time>
      </trkpt>
      <trkpt lat="43.41247" lon="6.0672">
        <ele>223.80000305176</ele>
        <time>2016-06-08T14:55:36Z</time>
      </trkpt>
      <trkpt lat="43.41253" lon="6.06722">
        <ele>224</ele>
        <time>2016-06-08T14:55:42Z</time>
      </trkpt>
      <trkpt lat="43.41255" lon="6.06724">
        <ele>224</ele>
        <time>2016-06-08T14:55:51Z</time>
      </trkpt>
      <trkpt lat="43.4126" lon="6.06732">
        <ele>224.19999694824</ele>
        <time>2016-06-08T14:55:54Z</time>
      </trkpt>
      <trkpt lat="43.41266" lon="6.06743">
        <ele>224.39999389648</ele>
        <time>2016-06-08T14:55:57Z</time>
      </trkpt>
      <trkpt lat="43.4128" lon="6.0677">
        <ele>225.19999694824</ele>
        <time>2016-06-08T14:56:04Z</time>
      </trkpt>
      <trkpt lat="43.41282" lon="6.06773">
        <ele>225.19999694824</ele>
        <time>2016-06-08T14:56:05Z</time>
      </trkpt>
      <trkpt lat="43.41297" lon="6.06792">
        <ele>226</ele>
        <time>2016-06-08T14:56:10Z</time>
      </trkpt>
      <trkpt lat="43.41301" lon="6.06795">
        <ele>226</ele>
        <time>2016-06-08T14:56:11Z</time>
      </trkpt>
      <trkpt lat="43.4132" lon="6.06809">
        <ele>226.39999389648</ele>
        <time>2016-06-08T14:56:16Z</time>
      </trkpt>
      <trkpt lat="43.41331" lon="6.06815">
        <ele>226.80000305176</ele>
        <time>2016-06-08T14:56:19Z</time>
      </trkpt>
      <trkpt lat="43.41347" lon="6.06823">
        <ele>227</ele>
        <time>2016-06-08T14:56:23Z</time>
      </trkpt>
      <trkpt lat="43.41371" lon="6.06835">
        <ele>227.19999694824</ele>
        <time>2016-06-08T14:56:29Z</time>
      </trkpt>
      <trkpt lat="43.41383" lon="6.06842">
        <ele>227.39999389648</ele>
        <time>2016-06-08T14:56:32Z</time>
      </trkpt>
      <trkpt lat="43.41397" lon="6.06855">
        <ele>227.19999694824</ele>
        <time>2016-06-08T14:56:36Z</time>
      </trkpt>
      <trkpt lat="43.41408" lon="6.06867">
        <ele>226.80000305176</ele>
        <time>2016-06-08T14:56:40Z</time>
      </trkpt>
      <trkpt lat="43.41411" lon="6.06872">
        <ele>226.60000610352</ele>
        <time>2016-06-08T14:56:44Z</time>
      </trkpt>
      <trkpt lat="43.41412" lon="6.06874">
        <ele>226.60000610352</ele>
        <time>2016-06-08T14:56:46Z</time>
      </trkpt>
      <trkpt lat="43.41413" lon="6.06876">
        <ele>226.80000305176</ele>
        <time>2016-06-08T14:56:52Z</time>
      </trkpt>
      <trkpt lat="43.41413" lon="6.06877">
        <ele>226.60000610352</ele>
        <time>2016-06-08T14:56:58Z</time>
      </trkpt>
      <trkpt lat="43.41416" lon="6.06886">
        <ele>226.80000305176</ele>
        <time>2016-06-08T14:57:01Z</time>
      </trkpt>
      <trkpt lat="43.41418" lon="6.06896">
        <ele>226.80000305176</ele>
        <time>2016-06-08T14:57:03Z</time>
      </trkpt>
      <trkpt lat="43.41422" lon="6.06907">
        <ele>227</ele>
        <time>2016-06-08T14:57:05Z</time>
      </trkpt>
      <trkpt lat="43.41439" lon="6.06921">
        <ele>227.19999694824</ele>
        <time>2016-06-08T14:57:09Z</time>
      </trkpt>
      <trkpt lat="43.41455" lon="6.06926">
        <ele>227.39999389648</ele>
        <time>2016-06-08T14:57:12Z</time>
      </trkpt>
      <trkpt lat="43.41465" lon="6.06934">
        <ele>227.19999694824</ele>
        <time>2016-06-08T14:57:14Z</time>
      </trkpt>
      <trkpt lat="43.41479" lon="6.06945">
        <ele>226.80000305176</ele>
        <time>2016-06-08T14:57:17Z</time>
      </trkpt>
      <trkpt lat="43.41483" lon="6.06949">
        <ele>226.80000305176</ele>
        <time>2016-06-08T14:57:18Z</time>
      </trkpt>
      <trkpt lat="43.41496" lon="6.06965">
        <ele>227</ele>
        <time>2016-06-08T14:57:22Z</time>
      </trkpt>
      <trkpt lat="43.41509" lon="6.06974">
        <ele>226.80000305176</ele>
        <time>2016-06-08T14:57:27Z</time>
      </trkpt>
      <trkpt lat="43.41526" lon="6.06974">
        <ele>226.80000305176</ele>
        <time>2016-06-08T14:57:32Z</time>
      </trkpt>
      <trkpt lat="43.41547" lon="6.06969">
        <ele>227</ele>
        <time>2016-06-08T14:57:38Z</time>
      </trkpt>
      <trkpt lat="43.41561" lon="6.06968">
        <ele>227.39999389648</ele>
        <time>2016-06-08T14:57:43Z</time>
      </trkpt>
      <trkpt lat="43.41565" lon="6.06968">
        <ele>227.80000305176</ele>
        <time>2016-06-08T14:57:45Z</time>
      </trkpt>
      <trkpt lat="43.41566" lon="6.06973">
        <ele>228</ele>
        <time>2016-06-08T14:57:47Z</time>
      </trkpt>
      <trkpt lat="43.41569" lon="6.06988">
        <ele>227.80000305176</ele>
        <time>2016-06-08T14:57:51Z</time>
      </trkpt>
      <trkpt lat="43.41569" lon="6.06997">
        <ele>227.80000305176</ele>
        <time>2016-06-08T14:57:53Z</time>
      </trkpt>
      <trkpt lat="43.41573" lon="6.07029">
        <ele>227.80000305176</ele>
        <time>2016-06-08T14:58:01Z</time>
      </trkpt>
      <trkpt lat="43.41574" lon="6.07038">
        <ele>227.80000305176</ele>
        <time>2016-06-08T14:58:06Z</time>
      </trkpt>
      <trkpt lat="43.41575" lon="6.07039">
        <ele>227.80000305176</ele>
        <time>2016-06-08T14:58:15Z</time>
      </trkpt>
      <trkpt lat="43.41575" lon="6.07039">
        <ele>228</ele>
        <time>2016-06-08T14:58:22Z</time>
      </trkpt>
      <trkpt lat="43.41575" lon="6.07038">
        <ele>228</ele>
        <time>2016-06-08T14:58:49Z</time>
      </trkpt>
    </trkseg>
  </trk>
</gpx>